[[{"header":{"parameterUnit":"m.s-1","parameterCategory":1,"la1":31.0,"la2":29.5877,"lo1":-88.7671,"lo2":-86.6584,"dy":0.0162,"dx":0.0185,"nx":115,"ny":88,"refTime":"2023-06-10T12:00:00:Z","depth":0,"parameterNumber":2,"parameterNumberName":"U-component_of_WINDS"},"data":[0.0,0.0,0.0,0.0,0.0,0.0,0.0,0.0,0.0,0.0,0.0,0.0,0.0,0.0,0.0,0.0,0.0,0.0,0.0,0.0,0.0,0.0,0.0,0.0,0.0,0.0,0.0,0.0,0.0,0.0,0.0,0.0,0.0,0.0,0.0,0.0,0.0,0.0,0.0,0.0,0.0,0.0,0.0,0.0,0.0,0.0,0.0,0.0,0.0,0.0,0.0,0.0,0.0,0.0,0.0,0.0,0.0,0.0,0.0,0.0,0.0,0.0,0.0,0.0,0.0,0.0,0.0,0.0,0.0,0.0,0.0,0.0,0.0,0.0,0.0,0.0,0.0,0.0,0.0,0.0,0.0,0.0,0.0,0.0,0.0,0.0,0.0,0.0,0.0,0.0,0.0,0.0,0.0,0.0,0.0,0.0,0.0,0.0,0.0,0.0,0.0,0.0,0.0,0.0,0.0,0.0,0.0,0.0,0.0,0.0,0.0,0.0,0.0,0.0,0.0,0.0,0.0,0.0,0.0,0.0,0.0,0.0,0.0,0.0,0.0,0.0,0.0,0.0,0.0,0.0,0.0,0.0,0.0,0.0,0.0,0.0,0.0,0.0,0.0,0.0,0.0,0.0,0.0,0.0,0.0,0.0,0.0,0.0,0.0,0.0,0.0,0.0,0.0,0.0,0.0,0.0,0.0,0.0,0.0,0.0,0.0,0.0,0.0,0.0,0.0,0.0,0.0,0.0,0.0,0.0,0.0,0.0,0.0,0.0,0.0,0.0,0.0,0.0,0.0,0.0,0.0,0.0,0.0,0.0,0.0,0.0,0.0,0.0,0.0,0.0,0.0,0.0,0.0,0.0,0.0,0.0,0.0,0.0,0.0,0.0,0.0,0.0,0.0,0.0,0.0,0.0,0.0,0.0,0.0,0.0,0.0,0.0,0.0,0.0,0.0,0.0,0.0,0.0,0.0,0.0,0.0,0.0,0.0,0.0,0.0,0.0,0.0,0.0,0.0,0.0,0.0,0.0,0.0,0.0,0.0,0.0,0.0,0.0,0.0,0.0,0.0,0.0,0.0,0.0,0.0,0.0,0.0,0.0,0.0,0.0,0.0,0.0,0.0,0.0,0.0,0.0,0.0,0.0,0.0,0.0,0.0,0.0,0.0,0.0,0.0,0.0,0.0,0.0,0.0,0.0,0.0,0.0,0.0,0.0,0.0,0.0,0.0,0.0,0.0,0.0,0.0,0.0,0.0,0.0,0.0,0.0,0.0,0.0,0.0,0.0,0.0,0.0,0.0,0.0,0.0,0.0,0.0,0.0,0.0,0.0,0.0,0.0,0.0,0.0,0.0,0.0,0.0,0.0,0.0,0.0,0.0,0.0,0.0,0.0,0.0,0.0,0.0,0.0,0.0,0.0,0.0,0.0,0.0,0.0,0.0,0.0,0.0,0.0,0.0,0.0,0.0,0.0,0.0,0.0,0.0,0.0,0.0,0.0,0.0,0.0,0.0,0.0,0.0,0.0,0.0,0.0,0.0,0.0,0.0,0.0,0.0,0.0,0.0,0.0,0.0,0.0,0.0,0.0,0.0,0.0,0.0,0.0,0.0,0.0,0.0,0.0,0.0,0.0,0.0,0.0,0.0,0.0,0.0,0.0,0.0,0.0,0.0,0.0,0.0,0.0,0.0,0.0,0.0,0.0,0.0,0.0,0.0,0.0,0.0,0.0,0.0,0.0,0.0,0.0,0.0,0.0,0.0,0.0,0.0,0.0,0.0,0.0,0.0,0.0,0.0,0.0,0.0,0.0,0.0,0.0,0.0,0.0,0.0,0.0,0.0,0.0,0.0,0.0,0.0,0.0,0.0,0.0,0.0,0.0,0.0,0.0,0.0,0.0,0.0,0.0,0.0,0.0,0.0,0.0,0.0,0.0,0.0,0.0,0.0,0.0,0.0,0.0,0.0,0.0,0.0,0.0,0.0,0.0,0.0,0.0,0.0,0.0,0.0,0.0,0.0,0.0,0.0,0.0,0.0,0.0,0.0,0.0,0.0,0.0,0.0,0.0,0.0,0.0,0.0,0.0,0.0,0.0,0.0,0.0,0.0,0.0,0.0,0.0,0.0,0.0,0.0,0.0,0.0,0.0,0.0,0.0,0.0,0.0,0.0,0.0,0.0,0.0,0.0,0.0,0.0,0.0,0.0,0.0,0.0,0.0,0.0,0.0,0.0,0.0,0.0,0.0,0.0,0.0,0.0,0.0,0.0,0.0,0.0,0.0,0.0,0.0,0.0,0.0,0.0,0.0,0.0,0.0,0.0,0.0,0.0,0.0,0.0,0.0,0.0,0.0,0.0,0.0,0.0,0.0,0.0,0.0,0.0,0.0,0.0,0.0,0.0,0.0,0.0,0.0,0.0,0.0,0.0,0.0,0.0,0.0,0.0,0.0,0.0,0.0,0.0,0.0,0.0,0.0,0.0,0.0,0.0,0.0,0.0,0.0,0.0,0.0,0.0,0.0,0.0,0.0,0.0,0.0,0.0,0.0,0.0,0.0,0.0,0.0,0.0,0.0,0.0,0.0,0.0,0.0,0.0,0.0,0.0,0.0,0.0,0.0,0.0,0.0,0.0,0.0,0.0,0.0,0.0,0.0,0.0,0.0,0.0,0.0,0.0,0.0,0.0,0.0,0.0,0.0,0.0,0.0,0.0,0.0,0.0,0.0,0.0,0.0,0.0,0.0,0.0,0.0,0.0,0.0,0.0,0.0,0.0,0.0,0.0,0.0,0.0,0.0,0.0,0.0,0.0,0.0,0.0,0.0,0.0,0.0,0.0,0.0,0.0,0.0,0.0,0.0,0.0,0.0,0.0,0.0,0.0,0.0,0.0,0.0,0.0,0.0,0.0,0.0,0.0,0.0,0.0,0.0,0.0,0.0,0.0,0.0,0.0,0.0,0.0,0.0,0.0,0.0,0.0,0.0,0.0,0.0,0.0,0.0,0.0,0.0,0.0,0.0,0.0,0.0,0.0,0.0,0.0,0.0,0.0,0.0,0.0,0.0,0.0,0.0,0.0,0.0,0.0,0.0,0.0,0.0,0.0,0.0,0.0,0.0,0.0,0.0,0.0,0.0,0.0,0.0,0.0,0.0,0.0,0.0,0.0,0.0,0.0,0.0,0.0,0.0,0.0,0.0,0.0,0.0,0.0,0.0,0.0,0.0,0.0,0.0,0.0,0.0,0.0,0.0,0.0,0.0,0.0,0.0,0.0,0.0,0.0,0.0,0.0,0.0,0.0,0.0,0.0,0.0,0.0,0.0,0.0,0.0,0.0,0.0,0.0,0.0,0.0,0.0,0.0,0.0,0.0,0.0,0.0,0.0,0.0,0.0,0.0,0.0,0.0,0.0,0.0,0.0,0.0,0.0,0.0,0.0,0.0,0.0,0.0,0.0,0.0,0.0,0.0,0.0,0.0,0.0,0.0,0.0,0.0,0.0,0.0,0.0,0.0,0.0,0.0,0.0,0.0,0.0,0.0,0.0,0.0,0.0,0.0,0.0,0.0,0.0,0.0,0.0,0.0,0.0,0.0,0.0,0.0,0.0,0.0,0.0,0.0,0.0,0.0,0.0,0.0,0.0,0.0,0.0,0.0,0.0,0.0,0.0,0.0,0.0,0.0,0.0,0.0,0.0,0.0,0.0,0.0,0.0,0.0,0.0,0.0,0.0,0.0,0.0,0.0,0.0,0.0,0.0,0.0,0.0,0.0,0.0,0.0,0.0,0.0,0.0,0.0,0.0,0.0,0.0,0.0,0.0,0.0,0.0,0.0,0.0,0.0,0.0,0.0,0.0,0.0,0.0,0.0,0.0,0.0,0.0,0.0,0.0,0.0,0.0,0.0,0.0,0.0,0.0,0.0,0.0,0.0,0.0,0.0,0.0,0.0,0.0,0.0,0.0,0.0,0.0,0.0,0.0,0.0,0.0,0.0,0.0,0.0,0.0,0.0,0.0,0.0,0.0,0.0,0.0,0.0,0.0,0.0,0.0,0.0,0.0,0.0,0.0,0.0,0.0,0.0,0.0,0.0,0.0,0.0,0.0,0.0,0.0,0.0,0.0,0.0,0.0,0.0,0.0,0.0,0.0,0.0,0.0,0.0,0.0,0.0,0.0,0.0,0.0,0.0,0.0,0.0,0.0,0.0,0.0,0.0,0.0,0.0,0.0,0.0,0.0,0.0,0.0,0.0,0.0,0.0,0.0,0.0,0.0,0.0,0.0,0.0,0.0,-4.3533,0.0,0.0,0.0,0.0,0.0,0.0,0.0,0.0,0.0,0.0,0.0,0.0,0.0,0.0,0.0,0.0,0.0,0.0,0.0,0.0,0.0,0.0,0.0,0.0,0.0,0.0,0.0,0.0,0.0,0.0,0.0,0.0,0.0,0.0,0.0,0.0,0.0,0.0,0.0,0.0,0.0,0.0,0.0,0.0,0.0,0.0,0.0,0.0,0.0,0.0,0.0,0.0,0.0,0.0,0.0,0.0,0.0,0.0,0.0,0.0,0.0,0.0,0.0,0.0,0.0,0.0,0.0,0.0,0.0,0.0,0.0,0.0,0.0,0.0,0.0,0.0,0.0,0.0,0.0,0.0,0.0,0.0,0.0,0.0,0.0,0.0,0.0,0.0,0.0,0.0,0.0,0.0,0.0,0.0,0.0,0.0,0.0,0.0,0.0,0.0,0.0,0.0,0.0,0.0,0.0,0.0,0.0,0.0,0.0,0.0,-4.5756,-4.4649,-4.499,-4.4668,-4.3533,0.0,0.0,0.0,0.0,0.0,0.0,0.0,0.0,0.0,0.0,0.0,0.0,0.0,0.0,0.0,0.0,0.0,0.0,0.0,0.0,0.0,0.0,0.0,0.0,0.0,0.0,0.0,0.0,0.0,0.0,0.0,0.0,0.0,0.0,0.0,0.0,0.0,0.0,0.0,0.0,0.0,0.0,0.0,0.0,0.0,0.0,0.0,0.0,0.0,0.0,0.0,0.0,0.0,0.0,0.0,0.0,0.0,0.0,0.0,0.0,0.0,0.0,0.0,0.0,0.0,0.0,0.0,0.0,0.0,0.0,0.0,0.0,0.0,0.0,0.0,0.0,0.0,0.0,0.0,0.0,0.0,0.0,0.0,0.0,0.0,0.0,0.0,0.0,0.0,0.0,0.0,0.0,0.0,0.0,0.0,0.0,0.0,0.0,0.0,0.0,0.0,0.0,0.0,0.0,0.0,0.0,0.0,0.0,0.0,0.0,0.0,0.0,-4.6,-4.5674,-4.4616,0.0,0.0,0.0,0.0,0.0,0.0,0.0,0.0,0.0,0.0,0.0,0.0,0.0,0.0,0.0,0.0,0.0,0.0,0.0,0.0,0.0,0.0,0.0,0.0,0.0,0.0,0.0,0.0,0.0,0.0,0.0,0.0,0.0,0.0,0.0,0.0,0.0,0.0,0.0,0.0,0.0,0.0,0.0,0.0,0.0,0.0,0.0,0.0,0.0,0.0,0.0,0.0,0.0,0.0,0.0,0.0,0.0,0.0,0.0,0.0,0.0,0.0,0.0,0.0,0.0,0.0,0.0,0.0,0.0,0.0,0.0,0.0,0.0,0.0,0.0,0.0,0.0,0.0,0.0,0.0,0.0,0.0,0.0,0.0,0.0,0.0,0.0,0.0,0.0,0.0,0.0,0.0,0.0,0.0,0.0,0.0,0.0,0.0,0.0,0.0,0.0,0.0,0.0,0.0,0.0,0.0,0.0,0.0,0.0,0.0,-4.6764,-4.9045,-4.9031,0.0,-4.7793,0.0,0.0,0.0,0.0,0.0,0.0,0.0,0.0,0.0,0.0,0.0,0.0,0.0,0.0,0.0,0.0,0.0,0.0,0.0,0.0,0.0,0.0,0.0,0.0,0.0,0.0,0.0,0.0,0.0,0.0,0.0,0.0,0.0,0.0,0.0,0.0,0.0,0.0,0.0,0.0,0.0,0.0,0.0,0.0,0.0,0.0,0.0,0.0,0.0,0.0,0.0,0.0,0.0,0.0,0.0,0.0,0.0,0.0,0.0,0.0,0.0,0.0,0.0,0.0,0.0,0.0,0.0,0.0,0.0,0.0,0.0,0.0,0.0,0.0,0.0,0.0,0.0,0.0,0.0,0.0,0.0,0.0,0.0,0.0,0.0,0.0,0.0,0.0,0.0,0.0,0.0,0.0,0.0,0.0,0.0,0.0,0.0,0.0,0.0,0.0,0.0,0.0,0.0,0.0,0.0,0.0,0.0,0.0,0.0,0.0,-4.7748,-4.9157,-4.871,-4.7965,0.0,0.0,0.0,0.0,0.0,0.0,0.0,0.0,0.0,0.0,0.0,0.0,0.0,0.0,0.0,0.0,0.0,0.0,0.0,0.0,0.0,0.0,0.0,0.0,0.0,0.0,0.0,0.0,0.0,0.0,0.0,0.0,0.0,0.0,0.0,0.0,0.0,0.0,0.0,0.0,0.0,0.0,0.0,0.0,0.0,0.0,0.0,0.0,0.0,0.0,0.0,0.0,0.0,0.0,0.0,0.0,0.0,0.0,0.0,0.0,0.0,0.0,0.0,0.0,0.0,0.0,0.0,0.0,0.0,0.0,0.0,0.0,0.0,0.0,0.0,0.0,0.0,0.0,0.0,0.0,0.0,0.0,0.0,0.0,0.0,0.0,0.0,0.0,0.0,0.0,0.0,0.0,0.0,0.0,0.0,0.0,0.0,0.0,0.0,0.0,0.0,0.0,0.0,0.0,0.0,0.0,0.0,0.0,0.0,0.0,-4.8202,-4.8975,-4.9949,-4.8781,-4.754,-4.6375,0.0,0.0,0.0,0.0,0.0,0.0,0.0,0.0,0.0,0.0,0.0,0.0,0.0,0.0,0.0,0.0,0.0,0.0,0.0,0.0,0.0,0.0,0.0,0.0,0.0,0.0,0.0,0.0,0.0,0.0,0.0,0.0,0.0,0.0,0.0,0.0,0.0,0.0,0.0,0.0,0.0,0.0,0.0,0.0,0.0,0.0,0.0,0.0,0.0,0.0,0.0,0.0,0.0,0.0,0.0,0.0,0.0,0.0,0.0,0.0,0.0,0.0,0.0,0.0,0.0,0.0,0.0,0.0,0.0,0.0,0.0,0.0,0.0,0.0,0.0,0.0,0.0,0.0,0.0,0.0,0.0,0.0,0.0,0.0,0.0,0.0,0.0,0.0,0.0,0.0,0.0,0.0,0.0,0.0,0.0,0.0,0.0,0.0,0.0,0.0,0.0,0.0,0.0,0.0,0.0,0.0,0.0,0.0,-5.2355,-5.0491,-5.0512,-5.2779,-5.0326,-4.8384,0.0,0.0,0.0,0.0,0.0,0.0,0.0,0.0,0.0,0.0,0.0,0.0,0.0,0.0,0.0,0.0,0.0,0.0,0.0,0.0,0.0,0.0,0.0,0.0,0.0,0.0,0.0,0.0,0.0,0.0,0.0,0.0,0.0,0.0,0.0,0.0,0.0,0.0,0.0,0.0,0.0,0.0,0.0,0.0,0.0,0.0,0.0,0.0,0.0,0.0,0.0,0.0,0.0,0.0,0.0,0.0,0.0,0.0,0.0,0.0,0.0,0.0,0.0,0.0,0.0,0.0,0.0,0.0,0.0,0.0,0.0,0.0,0.0,0.0,0.0,0.0,0.0,0.0,0.0,0.0,0.0,0.0,0.0,0.0,0.0,0.0,0.0,0.0,0.0,0.0,0.0,0.0,0.0,0.0,0.0,0.0,0.0,0.0,0.0,0.0,0.0,0.0,0.0,0.0,0.0,0.0,0.0,0.0,0.0,-4.8164,-4.9009,-5.0585,-5.2906,-5.018,-4.865,0.0,0.0,0.0,0.0,0.0,0.0,0.0,0.0,0.0,0.0,0.0,0.0,0.0,0.0,0.0,0.0,0.0,0.0,0.0,0.0,0.0,0.0,0.0,0.0,0.0,0.0,0.0,0.0,0.0,0.0,0.0,0.0,0.0,0.0,0.0,0.0,0.0,0.0,0.0,0.0,0.0,0.0,0.0,0.0,0.0,0.0,0.0,0.0,0.0,0.0,0.0,0.0,0.0,0.0,0.0,0.0,0.0,0.0,0.0,0.0,0.0,0.0,0.0,0.0,0.0,0.0,0.0,0.0,0.0,0.0,0.0,0.0,0.0,0.0,0.0,0.0,0.0,0.0,0.0,0.0,0.0,0.0,0.0,0.0,0.0,0.0,0.0,0.0,0.0,0.0,0.0,0.0,0.0,0.0,0.0,0.0,0.0,0.0,0.0,0.0,0.0,0.0,0.0,0.0,0.0,0.0,0.0,0.0,0.0,-4.7568,0.0,-5.2254,-5.283,-5.053,-4.8662,0.0,0.0,0.0,0.0,0.0,0.0,0.0,0.0,0.0,0.0,0.0,0.0,0.0,0.0,0.0,0.0,0.0,0.0,0.0,0.0,0.0,0.0,0.0,0.0,0.0,0.0,0.0,0.0,0.0,0.0,0.0,0.0,0.0,0.0,0.0,0.0,0.0,0.0,0.0,0.0,0.0,0.0,0.0,0.0,0.0,0.0,0.0,0.0,0.0,0.0,0.0,0.0,0.0,0.0,0.0,0.0,0.0,0.0,0.0,0.0,0.0,0.0,0.0,0.0,0.0,0.0,0.0,0.0,0.0,0.0,0.0,0.0,0.0,0.0,0.0,0.0,0.0,0.0,0.0,0.0,0.0,0.0,0.0,0.0,0.0,0.0,0.0,0.0,0.0,0.0,0.0,0.0,0.0,0.0,0.0,0.0,0.0,0.0,0.0,0.0,0.0,0.0,0.0,0.0,0.0,0.0,0.0,0.0,-4.4562,-5.1499,-5.4953,-5.5274,-5.2856,-5.1409,-4.8437,0.0,0.0,0.0,0.0,0.0,0.0,0.0,0.0,0.0,0.0,0.0,0.0,0.0,0.0,0.0,0.0,0.0,0.0,0.0,0.0,0.0,0.0,0.0,0.0,0.0,0.0,0.0,0.0,0.0,0.0,0.0,0.0,0.0,0.0,0.0,0.0,0.0,0.0,0.0,0.0,0.0,0.0,0.0,0.0,0.0,0.0,0.0,0.0,0.0,0.0,0.0,0.0,0.0,0.0,0.0,0.0,0.0,0.0,0.0,0.0,0.0,0.0,0.0,0.0,0.0,0.0,0.0,0.0,0.0,0.0,0.0,0.0,0.0,0.0,0.0,0.0,0.0,0.0,0.0,0.0,0.0,0.0,0.0,0.0,0.0,0.0,0.0,0.0,0.0,0.0,0.0,0.0,0.0,0.0,0.0,0.0,0.0,0.0,0.0,0.0,0.0,0.0,0.0,0.0,0.0,0.0,0.0,0.0,0.0,-4.9269,-5.2029,-5.4043,-5.4987,-5.1266,-4.9341,0.0,0.0,0.0,0.0,0.0,0.0,0.0,0.0,0.0,0.0,0.0,0.0,0.0,0.0,0.0,0.0,0.0,0.0,0.0,0.0,0.0,0.0,0.0,0.0,0.0,0.0,0.0,0.0,0.0,0.0,0.0,0.0,0.0,0.0,0.0,0.0,0.0,0.0,0.0,0.0,0.0,0.0,0.0,0.0,0.0,0.0,0.0,0.0,0.0,0.0,0.0,0.0,0.0,0.0,0.0,0.0,0.0,0.0,0.0,0.0,0.0,0.0,0.0,0.0,0.0,0.0,0.0,0.0,0.0,0.0,0.0,0.0,0.0,0.0,0.0,0.0,0.0,0.0,0.0,0.0,0.0,0.0,0.0,0.0,0.0,0.0,0.0,0.0,0.0,0.0,0.0,0.0,0.0,0.0,0.0,0.0,0.0,0.0,0.0,0.0,0.0,0.0,0.0,0.0,0.0,0.0,0.0,0.0,0.0,-5.0625,-5.3587,-5.5405,-5.5837,-5.221,-5.0278,-5.0213,0.0,0.0,0.0,0.0,0.0,0.0,0.0,0.0,0.0,0.0,0.0,0.0,0.0,0.0,0.0,0.0,0.0,0.0,0.0,0.0,0.0,0.0,0.0,0.0,0.0,0.0,0.0,0.0,0.0,0.0,0.0,0.0,0.0,0.0,0.0,0.0,0.0,0.0,0.0,0.0,0.0,0.0,0.0,0.0,0.0,0.0,0.0,0.0,0.0,0.0,0.0,0.0,0.0,0.0,0.0,0.0,0.0,0.0,0.0,0.0,0.0,0.0,0.0,0.0,0.0,0.0,0.0,0.0,0.0,0.0,0.0,0.0,0.0,0.0,0.0,0.0,0.0,0.0,0.0,0.0,0.0,0.0,0.0,0.0,0.0,0.0,0.0,0.0,0.0,0.0,0.0,0.0,0.0,0.0,0.0,0.0,0.0,0.0,0.0,0.0,0.0,0.0,0.0,0.0,0.0,0.0,0.0,0.0,-5.4498,-5.87,-5.9133,-5.5655,-5.4131,-5.1307,0.0,0.0,0.0,0.0,0.0,0.0,0.0,0.0,0.0,0.0,0.0,0.0,0.0,0.0,0.0,0.0,0.0,0.0,0.0,0.0,0.0,0.0,0.0,0.0,0.0,0.0,0.0,0.0,0.0,0.0,0.0,0.0,0.0,0.0,0.0,0.0,0.0,0.0,0.0,0.0,0.0,0.0,0.0,0.0,0.0,0.0,0.0,0.0,0.0,0.0,0.0,0.0,0.0,0.0,0.0,0.0,0.0,0.0,0.0,0.0,0.0,0.0,0.0,0.0,0.0,0.0,0.0,0.0,0.0,0.0,0.0,0.0,0.0,0.0,0.0,0.0,0.0,0.0,0.0,0.0,0.0,0.0,0.0,0.0,0.0,0.0,0.0,0.0,0.0,0.0,0.0,0.0,0.0,0.0,0.0,0.0,0.0,0.0,0.0,0.0,0.0,0.0,0.0,0.0,0.0,0.0,0.0,0.0,0.0,-5.4951,-5.9625,-6.1387,-5.9717,-5.5626,-5.2661,0.0,0.0,0.0,0.0,0.0,0.0,0.0,0.0,0.0,0.0,0.0,0.0,0.0,0.0,0.0,0.0,0.0,0.0,0.0,0.0,0.0,0.0,0.0,0.0,0.0,0.0,0.0,0.0,0.0,0.0,0.0,0.0,0.0,0.0,0.0,0.0,0.0,0.0,0.0,0.0,0.0,0.0,0.0,0.0,0.0,0.0,0.0,0.0,0.0,0.0,0.0,0.0,0.0,0.0,0.0,0.0,0.0,0.0,0.0,0.0,0.0,0.0,0.0,0.0,0.0,0.0,0.0,0.0,0.0,0.0,0.0,0.0,0.0,0.0,0.0,0.0,0.0,0.0,0.0,0.0,0.0,0.0,0.0,0.0,0.0,0.0,0.0,0.0,0.0,0.0,0.0,0.0,0.0,0.0,0.0,0.0,0.0,0.0,0.0,0.0,0.0,0.0,0.0,0.0,0.0,0.0,0.0,0.0,-5.3636,-5.6063,-6.0017,-6.1704,-6.0829,-5.7471,-5.4455,0.0,0.0,0.0,0.0,0.0,0.0,0.0,0.0,0.0,0.0,0.0,0.0,0.0,0.0,0.0,0.0,0.0,0.0,0.0,0.0,0.0,0.0,0.0,0.0,0.0,0.0,0.0,0.0,0.0,0.0,0.0,0.0,0.0,0.0,0.0,0.0,0.0,0.0,0.0,0.0,0.0,0.0,0.0,0.0,0.0,0.0,0.0,0.0,0.0,0.0,0.0,0.0,0.0,0.0,0.0,0.0,0.0,0.0,0.0,0.0,0.0,0.0,0.0,0.0,0.0,0.0,0.0,0.0,0.0,0.0,0.0,0.0,0.0,0.0,0.0,0.0,0.0,0.0,0.0,0.0,0.0,0.0,0.0,0.0,0.0,0.0,0.0,0.0,0.0,0.0,0.0,0.0,0.0,0.0,0.0,0.0,0.0,0.0,0.0,0.0,0.0,0.0,0.0,0.0,0.0,0.0,0.0,0.0,-5.4644,-5.7463,-6.0057,-6.0942,-6.0056,-5.8996,-5.5983,0.0,0.0,0.0,0.0,0.0,0.0,0.0,0.0,0.0,0.0,0.0,0.0,0.0,0.0,0.0,0.0,0.0,0.0,0.0,0.0,0.0,0.0,0.0,0.0,0.0,0.0,0.0,0.0,0.0,0.0,0.0,0.0,0.0,0.0,0.0,0.0,0.0,0.0,0.0,0.0,0.0,0.0,0.0,0.0,0.0,0.0,0.0,0.0,0.0,0.0,0.0,0.0,0.0,0.0,0.0,0.0,0.0,0.0,0.0,0.0,0.0,0.0,0.0,0.0,0.0,0.0,0.0,0.0,0.0,0.0,0.0,0.0,0.0,0.0,0.0,0.0,0.0,0.0,0.0,0.0,0.0,0.0,0.0,0.0,0.0,0.0,0.0,0.0,0.0,0.0,0.0,0.0,0.0,0.0,0.0,0.0,0.0,0.0,0.0,0.0,0.0,0.0,0.0,0.0,0.0,0.0,0.0,0.0,-5.4756,-5.693,-5.9778,-6.0934,-6.0324,-5.7435,-5.4084,0.0,0.0,0.0,0.0,0.0,0.0,0.0,0.0,0.0,0.0,0.0,0.0,0.0,0.0,0.0,0.0,0.0,0.0,0.0,0.0,0.0,0.0,0.0,0.0,0.0,0.0,0.0,0.0,0.0,0.0,0.0,0.0,0.0,0.0,0.0,0.0,0.0,0.0,0.0,0.0,0.0,0.0,0.0,0.0,0.0,0.0,0.0,0.0,-4.6122,0.0,0.0,0.0,0.0,0.0,0.0,0.0,0.0,0.0,0.0,0.0,0.0,0.0,0.0,0.0,0.0,0.0,0.0,0.0,0.0,0.0,0.0,0.0,0.0,0.0,0.0,0.0,0.0,0.0,0.0,0.0,0.0,0.0,0.0,0.0,0.0,0.0,0.0,0.0,0.0,0.0,0.0,0.0,0.0,0.0,0.0,0.0,0.0,0.0,0.0,0.0,0.0,0.0,0.0,0.0,0.0,0.0,0.0,0.0,-5.4678,-5.6499,-5.8814,-5.9783,-5.9218,-5.7079,-5.4199,0.0,0.0,0.0,0.0,0.0,0.0,0.0,0.0,0.0,0.0,0.0,0.0,0.0,0.0,0.0,0.0,0.0,0.0,0.0,0.0,0.0,0.0,0.0,0.0,0.0,0.0,0.0,0.0,0.0,0.0,0.0,0.0,0.0,0.0,0.0,0.0,0.0,0.0,0.0,0.0,0.0,0.0,0.0,0.0,0.0,0.0,0.0,0.0,0.0,0.0,0.0,0.0,0.0,0.0,0.0,0.0,0.0,0.0,0.0,0.0,0.0,0.0,0.0,0.0,0.0,0.0,0.0,0.0,0.0,0.0,0.0,0.0,0.0,0.0,0.0,0.0,0.0,0.0,0.0,0.0,0.0,0.0,0.0,0.0,0.0,0.0,0.0,0.0,0.0,0.0,0.0,0.0,0.0,0.0,0.0,0.0,0.0,0.0,0.0,0.0,0.0,0.0,0.0,0.0,0.0,0.0,0.0,-5.112,-5.4141,-5.5975,-5.744,-5.8026,-5.7634,-5.7097,-5.4852,-5.0792,0.0,0.0,0.0,0.0,0.0,0.0,0.0,0.0,0.0,0.0,0.0,0.0,0.0,0.0,0.0,0.0,0.0,0.0,0.0,0.0,0.0,0.0,0.0,0.0,0.0,0.0,0.0,0.0,0.0,0.0,0.0,0.0,0.0,0.0,0.0,0.0,0.0,0.0,-4.6402,-4.9323,0.0,0.0,0.0,0.0,0.0,0.0,0.0,0.0,-4.781,0.0,0.0,0.0,0.0,0.0,0.0,0.0,0.0,0.0,0.0,0.0,0.0,0.0,0.0,0.0,0.0,0.0,0.0,0.0,0.0,0.0,0.0,0.0,0.0,0.0,0.0,0.0,0.0,0.0,0.0,0.0,0.0,0.0,0.0,0.0,0.0,0.0,0.0,0.0,0.0,0.0,0.0,0.0,0.0,0.0,0.0,0.0,0.0,0.0,0.0,0.0,0.0,0.0,0.0,0.0,0.0,-4.8534,-5.0019,-5.2152,-5.5118,-5.5794,-5.607,-5.6,-5.651,-5.4141,-4.8728,0.0,0.0,0.0,0.0,0.0,0.0,0.0,0.0,0.0,0.0,0.0,0.0,0.0,0.0,0.0,0.0,0.0,0.0,0.0,0.0,0.0,0.0,0.0,0.0,0.0,0.0,0.0,0.0,0.0,0.0,0.0,0.0,0.0,0.0,0.0,0.0,0.0,0.0,0.0,-5.2099,-5.2608,0.0,0.0,0.0,0.0,0.0,0.0,0.0,0.0,-4.7149,0.0,0.0,0.0,0.0,0.0,0.0,0.0,0.0,0.0,0.0,0.0,0.0,0.0,0.0,0.0,0.0,0.0,0.0,0.0,0.0,0.0,0.0,0.0,0.0,0.0,0.0,0.0,0.0,0.0,0.0,0.0,0.0,0.0,0.0,0.0,0.0,0.0,0.0,0.0,0.0,0.0,0.0,0.0,0.0,0.0,0.0,0.0,0.0,0.0,0.0,0.0,0.0,0.0,0.0,0.0,-4.6679,-4.9373,-5.1807,-5.4003,-5.5061,-5.5614,-5.5596,-5.517,-5.2676,0.0,0.0,0.0,0.0,0.0,0.0,0.0,0.0,0.0,0.0,0.0,0.0,0.0,0.0,0.0,0.0,0.0,0.0,0.0,0.0,0.0,0.0,0.0,0.0,0.0,0.0,0.0,0.0,0.0,0.0,0.0,0.0,0.0,0.0,0.0,0.0,0.0,0.0,0.0,0.0,-5.3115,-5.385,-5.3408,0.0,0.0,0.0,0.0,0.0,0.0,-4.7947,-4.7239,0.0,0.0,0.0,0.0,0.0,0.0,0.0,0.0,0.0,0.0,0.0,0.0,0.0,0.0,0.0,0.0,0.0,0.0,0.0,0.0,0.0,0.0,0.0,0.0,0.0,0.0,0.0,0.0,0.0,0.0,0.0,0.0,0.0,0.0,0.0,0.0,0.0,0.0,0.0,0.0,0.0,0.0,0.0,0.0,0.0,0.0,0.0,0.0,0.0,0.0,0.0,0.0,0.0,0.0,0.0,-4.4525,-4.8418,-5.1101,-5.2456,-5.4051,-5.488,-5.4858,-5.394,-5.1602,0.0,0.0,0.0,0.0,0.0,0.0,0.0,0.0,0.0,0.0,0.0,0.0,0.0,0.0,0.0,0.0,0.0,0.0,0.0,0.0,0.0,0.0,0.0,0.0,0.0,0.0,0.0,0.0,0.0,0.0,0.0,0.0,0.0,0.0,0.0,0.0,0.0,0.0,0.0,0.0,0.0,-5.4965,-5.4334,-5.3965,0.0,0.0,0.0,0.0,-4.9003,-4.8673,0.0,0.0,0.0,0.0,0.0,0.0,0.0,0.0,0.0,0.0,0.0,0.0,0.0,0.0,0.0,0.0,0.0,0.0,0.0,0.0,0.0,0.0,0.0,0.0,0.0,0.0,0.0,0.0,0.0,0.0,0.0,0.0,0.0,0.0,0.0,0.0,0.0,0.0,0.0,0.0,0.0,0.0,0.0,0.0,0.0,0.0,0.0,0.0,0.0,0.0,0.0,0.0,0.0,0.0,0.0,0.0,-4.3627,-4.625,-4.8382,-4.9996,-5.1612,-5.2399,-5.2435,-5.3592,-5.1912,0.0,0.0,0.0,0.0,0.0,0.0,0.0,0.0,0.0,0.0,0.0,0.0,0.0,0.0,0.0,0.0,0.0,0.0,0.0,0.0,0.0,0.0,0.0,0.0,0.0,0.0,0.0,0.0,0.0,0.0,0.0,0.0,0.0,0.0,0.0,0.0,0.0,0.0,0.0,0.0,0.0,-5.625,-5.3701,-5.4225,-5.3833,0.0,0.0,-5.0747,-5.1444,-5.1518,0.0,0.0,0.0,0.0,0.0,0.0,0.0,0.0,0.0,0.0,0.0,0.0,0.0,0.0,0.0,0.0,0.0,0.0,0.0,0.0,0.0,0.0,0.0,0.0,0.0,0.0,0.0,0.0,0.0,0.0,0.0,0.0,0.0,0.0,0.0,0.0,0.0,0.0,0.0,0.0,0.0,0.0,0.0,0.0,0.0,0.0,0.0,0.0,0.0,0.0,0.0,0.0,0.0,0.0,0.0,-4.0667,-4.2821,-4.5645,-4.7492,-4.8364,-4.9928,-5.079,-5.0847,-5.0591,-4.9064,0.0,0.0,0.0,0.0,0.0,0.0,0.0,0.0,0.0,0.0,0.0,0.0,0.0,0.0,0.0,0.0,0.0,0.0,0.0,0.0,0.0,0.0,0.0,0.0,0.0,0.0,0.0,0.0,0.0,0.0,0.0,0.0,0.0,0.0,0.0,0.0,0.0,0.0,0.0,0.0,0.0,0.0,-5.4285,-5.4332,0.0,0.0,0.0,-5.161,-5.194,0.0,0.0,0.0,0.0,0.0,0.0,0.0,0.0,0.0,0.0,0.0,0.0,0.0,0.0,0.0,0.0,0.0,0.0,0.0,0.0,0.0,0.0,0.0,0.0,0.0,0.0,0.0,0.0,0.0,0.0,0.0,0.0,0.0,0.0,0.0,0.0,0.0,0.0,0.0,0.0,0.0,0.0,0.0,0.0,0.0,0.0,0.0,0.0,0.0,0.0,0.0,0.0,0.0,0.0,0.0,0.0,0.0,-4.2012,-4.4948,-4.659,-4.6829,-4.8363,-4.9264,-4.9391,-4.8166,0.0,0.0,0.0,0.0,0.0,0.0,0.0,0.0,0.0,0.0,0.0,0.0,0.0,0.0,0.0,0.0,0.0,0.0,0.0,0.0,0.0,0.0,0.0,0.0,0.0,0.0,0.0,-4.0194,0.0,0.0,0.0,0.0,0.0,0.0,0.0,0.0,0.0,0.0,0.0,0.0,0.0,0.0,-5.342,-5.4522,-5.4465,-5.4421,0.0,0.0,-5.2289,-5.2289,-5.1741,-5.0269,0.0,0.0,0.0,0.0,0.0,0.0,0.0,0.0,0.0,0.0,0.0,0.0,0.0,0.0,0.0,0.0,0.0,0.0,0.0,0.0,0.0,0.0,0.0,0.0,0.0,0.0,0.0,0.0,0.0,0.0,0.0,0.0,0.0,0.0,0.0,0.0,0.0,0.0,0.0,0.0,0.0,0.0,0.0,0.0,0.0,0.0,0.0,0.0,0.0,0.0,0.0,0.0,0.0,0.0,-4.0127,-4.1209,-4.3609,-4.4984,-4.5201,-4.6717,-4.7662,-4.7831,-4.7779,-4.6735,0.0,0.0,0.0,0.0,0.0,0.0,0.0,0.0,0.0,0.0,0.0,0.0,0.0,0.0,0.0,0.0,0.0,0.0,0.0,0.0,0.0,0.0,0.0,0.0,0.0,0.0,0.0,0.0,0.0,0.0,0.0,0.0,0.0,0.0,0.0,0.0,0.0,0.0,0.0,0.0,0.0,-5.2847,-5.3664,-5.4773,-5.5493,0.0,-5.4161,-5.3115,-5.3133,-5.373,-5.2678,-4.8164,0.0,0.0,0.0,0.0,0.0,0.0,0.0,0.0,0.0,0.0,0.0,0.0,0.0,0.0,0.0,0.0,0.0,0.0,0.0,0.0,0.0,0.0,0.0,0.0,0.0,0.0,0.0,0.0,0.0,0.0,0.0,0.0,0.0,0.0,0.0,0.0,0.0,0.0,0.0,0.0,0.0,0.0,0.0,0.0,0.0,0.0,0.0,0.0,0.0,0.0,0.0,0.0,0.0,-4.009,-4.1097,-4.316,-4.4032,-4.3765,-4.4926,-4.5632,-4.5795,-4.5749,-4.4908,0.0,0.0,0.0,0.0,0.0,0.0,0.0,0.0,0.0,0.0,0.0,0.0,0.0,0.0,0.0,0.0,0.0,0.0,0.0,0.0,0.0,0.0,0.0,0.0,0.0,0.0,0.0,0.0,-4.0883,-4.1604,-4.2893,0.0,0.0,0.0,0.0,0.0,0.0,0.0,0.0,0.0,0.0,-5.175,-5.2608,-5.3942,0.0,0.0,-5.4234,-5.3573,-5.4528,-5.2926,-5.0818,-4.8591,-4.6564,0.0,0.0,0.0,0.0,0.0,0.0,0.0,0.0,0.0,0.0,0.0,0.0,0.0,0.0,0.0,0.0,0.0,0.0,0.0,0.0,0.0,0.0,0.0,0.0,0.0,0.0,0.0,0.0,0.0,0.0,0.0,0.0,0.0,0.0,0.0,0.0,0.0,0.0,0.0,0.0,0.0,0.0,0.0,0.0,0.0,0.0,0.0,0.0,0.0,0.0,0.0,0.0,-3.9873,-4.0943,-4.2491,-4.3051,-4.2673,-4.3339,-4.389,-4.4202,-4.3707,-4.3066,0.0,0.0,0.0,0.0,0.0,0.0,0.0,0.0,0.0,0.0,0.0,0.0,0.0,0.0,0.0,0.0,0.0,0.0,0.0,0.0,0.0,0.0,0.0,0.0,0.0,0.0,0.0,0.0,-4.1879,-4.2364,-4.2518,0.0,0.0,0.0,0.0,0.0,0.0,0.0,0.0,0.0,0.0,-5.099,-5.2286,-5.3172,-5.3983,-5.4763,-5.3316,-5.2509,-5.365,-5.1536,-4.9313,-4.8081,0.0,0.0,0.0,0.0,0.0,0.0,0.0,0.0,0.0,0.0,0.0,0.0,0.0,0.0,0.0,0.0,0.0,0.0,0.0,0.0,0.0,0.0,0.0,0.0,0.0,0.0,0.0,-4.3497,0.0,0.0,-4.2213,0.0,0.0,0.0,0.0,0.0,0.0,0.0,0.0,0.0,0.0,0.0,0.0,0.0,0.0,0.0,0.0,0.0,0.0,0.0,0.0,0.0,0.0,-3.9346,-4.0583,-4.146,-4.1934,-4.2087,-4.2144,-4.2558,-4.3318,-4.2016,-4.1602,-4.2245,0.0,0.0,0.0,0.0,0.0,0.0,0.0,0.0,0.0,0.0,0.0,0.0,0.0,0.0,0.0,0.0,0.0,0.0,0.0,0.0,0.0,0.0,0.0,0.0,0.0,0.0,-4.3279,-4.271,-4.1769,0.0,0.0,0.0,0.0,0.0,0.0,0.0,0.0,0.0,-4.6253,-4.8431,-5.072,-5.287,-5.2623,-5.244,-5.3118,-5.1261,-4.9739,-4.9886,-4.9682,-4.8765,0.0,0.0,0.0,0.0,0.0,0.0,0.0,0.0,0.0,0.0,0.0,0.0,0.0,0.0,0.0,0.0,0.0,0.0,0.0,0.0,0.0,0.0,0.0,0.0,0.0,0.0,0.0,-4.4782,-4.436,0.0,0.0,0.0,0.0,0.0,0.0,0.0,0.0,0.0,0.0,0.0,-4.2572,-4.3393,0.0,0.0,0.0,0.0,0.0,0.0,0.0,0.0,0.0,0.0,0.0,0.0,-3.932,-4.0556,-4.0994,-4.1249,-4.1295,-4.1437,-4.1631,-4.1931,-4.1474,-4.1085,-4.0815,0.0,0.0,0.0,0.0,0.0,0.0,0.0,0.0,0.0,0.0,0.0,0.0,0.0,0.0,0.0,0.0,0.0,0.0,0.0,0.0,0.0,0.0,0.0,0.0,0.0,-4.136,0.0,0.0,0.0,0.0,0.0,0.0,0.0,0.0,0.0,0.0,0.0,-4.528,-4.6271,-4.8336,-4.9907,-5.0263,-5.1325,-5.1784,0.0,0.0,0.0,0.0,0.0,0.0,0.0,0.0,0.0,0.0,0.0,0.0,0.0,0.0,-4.7635,-4.5498,-4.4492,-4.3506,-4.1996,0.0,0.0,0.0,0.0,0.0,0.0,0.0,0.0,0.0,0.0,0.0,0.0,0.0,0.0,-4.5516,0.0,-4.548,0.0,0.0,0.0,0.0,0.0,0.0,0.0,0.0,-4.3742,-4.3973,-4.355,-4.407,-4.3841,0.0,-4.3064,-4.183,0.0,0.0,0.0,0.0,0.0,0.0,0.0,0.0,-3.9335,-4.0396,-4.0538,-4.0625,-4.0618,-4.0755,-4.0933,-4.1187,-4.1204,-4.073,-3.9757,-3.9039,-3.865,0.0,0.0,0.0,0.0,0.0,0.0,0.0,0.0,0.0,0.0,0.0,0.0,0.0,0.0,0.0,0.0,0.0,0.0,0.0,0.0,0.0,0.0,0.0,-4.0203,0.0,0.0,0.0,0.0,0.0,0.0,0.0,0.0,0.0,-4.3525,-4.4694,-4.5805,-4.6755,-4.8335,-4.9428,-4.9519,0.0,0.0,0.0,0.0,0.0,0.0,0.0,-4.6341,-4.6537,-4.5412,-4.4458,-4.4403,-4.5346,-4.5951,-4.5558,0.0,0.0,-4.5959,-4.5221,-4.4453,-4.3249,-4.3042,-4.2774,-4.1818,-4.1644,-4.1526,0.0,0.0,0.0,0.0,0.0,0.0,0.0,0.0,-4.4929,-4.5773,0.0,-4.5535,0.0,0.0,0.0,0.0,0.0,-4.4728,0.0,0.0,-4.5129,-4.494,-4.4267,-4.3148,-4.2482,-4.2489,-4.3904,-4.3752,-4.2168,-4.0104,0.0,0.0,0.0,0.0,0.0,0.0,-3.9368,-4.0087,-4.0121,-4.0096,-4.0096,-4.0113,-4.0468,-4.1119,-4.1153,-4.0493,-3.9157,-3.9723,-3.9428,-3.8034,-3.7939,0.0,0.0,0.0,0.0,0.0,0.0,0.0,0.0,0.0,0.0,0.0,0.0,0.0,0.0,0.0,0.0,0.0,0.0,0.0,0.0,-4.0275,0.0,0.0,0.0,0.0,0.0,0.0,0.0,0.0,0.0,0.0,-4.3214,-4.507,-4.6782,-4.7565,0.0,0.0,0.0,0.0,-4.8685,-4.932,-4.7627,-4.6465,-4.7035,-4.6551,-4.5855,-4.5137,0.0,0.0,-4.5333,-4.5264,-4.5283,-4.5117,-4.5705,-4.7003,-4.8983,-4.7879,-4.7145,-4.756,-4.5462,-4.3719,-4.2977,-4.1789,-4.0834,-4.8884,0.0,0.0,0.0,0.0,-4.6305,-4.7076,-4.8141,-4.8177,-4.8104,-4.7902,-4.6856,0.0,0.0,0.0,0.0,0.0,0.0,-4.4979,-4.4504,-4.5085,-4.5347,-4.5324,-4.5433,-4.5229,-4.4739,-4.4621,-4.3819,-4.2286,-4.1119,-4.0476,-4.024,0.0,0.0,0.0,0.0,-3.9368,-4.0062,-4.0113,-4.0113,-4.0113,-4.0113,-4.0197,-4.0417,-4.0392,-4.0189,-3.9808,-3.9994,-3.991,-3.9486,-3.8464,0.0,0.0,0.0,0.0,0.0,0.0,0.0,0.0,0.0,0.0,0.0,0.0,0.0,0.0,0.0,0.0,0.0,0.0,0.0,-3.9147,-3.9972,-4.0091,0.0,0.0,0.0,0.0,0.0,0.0,0.0,0.0,0.0,-4.3284,-4.4722,-4.5831,0.0,0.0,-4.7186,-4.7066,-4.7026,-4.695,-4.6713,-4.6483,0.0,-4.657,-4.5657,-4.4834,-4.4606,-4.4115,-4.3621,-4.3203,-4.3193,-4.3183,-4.3134,-4.3709,-4.4421,-4.4963,-4.5121,-4.4916,-4.4521,-4.347,-4.2451,-4.1815,-4.1356,-4.1044,-5.1876,-4.8967,-4.7993,-4.7571,-4.7627,-4.7957,-4.8453,-4.9022,-4.9058,-4.8967,-4.8728,-4.759,-4.6727,-4.6067,-4.4947,0.0,0.0,0.0,-4.5352,-4.512,-4.5337,-4.5537,-4.5698,-4.5534,-4.5229,-4.4745,-4.4028,-4.3227,-4.2296,-4.1559,-4.1204,-4.117,0.0,0.0,-4.0079,-3.9656,-3.9673,-4.0079,-4.0113,-4.0113,-4.0113,-4.0113,-4.0113,-4.0113,-4.0113,-4.0113,-4.0113,-4.0113,-4.0113,-4.0096,-3.8971,-3.8193,0.0,0.0,0.0,0.0,0.0,0.0,0.0,0.0,0.0,0.0,0.0,-3.6568,-3.6409,0.0,0.0,0.0,-3.8111,-3.8579,-3.8334,-3.9264,0.0,0.0,0.0,0.0,0.0,0.0,0.0,-4.0525,-4.1342,-4.2151,-4.2878,-4.3941,-4.5024,-4.6247,-4.6533,-4.6552,-4.6382,0.0,-4.6264,-4.589,-4.5702,-4.5686,-4.5906,-4.4854,-4.3967,-4.3967,-4.304,-4.233,-4.2303,-4.2303,-4.2303,-4.2339,-4.262,-4.2986,-4.3242,-4.3151,-4.3144,-4.3395,-4.2929,-4.2288,-4.1711,-4.1339,-4.1042,-5.4552,-5.1885,-4.9646,-4.8673,-4.8673,-4.9463,-4.9334,-4.86,-4.8545,-4.8912,-4.9463,-4.7847,-4.748,-4.8012,-4.6654,0.0,-4.5864,-4.6103,-4.6168,-4.615,-4.5586,-4.5356,-4.5348,-4.3967,-4.3291,-4.3274,-4.2557,-4.2202,-4.2168,-4.1457,-4.1119,-4.1085,-4.0451,-4.0113,-4.0113,-4.0096,-4.0113,-4.0113,-4.0113,-4.0113,-4.0113,-4.0113,-4.0113,-4.0113,-4.0113,-4.0113,-4.0113,-4.0113,-4.0113,-4.0079,-3.9419,-3.8667,-3.7922,0.0,0.0,0.0,0.0,0.0,0.0,0.0,0.0,0.0,0.0,0.0,0.0,0.0,0.0,0.0,-3.7387,0.0,-3.8055,-3.8443,0.0,0.0,0.0,-3.9767,-3.9738,-3.9958,-4.0113,-4.0113,0.0,0.0,-4.2134,-4.2861,-4.4293,-4.7005,-4.6817,-4.6673,-4.7262,-4.6575,-4.614,-4.5879,-4.5005,-4.4463,-4.4788,-4.3899,-4.3057,-4.3057,-4.2561,-4.2059,-4.2033,-4.2049,-4.2083,-4.2016,-4.2127,-4.226,-4.2928,-4.1962,-4.1681,-4.3388,-4.3164,-4.2545,-4.1966,-4.1291,-4.0669,-5.4149,-5.2858,-5.2307,-5.1683,-5.1132,-5.1336,-5.1316,-5.1077,-5.0472,-4.9976,-4.95,-4.7829,-4.6856,-4.6489,-4.6709,-4.6286,-4.5396,-4.6046,-4.553,-4.4152,-4.3966,-4.3634,-4.3081,-4.2726,-4.2557,-4.2506,-4.1813,-4.1457,-4.1441,-4.0713,-4.0367,-4.0367,-4.018,-4.0113,-4.0113,-4.0113,-4.0113,-4.0113,-4.0113,-4.0113,-4.0113,-4.0113,-4.0113,-4.0113,-4.0113,-4.0113,-4.0113,-4.0113,-4.0113,-4.0096,-3.9402,-3.8667,-3.7939,-3.7026,0.0,0.0,0.0,0.0,0.0,0.0,0.0,0.0,0.0,-3.7659,-3.5924,0.0,-3.8111,0.0,-3.7462,-3.8269,-3.9453,-3.953,0.0,0.0,-4.027,-4.0468,-4.0039,-4.0052,-4.0113,-4.0113,-4.073,-4.1271,-4.1457,-4.21,-4.2824,-4.3537,-4.4456,-4.492,-4.4495,-4.4255,-4.3896,-4.3425,-4.3065,-4.2867,-4.2946,-4.2287,-4.1725,-4.1682,-4.1129,-4.0637,-4.0637,-4.062,-4.062,-4.062,-4.0595,-4.0697,-4.0873,-4.0552,-4.0518,-4.0962,-4.0915,-4.0747,-4.0608,-4.043,-4.0262,-5.4112,-5.3225,-5.3185,-5.2949,-5.2546,-5.2527,-5.2123,-5.1426,-5.0986,-5.0141,-4.8967,-4.803,-4.7388,-4.7021,-4.7424,-4.7104,-4.6239,-4.6312,-4.547,-4.3852,-4.3539,-4.3014,-4.2286,-4.1948,-4.1813,-4.1779,-4.1052,-4.0713,-4.0679,-4.0299,-4.0113,-4.0113,-4.0113,-4.0113,-4.0113,-4.0113,-4.0113,-4.0113,-4.0113,-4.0113,-4.0113,-4.0113,-4.0113,-4.0113,-4.0113,-4.0113,-4.0113,-4.0113,-4.0113,-4.0096,-3.9723,-3.9005,-3.7956,-3.7218,-3.6423,0.0,0.0,0.0,0.0,0.0,0.0,0.0,0.0,0.0,0.0,0.0,-3.7963,-3.7811,-3.8159,-3.8853,-3.9994,-4.001,-3.9956,-4.007,-4.0351,-4.0441,-4.0121,-4.0113,-4.0113,-4.0113,-4.0443,-4.0832,-4.117,-4.1559,-4.1931,-4.2236,-4.3041,-4.342,-4.3031,-4.2912,-4.276,-4.2354,-4.2033,-4.1677,-4.1373,-4.0967,-4.0696,-4.0679,-4.0383,-4.0113,-4.0113,-4.0113,-4.0113,-4.0079,-3.9842,-3.9622,-3.9605,-3.9309,-3.9106,-3.9106,-3.9123,-3.936,-3.996,-4.0096,-4.0045,-5.4254,-5.3225,-5.3185,-5.3185,-5.3185,-5.3096,-5.2197,-5.0802,-5.0674,-4.9719,-4.814,-4.8159,-4.8104,-4.8012,-4.8214,-4.7902,-4.7219,-4.6636,-4.5604,-4.4254,-4.3645,-4.2908,-4.1999,-4.1457,-4.1153,-4.1035,-4.0417,-4.0113,-4.0113,-4.0113,-4.0113,-4.0113,-4.0113,-4.0113,-4.0113,-4.0113,-4.0113,-4.0113,-4.0113,-4.0113,-4.0113,-4.0113,-4.0113,-4.0113,-4.0011,-3.996,-3.9977,-3.996,-3.996,-3.9977,-4.0045,-3.9411,-3.8007,-3.728,-3.6863,0.0,-3.6079,0.0,0.0,0.0,0.0,0.0,0.0,0.0,0.0,-3.7337,-3.7658,-3.9022,-3.9165,-3.9419,-4.0045,-4.0113,-4.0113,-4.0113,-4.0113,-4.0113,-4.0113,-4.0113,-4.0113,-4.0113,-4.0113,-4.0367,-4.0933,-4.1052,-4.1322,-4.1813,-4.1948,-4.1999,-4.1999,-4.2066,-4.21,-4.2049,-4.1474,-4.0865,-4.0383,-4.0163,-4.0146,-4.013,-4.013,-4.0062,-3.9926,-4.0028,-4.0028,-3.9791,-3.9343,-3.9005,-3.8886,-3.8345,-3.7973,-3.8024,-3.8041,-3.8396,-3.936,-3.9706,-3.9597,-5.4055,-5.3206,-5.3185,-5.3185,-5.3151,-5.2509,-5.1683,-5.0765,-5.0105,-4.8893,-4.7351,-4.7333,-4.6966,-4.6471,-4.7719,-4.7611,-4.6425,-4.6302,-4.5244,-4.3499,-4.3318,-4.2261,-4.0587,-4.0984,-4.0882,-4.0333,-4.0163,-4.0113,-4.0113,-4.0113,-4.0113,-4.0113,-4.0113,-4.0113,-4.0113,0.0,0.0,0.0,-4.0113,-4.0113,-4.0113,-4.0113,-4.0113,-4.0096,-3.9495,0.0,-3.9233,-3.9191,-3.9208,-3.9249,-3.9774,0.0,0.0,0.0,0.0,0.0,0.0,0.0,0.0,0.0,0.0,0.0,-3.7905,-3.7347,-3.7083,-3.798,-3.8937,-3.9791,-3.991,-3.996,-4.0096,-4.0113,-4.0113,-4.0113,-4.0113,-4.0113,-4.0113,-4.0113,-4.0113,-4.0113,-4.0113,-4.0146,-4.0299,-4.0316,-4.0383,-4.0587,-4.0519,-4.0519,-4.057,-4.1068,-4.117,-4.0654,-4.0468,-4.0299,-4.013,-4.0113,-4.0113,-4.0113,-4.0113,-3.9859,-3.9394,-3.9706,-3.9588,-3.8667,-3.8684,-3.8751,-3.8227,-3.799,-3.7797,-3.7882,-3.7865,-3.799,-3.8261,-3.8311,-3.8278,-5.3979,-5.3206,-5.3185,-5.2986,0.0,-5.1756,-5.0949,-5.0141,-4.9315,-4.8031,-4.6526,-4.6507,-4.6287,-4.5938,-4.6463,-4.6158,-4.5154,-4.4889,-4.3863,-4.2294,-4.2227,-4.1452,-4.0113,-4.0485,-4.0485,-4.0113,-4.0113,-4.0113,-4.0113,-4.0113,-4.0113,-4.0113,-4.0113,-4.0113,-4.0113,-4.0113,-4.0113,-4.0113,-4.0113,-4.0113,-4.0113,-4.0113,-4.0113,-4.0096,-3.974,0.0,0.0,0.0,0.0,0.0,0.0,0.0,0.0,-3.843,0.0,-3.7347,-3.7652,-3.7895,-3.7912,-3.821,-3.8447,-3.8447,-3.8447,-3.8278,-3.7889,-3.8911,-3.9706,-4.0062,-4.0113,-4.0113,-4.0113,-4.0113,-4.0113,-4.0113,-4.0113,-4.0113,-4.0113,-4.0113,-4.0113,-4.0113,-4.0113,-4.0113,-4.0113,-4.0113,-4.0113,-4.0113,-4.0113,-4.0096,-4.0146,-4.0409,-4.0502,-4.0163,-4.0113,-4.0113,-4.0113,-4.0113,-4.0096,-4.0079,-3.9808,-3.9428,-3.9056,-3.9005,-3.8751,-3.8041,-3.7939,-3.777,-3.7449,-3.706,-3.6749,-3.6772,-3.6749,-3.6749,-3.68,-3.7364,-3.7787,-5.3979,-5.3188,-5.3038,-5.2601,-5.1922,-5.0986,-5.005,-4.9115,0.0,0.0,0.0,-4.5755,-4.5608,-4.548,-4.521,-4.4725,-4.405,-4.3501,-4.2575,-4.141,-4.1367,-4.0926,-4.0113,-4.0231,-4.0231,-4.0113,-4.0113,-4.0113,-4.0113,-4.0113,-4.0113,-4.0113,-4.0113,-4.0113,-4.0113,-4.0113,-4.0113,-4.0113,-4.0113,-4.0113,-4.0113,-4.0113,-4.0113,-4.0113,-3.9977,-3.991,-3.991,-3.9926,-3.991,-3.991,-4.0028,-3.9774,-3.9056,-3.8988,-3.887,-3.8633,-3.8877,-3.8937,-3.8819,-3.892,-3.8734,-3.8142,-3.8768,-3.9216,-3.9174,-3.9757,-4.0113,-4.0113,-4.0113,-4.0113,-4.0113,-4.0113,-4.0113,-4.0113,-4.0113,-4.0113,-4.0113,-4.0113,-4.0113,-4.0113,-4.0113,-4.0113,-4.0113,-4.0113,-4.0028,-3.9926,-3.9859,-3.9825,-3.9791,-3.9943,-4.0163,-4.0113,-3.996,-3.9876,-3.9876,-3.969,-3.974,-3.9571,-3.9123,-3.8785,-3.8565,-3.821,-3.7838,-3.7408,-3.706,-3.6829,-3.6609,-3.6129,-3.5633,-3.5616,-3.5616,-3.5616,-3.5718,-3.658,-3.7212,-5.3979,-5.3151,-5.2454,-5.2105,-5.1885,-5.04,-4.8875,-4.7406,-4.6599,-4.6104,-4.5865,-4.5168,-4.4488,-4.3865,-4.4719,-4.468,-4.3908,-4.3333,-4.2682,-4.2061,-4.2006,-4.1317,-4.0163,-4.0747,-4.0713,-4.013,-4.0113,-4.0113,-4.0113,-4.0113,-4.0113,-4.0113,-4.0113,-4.0113,-4.0113,-4.0113,-4.0113,-4.0113,-4.0113,-4.0113,-4.0113,-4.0113,-4.0113,-4.0079,-3.9503,-3.914,-3.9157,-3.9182,-3.914,-3.9174,-3.9757,-3.9774,-3.9056,-3.9005,-3.8454,-3.732,-3.8294,-3.8734,-3.8125,-3.865,-3.8954,-3.8886,-3.9537,-3.9918,-3.996,-4.0045,-4.0113,-4.0113,-4.0113,-4.0113,-4.0113,-4.0096,-4.0062,-4.0079,-4.0079,-4.0096,-4.0028,-4.0028,-4.0011,-3.9994,-4.0113,-4.0045,-3.9977,-3.9994,-3.974,-3.9292,-3.9157,-3.8954,-3.8667,-3.9317,-4.0028,-4.0011,-3.9546,-3.9208,-3.9089,-3.8599,-3.8396,-3.821,-3.8176,-3.7872,-3.7364,-3.7516,-3.7307,-3.6191,-3.6417,-3.6468,-3.5977,-3.5701,-3.5616,-3.5616,-3.5616,-3.5616,-3.5616,-3.5926,-3.5971,-5.3997,-5.3212,-5.2803,-5.2142,-5.1224,-4.9591,-4.8471,-4.7681,-4.6892,-4.6049,-4.5241,-4.4838,-4.425,-4.3554,-4.372,-4.342,-4.2739,-4.2132,-4.1598,-4.107,-4.1038,-4.0677,-4.0189,-4.0443,-4.0426,-4.0113,-4.0113,-4.0113,-4.0113,-4.0113,-4.0113,-4.0113,-4.0113,-4.0113,-4.0113,-4.0113,-4.0113,-4.0113,-4.0113,-4.0113,-4.0113,-4.0113,-4.0113,-4.0113,-3.9774,-3.9605,-3.9605,-3.958,-3.9605,-3.9622,-3.991,-3.9943,-3.9622,-3.9225,-3.8684,-3.8065,-3.8244,-3.8261,-3.7939,-3.821,-3.8413,-3.8413,-3.9073,-3.9309,-3.892,-3.9631,-4.0096,-4.0113,-4.0113,-4.0113,-4.0096,-3.9757,-3.9478,-3.9478,-3.9157,-3.8903,-3.8903,-3.8903,-3.8903,-3.8903,-3.8903,-3.8903,-3.8886,-3.8903,-3.8819,-3.8447,-3.8396,-3.8227,-3.7939,-3.843,-3.8903,-3.887,-3.8599,-3.8447,-3.8379,-3.8159,-3.7939,-3.7898,-3.755,-3.7195,-3.6812,-3.6857,-3.6343,-3.5785,-3.5943,-3.5977,-3.5633,-3.5616,-3.5616,-3.5616,-3.5616,-3.5616,-3.5616,-3.5616,-3.5616,-5.3997,-5.3206,-5.3004,-5.2013,-5.0435,-4.893,-4.8324,-4.8251,-4.7608,-4.6562,-4.5296,-4.4874,-4.436,-4.3756,-4.303,-4.238,-4.1789,-4.1178,-4.0625,-4.0146,-4.0113,-4.0113,-4.0113,-4.0113,-4.0113,-4.0113,-4.0113,-4.0113,-4.0113,-4.0113,-4.0113,-4.0113,-4.0113,-4.0113,-4.0113,-4.0113,-4.0113,-4.0113,-4.0113,-4.0113,-4.0113,-4.0113,-4.0113,-4.0113,-4.0096,-4.0113,-4.0113,-4.0113,-4.0113,-4.0113,-4.0113,-4.0028,-3.9859,-3.9334,-3.8853,-3.8514,-3.8125,-3.7821,-3.7686,-3.7797,-3.7838,-3.7669,-3.8328,-3.8514,-3.8091,-3.892,-3.969,-3.9808,-3.9656,-3.9622,-3.9706,-3.9157,-3.8751,-3.8717,-3.8261,-3.8007,-3.7922,-3.7898,-3.7898,-3.7898,-3.7898,-3.7956,-3.7898,-3.7898,-3.7872,-3.7719,-3.7516,-3.7381,-3.7381,-3.7381,-3.7381,-3.7432,-3.7516,-3.7652,-3.7635,-3.7432,-3.7307,-3.7381,-3.6907,-3.6552,-3.6366,-3.5977,-3.5684,-3.5616,-3.5616,-3.565,-3.5616,-3.5616,-3.5616,-3.5616,-3.5616,-3.5616,-3.5616,-3.5616,-3.5616,-5.3997,-5.3141,-5.2454,-5.1169,-4.9721,-4.8746,-4.8343,-4.8306,-4.8214,-4.7718,-4.6746,-4.5333,-4.4709,-4.4417,-4.3303,-4.2438,-4.181,-4.1161,-4.0648,-4.0171,-4.0113,-4.0113,-4.0113,-4.0113,-4.0113,-4.0113,-4.0113,-4.0113,-4.0113,-4.0113,-4.0113,-4.0113,-4.0113,-4.0113,-4.0113,-4.0113,-4.0113,-4.0113,-4.0113,-4.0113,-4.0113,-4.0113,-4.0113,-4.0113,-4.0113,-4.0113,-4.0113,-4.0113,-4.0113,-4.0113,-4.0113,-3.9808,-3.9191,-3.9022,-3.842,-3.7185,-3.7567,-3.7618,-3.7032,-3.7516,-3.7567,-3.7032,-3.7584,-3.7973,-3.7872,-3.8024,-3.8396,-3.8802,-3.8481,-3.8497,-3.8954,-3.843,-3.8007,-3.8007,-3.7855,-3.7898,-3.7804,-3.7898,-3.7898,-3.7898,-3.7736,-3.7882,-3.7736,-3.7719,-3.7533,-3.6941,-3.6451,-3.609,-3.6073,-3.6056,-3.6056,-3.6079,-3.64,-3.6863,-3.6846,-3.6265,-3.609,-3.5955,-3.5819,-3.5825,-3.5808,-3.5774,-3.5616,-3.5616,-3.5616,-3.5616,-3.5616,-3.5616,-3.5616,-3.5616,-3.5616,-3.5616,-3.5616,-3.5616,-3.5616,-5.3997,-5.317,-5.2858,-5.1775,-5.0306,-4.9407,-4.8783,-4.8324,-4.8324,-4.8122,-4.77,-4.6599,-4.559,-4.4673,-4.4108,-4.3336,-4.232,-4.1707,-4.1127,-4.0577,-4.0254,-4.0113,-4.0113,-4.0113,-4.0113,-4.0113,-4.0113,-4.0113,-4.0113,-4.0113,-4.0113,-4.0113,-4.0113,-4.0113,-4.0113,-4.0113,-4.0113,-4.0113,-4.0113,-4.0113,-4.0113,-4.0113,-4.0113,-4.0113,-4.0113,-4.0113,-4.0113,-4.0113,-4.0113,-4.0113,-4.0113,-3.9749,-3.9022,-3.8599,-3.7872,-3.6914,-3.6637,-3.6417,-3.6129,-3.64,-3.662,-3.6778,-3.7083,-3.7246,-3.7246,-3.7246,-3.7381,-3.7618,-3.7821,-3.8058,-3.8244,-3.7686,-3.7229,-3.7178,-3.684,-3.6546,-3.6529,-3.6546,-3.6529,-3.6529,-3.6529,-3.6546,-3.6529,-3.6546,-3.6411,-3.6129,-3.5769,-3.5616,-3.5616,-3.5616,-3.5616,-3.5633,-3.5887,-3.6062,-3.6079,-3.5876,-3.5633,-3.5616,-3.5616,-3.5616,-3.5616,-3.5616,-3.5616,-3.5616,-3.5616,-3.5616,-3.5616,-3.5616,-3.5616,-3.5616,-3.5616,-3.5616,-3.5616,-3.5616,-3.5616,-5.3979,-5.3233,-5.2986,-5.2215,-5.1059,-5.0033,-4.9224,-4.8655,-4.8416,-4.8324,-4.8251,-4.7663,-4.6654,-4.5443,-4.5131,-4.4309,-4.3089,-4.2614,-4.1877,-4.0966,-4.0531,-4.0316,-4.013,-4.0113,-4.0113,-4.0113,-4.0113,-4.0113,-4.0113,-4.0113,-4.0113,-4.013,-4.0299,-4.0299,-4.0146,-4.0282,-4.0299,-4.0113,-4.0113,-4.0113,-4.0113,-4.0113,-4.0113,-4.0113,-4.0113,-4.0113,-4.0113,-4.0113,-4.0113,-4.0096,-3.9926,-3.9469,-3.8734,-3.799,-3.7263,-3.6518,-3.596,-3.5616,-3.5616,-3.5616,-3.5859,-3.6366,-3.6451,-3.6451,-3.6491,-3.6491,-3.6468,-3.6518,-3.6975,-3.7297,-3.7516,-3.6924,-3.6485,-3.6434,-3.5904,-3.5616,-3.565,-3.5616,-3.5667,-3.5616,-3.5752,-3.5616,-3.5616,-3.5667,-3.5684,-3.5667,-3.5633,-3.5616,-3.5616,-3.5616,-3.5616,-3.5616,-3.5616,-3.5633,-3.5616,-3.5616,-3.5616,-3.5616,-3.5616,-3.5616,-3.5616,-3.5616,-3.5616,-3.5616,-3.5616,-3.5616,-3.5616,-3.5616,-3.5616,-3.5616,-3.5616,-3.5616,-3.5616,-3.5616,-3.5616,-5.3997,-5.3141,-5.238,-5.205,-5.1811,-5.0308,-4.9592,-4.939,-4.8655,-4.8324,-4.8324,-4.8233,-4.7774,-4.6911,-4.6195,-4.5112,-4.3974,-4.3878,-4.2861,-4.1174,-4.1069,-4.0764,-4.013,-4.0113,-4.0113,-4.0113,-4.0113,-4.0113,-4.0113,-4.0113,-4.0113,-4.013,-4.0696,-4.073,-4.0282,-4.0696,-4.0764,-4.0163,-4.0113,-4.0113,-4.0113,-4.0113,-4.0113,-4.0113,-4.0113,-4.0113,-4.0113,-4.0113,-4.0113,-4.0113,-3.9495,-3.8768,-3.8041,-3.728,-3.6535,-3.5836,-3.5633,-3.5616,-3.5616,-3.5616,-3.5684,-3.5701,-3.5785,-3.5701,-3.5893,-3.5802,-3.5769,-3.5701,-3.5836,-3.6163,-3.6637,-3.6214,-3.5769,-3.5735,-3.5667,-3.5616,-3.5616,-3.5616,-3.5616,-3.5616,-3.5616,-3.5616,-3.5616,-3.5616,-3.5616,-3.5616,-3.5616,-3.5616,-3.5616,-3.5616,-3.5616,-3.5616,-3.5616,-3.5616,-3.5616,-3.5616,-3.5616,-3.5616,-3.5616,-3.5616,-3.5616,-3.5616,-3.5616,-3.5616,-3.5616,-3.5616,-3.5616,-3.5616,-3.5616,-3.5616,-3.5616,-3.5616,-3.5616,-3.5616,-3.5616,-5.3979,-5.3188,-5.2876,-5.2491,-5.1885,-5.082,-5.0068,-4.9519,-4.8673,-4.8324,-4.8324,-4.8324,-4.8141,-4.7846,-4.7168,-4.6017,-4.4635,-4.427,-4.3453,-4.2345,-4.158,-4.1052,-4.0781,-4.035,-4.0113,-4.0113,-4.0113,-4.0113,-4.0113,-4.0113,-4.0113,-4.013,-4.0341,-4.0367,-4.0197,-4.035,-4.0324,-4.013,-4.0113,-4.0113,-4.0113,-4.0113,-4.0113,-4.0113,-4.0113,-4.0113,-4.0113,-4.0113,-4.0113,-4.0113,-3.9842,-3.936,-3.8599,-3.7449,-3.6694,-3.6366,-3.591,-3.5616,-3.5616,-3.5616,-3.5836,-3.6282,-3.587,-3.5853,-3.6146,-3.5926,-3.5616,-3.5616,-3.5616,-3.5791,-3.5893,-3.5735,-3.5616,-3.5616,-3.5616,-3.5616,-3.5616,-3.5616,-3.5616,-3.5616,-3.5616,-3.5616,-3.5616,-3.5616,-3.5616,-3.5616,-3.5616,-3.5616,-3.5616,-3.5616,-3.5616,-3.5616,-3.5616,-3.5616,-3.5616,-3.5616,-3.5616,-3.5616,-3.5616,-3.5616,-3.5616,-3.5616,-3.5616,-3.5616,-3.5616,-3.5616,-3.5616,-3.5616,-3.5616,-3.5616,-3.5616,-3.5616,-3.5616,-3.5616,-3.5616,-5.3757,-5.3248,-5.3185,-5.2747,-5.1922,-5.1132,-5.0325,-4.9537,-4.8691,-4.8324,-4.8324,-4.8324,-4.8324,-4.8248,-4.7858,-4.6865,-4.5477,-4.4827,-4.4082,-4.3185,-4.2313,-4.166,-4.117,-4.0679,-4.035,-4.0146,-4.0113,-4.0113,-4.0113,-4.0113,-4.0113,-4.0113,-4.0316,-4.0333,-4.018,-4.035,-4.0367,-4.0163,-4.0113,-4.0113,-4.0113,-4.0113,-4.0113,-4.0113,-4.0113,-4.0113,-4.0113,-4.0113,-4.0113,-4.0079,-3.9893,-3.9394,-3.8633,-3.7702,-3.7049,-3.6795,-3.6282,-3.5994,-3.6011,-3.5994,-3.6332,-3.7043,-3.6688,-3.6535,-3.6778,-3.6282,-3.5926,-3.5684,-3.5616,-3.5616,-3.5616,-3.5616,-3.5616,-3.5616,-3.5616,-3.5616,-3.5616,-3.5616,-3.5616,-3.5616,-3.5616,-3.5616,-3.5616,-3.5616,-3.5616,-3.5616,-3.5616,-3.5616,-3.5616,-3.5616,-3.5616,-3.5616,-3.5616,-3.5616,-3.5616,-3.5616,-3.5616,-3.5616,-3.5616,-3.5616,-3.5616,-3.5616,-3.5616,-3.5616,-3.5616,-3.5616,-3.5616,-3.5616,-3.5616,-3.5616,-3.5616,-3.5616,-3.5616,-3.5616,-3.5616,-5.3227,-5.3151,-5.3188,-5.2656,-5.183,-5.1022,-5.0288,-4.9537,-4.8673,-4.8324,-4.8324,-4.8324,-4.8324,-4.8287,-4.8152,-4.7521,-4.6329,-4.5621,-4.4628,-4.3406,-4.3265,-4.2506,-4.1339,-4.117,-4.0696,-4.013,-4.0113,-4.0113,-4.0113,-4.0113,-4.0113,-4.0231,-4.0696,-4.0629,-4.0113,-4.0646,-4.073,-4.0265,-4.0113,-4.0113,-4.0113,-4.0113,-4.0113,-4.0113,-4.0113,-4.0113,-4.0113,-4.0113,-4.0113,-4.0028,-3.9478,-3.87,-3.8278,-3.7922,-3.755,-3.6992,-3.6795,-3.6761,-3.6711,-3.6728,-3.7077,-3.7516,-3.777,-3.7398,-3.688,-3.6745,-3.6383,-3.5735,-3.5616,-3.5616,-3.5616,-3.5616,-3.5616,-3.5616,-3.5616,-3.5616,-3.5616,-3.5616,-3.5616,-3.5616,-3.5616,-3.5616,-3.5616,-3.5616,-3.5616,-3.5616,-3.5616,-3.5616,-3.5616,-3.5616,-3.5616,-3.5616,-3.5616,-3.5616,-3.5616,-3.5616,-3.5616,-3.5616,-3.5616,-3.5616,-3.5616,-3.5616,-3.5616,-3.5616,-3.5616,-3.5616,-3.5616,-3.5616,-3.5616,-3.5616,-3.5616,-3.5616,-3.5616,-3.5616,-3.5616,-5.2894,-5.238,-5.238,-5.1903,-5.1114,-5.0306,-4.9831,-4.9519,-4.8673,-4.8324,-4.8324,-4.8324,-4.8324,-4.8191,-4.7877,-4.7216,-4.6383,-4.5783,-4.4992,-4.4207,-4.3664,-4.2912,-4.2016,-4.1441,-4.0815,-4.0214,-4.0113,-4.0113,-4.0113,-4.0113,-4.0113,-4.0163,-4.0333,-4.0333,-4.013,-4.0333,-4.0299,-4.0146,-4.0113,-4.0113,-4.0113,-4.0113,-4.0113,-4.0113,-4.0113,-4.0113,-4.0113,-4.0113,-4.0113,-4.0113,-3.9893,-3.9656,-3.9276,-3.8447,-3.7821,-3.755,-3.7066,-3.6518,-3.6197,-3.6941,-3.7398,-3.7347,-3.7618,-3.7516,-3.6931,-3.6812,-3.6434,-3.5735,-3.5616,-3.5616,-3.5616,-3.5616,-3.5616,-3.5616,-3.5616,-3.5616,-3.5616,-3.5616,-3.5616,-3.5616,-3.5616,-3.5616,-3.5616,-3.5616,-3.5616,-3.5616,-3.5616,-3.5616,-3.5616,-3.5616,-3.5616,-3.5616,-3.5616,-3.5616,-3.5616,-3.5616,-3.5616,-3.5616,-3.5616,-3.5616,-3.5616,-3.5616,-3.5616,-3.5616,-3.5616,-3.5616,-3.5616,-3.5616,-3.5616,-3.5616,-3.5616,-3.5616,-3.5616,-3.5616,-3.5616,-5.2747,-5.2013,-5.2016,-5.1353,-5.0362,-4.9794,-4.9408,-4.9096,-4.8545,-4.8324,-4.8324,-4.8324,-4.8324,-4.8229,-4.7897,-4.7367,-4.6751,-4.6136,-4.5511,-4.4892,-4.4213,-4.3318,-4.2337,-4.1542,-4.0798,-4.0231,-4.0113,-4.0113,-4.0113,-4.0113,-4.0113,-4.0113,-4.0113,-4.0113,-4.0113,-4.0113,-4.0113,-4.0113,-4.0113,-4.0113,-4.0113,-4.0113,-4.0113,-4.0113,-4.0113,-4.0113,-4.0113,-4.0113,-4.0113,-4.0113,-4.0113,-4.0113,-4.0011,-3.9208,-3.8481,-3.7889,-3.7466,-3.6874,-3.6315,-3.7212,-3.7889,-3.7743,-3.8041,-3.7973,-3.733,-3.7009,-3.6434,-3.5791,-3.5616,-3.5616,-3.5616,-3.5616,-3.5616,-3.5616,-3.5616,-3.5616,-3.5616,-3.5616,-3.5616,-3.5616,-3.5616,-3.5616,-3.5616,-3.5616,-3.5616,-3.5616,-3.5616,-3.5616,-3.5616,-3.5616,-3.5616,-3.5616,-3.5616,-3.5616,-3.5616,-3.5616,-3.5616,-3.5616,-3.5616,-3.5616,-3.5616,-3.5616,-3.5616,-3.5616,-3.5616,-3.5616,-3.5616,-3.5616,-3.5616,-3.5616,-3.5616,-3.5616,-3.5616,-3.5616,-3.5616,-5.275,-5.2052,-5.1922,-5.1004,-4.9721,-4.9519,-4.904,-4.8416,-4.8324,-4.8324,-4.8324,-4.8324,-4.8324,-4.8324,-4.8229,-4.7858,-4.7342,-4.6618,-4.5902,-4.5278,-4.4667,-4.3752,-4.2354,-4.1559,-4.0815,-4.0197,-4.0113,-4.0113,-4.0113,-4.0113,-4.0113,-4.0113,-4.0113,-4.0163,-4.0231,-4.0163,-4.0146,-4.0265,-4.0163,-4.0113,-4.0113,-4.0113,-4.0113,-4.0113,-4.0113,-4.0113,-4.0113,-4.0113,-4.0113,-4.0113,-4.0113,-4.0113,-4.0113,-4.0079,-3.9191,-3.8024,-3.7905,-3.7347,-3.7026,-3.755,-3.8125,-3.842,-3.8633,-3.865,-3.7753,-3.706,-3.6451,-3.5718,-3.5616,-3.5616,-3.5616,-3.5616,-3.5616,-3.5616,-3.5616,-3.5616,-3.5616,-3.5616,-3.5616,-3.5616,-3.5616,-3.5616,-3.5616,-3.5616,-3.5616,-3.5616,-3.5616,-3.5616,-3.5616,-3.5616,-3.5616,-3.5616,-3.5616,-3.5616,-3.5616,-3.5616,-3.5616,-3.5616,-3.5616,-3.5616,-3.5616,-3.5616,-3.5616,-3.5616,-3.5616,-3.5616,-3.5616,-3.5616,-3.5616,-3.5616,-3.5616,-3.5616,-3.5616,-3.5616,-3.5616,-5.3003,-5.1979,-5.1353,-5.0508,-4.9574,-4.8948,-4.8545,-4.8324,-4.8324,-4.8324,-4.8324,-4.8324,-4.8324,-4.8324,-4.8305,-4.7957,-4.7406,-4.6733,-4.5743,-4.4818,-4.4657,-4.3745,-4.2405,-4.1559,-4.0849,-4.0248,-4.0197,-4.0113,-4.0113,-4.018,-4.0163,-4.0113,-4.0197,-4.0417,-4.0747,-4.0383,-4.0451,-4.073,-4.0333,-4.0113,-4.0113,-4.0113,-4.0113,-4.0113,-4.0113,-4.0113,-4.0113,-4.0113,-4.0113,-4.0113,-4.0113,-4.0113,-4.0062,-3.9622,-3.892,-3.8176,-3.7855,-3.7307,-3.6637,-3.7618,-3.821,-3.7591,-3.8345,-3.8413,-3.7218,-3.6931,-3.6383,-3.5825,-3.5616,-3.5616,-3.5616,-3.5616,-3.5616,-3.5616,-3.5616,-3.5616,-3.5616,-3.5616,-3.5616,-3.5616,-3.5616,-3.5616,-3.5616,-3.5616,-3.5616,-3.5616,-3.5616,-3.5616,-3.5616,-3.5616,-3.5616,-3.5616,-3.5616,-3.5616,-3.5616,-3.5616,-3.5616,-3.5616,-3.5616,-3.5616,-3.5616,-3.5616,-3.5616,-3.5616,-3.5616,-3.5616,-3.5616,-3.5616,-3.5616,-3.5616,-3.5616,-3.5616,-3.5616,-3.5616,-3.5616,-5.2899,-5.1463,-5.0986,-5.0141,-4.9058,-4.8526,-4.8324,-4.8324,-4.8324,-4.8324,-4.8324,-4.8324,-4.8324,-4.8324,-4.8305,-4.8114,-4.7718,-4.711,-4.6253,-4.5326,-4.481,-4.3931,-4.2828,-4.2016,-4.1424,-4.1044,-4.0696,-4.0807,-4.0959,-4.0713,-4.0739,-4.0933,-4.0722,-4.0798,-4.1102,-4.0832,-4.0561,-4.0629,-4.0299,-4.0113,-4.0113,-4.0113,-4.0113,-4.0113,-4.0113,-4.0113,-4.0113,-4.0113,-4.0113,-4.0113,-4.0113,-4.0113,-4.0045,-3.9419,-3.8819,-3.8362,-3.7838,-3.7094,-3.6907,-3.7618,-3.7753,-3.7415,-3.7922,-3.7608,-3.6948,-3.6541,-3.6011,-3.5701,-3.5616,-3.5616,-3.5616,-3.5616,-3.5616,-3.5616,-3.5616,-3.5616,-3.5616,-3.5616,-3.5616,-3.5616,-3.5616,-3.5616,-3.5616,-3.5616,-3.5616,-3.5616,-3.5616,-3.5616,-3.5616,-3.5616,-3.5616,-3.5616,-3.5616,-3.5616,-3.5616,-3.5616,-3.5616,-3.5616,-3.5616,-3.5616,-3.5616,-3.5616,-3.5616,-3.5616,-3.5616,-3.5616,-3.5616,-3.5616,-3.5616,-3.5616,-3.5616,-3.5616,-3.5616,-3.5616,-3.5616,-5.2676,-5.093,-5.0839,-4.9884,-4.86,-4.8343,-4.8324,-4.8324,-4.8324,-4.8324,-4.8324,-4.8324,-4.8324,-4.8324,-4.8324,-4.8287,-4.821,-4.7428,-4.6728,-4.5845,-4.5037,-4.4175,-4.3538,-4.276,-4.2303,-4.2016,-4.1576,-4.1677,-4.1813,-4.1525,-4.166,-4.1779,-4.1441,-4.1288,-4.1288,-4.1119,-4.073,-4.0426,-4.0214,-4.0113,-4.0113,-4.0113,-4.0113,-4.0113,-4.0113,-4.0113,-4.0113,-4.0113,-4.0113,-4.0113,-4.0113,-4.0113,-4.0028,-3.9453,-3.9073,-3.8751,-3.7862,-3.728,-3.7499,-3.7151,-3.7049,-3.728,-3.6975,-3.6728,-3.6518,-3.6062,-3.5701,-3.5616,-3.5616,-3.5616,-3.5616,-3.5616,-3.5616,-3.5616,-3.5616,-3.5616,-3.5616,-3.5616,-3.5616,-3.5616,-3.5616,-3.5616,-3.5616,-3.5616,-3.5616,-3.5616,-3.5616,-3.5616,-3.5616,-3.5616,-3.5616,-3.5616,-3.5616,-3.5616,-3.5616,-3.5616,-3.5616,-3.5616,-3.5616,-3.5616,-3.5616,-3.5616,-3.5616,-3.5616,-3.5616,-3.5616,-3.5616,-3.5616,-3.5616,-3.5616,-3.5616,-3.5616,-3.5616,-3.5616,-3.5616,-5.2973,-5.1683,-5.1041,-5.0196,-4.9224,-4.8581,-4.8324,-4.8324,-4.8324,-4.8324,-4.8324,-4.8324,-4.8324,-4.8324,-4.8324,-4.8324,-4.8152,-4.7176,-4.6063,-4.5025,-4.4814,-4.4547,-4.4147,-4.3521,-4.2895,-4.2472,-4.2185,-4.2185,-4.2252,-4.2219,-4.2134,-4.2168,-4.166,-4.1491,-4.1813,-4.095,-4.0595,-4.0747,-4.0417,-4.0113,-4.0113,-4.0113,-4.0113,-4.0113,-4.0113,-4.0113,-4.0113,-4.0113,-4.0113,-4.0113,-4.0113,-4.0113,-4.0045,-3.9893,-3.9529,-3.8954,-3.8176,-3.7449,-3.7134,-3.6948,-3.6569,-3.6332,-3.6569,-3.6518,-3.5926,-3.5752,-3.5616,-3.5616,-3.5616,-3.5616,-3.5616,-3.5616,-3.5616,-3.5616,-3.5616,-3.5616,-3.5616,-3.5616,-3.5616,-3.5616,-3.5616,-3.5616,-3.5616,-3.5616,-3.5616,-3.5616,-3.5616,-3.5616,-3.5616,-3.5616,-3.5616,-3.5616,-3.5616,-3.5616,-3.5616,-3.5616,-3.5616,-3.5616,-3.5616,-3.5616,-3.5616,-3.5616,-3.5616,-3.5616,-3.5616,-3.5616,-3.5616,-3.5616,-3.5616,-3.5616,-3.5616,-3.5616,-3.5616,-3.5616,-3.5616,-5.3089,-5.1428,-5.0967,-5.0086,-4.8967,-4.8508,-4.8324,-4.8324,-4.8324,-4.8324,-4.8324,-4.8324,-4.8324,-4.8324,-4.8324,-4.8324,-4.7997,-4.6981,-4.5915,-4.5142,-4.4803,-4.4598,-4.4564,-4.4215,-4.3707,-4.3328,-4.2963,-4.2997,-4.3132,-4.2692,-4.2455,-4.2675,-4.1745,-4.139,-4.1728,-4.0967,-4.0663,-4.0527,-4.035,-4.0113,-4.0113,-4.0113,-4.0113,-4.0113,-4.0113,-4.0113,-4.0113,-4.0113,-4.0113,-4.0113,-4.0113,-4.0113,-4.0011,-3.9783,-3.9529,-3.9394,-3.8058,-3.777,-3.7608,-3.6857,-3.6231,-3.6163,-3.6265,-3.5955,-3.5701,-3.5616,-3.5616,-3.5616,-3.5616,-3.5616,-3.5616,-3.5616,-3.5616,-3.5616,-3.5616,-3.5616,-3.5616,-3.5616,-3.5616,-3.5616,-3.5616,-3.5616,-3.5616,-3.5616,-3.5616,-3.5616,-3.5616,-3.5616,-3.5616,-3.5616,-3.5616,-3.5616,-3.5616,-3.5616,-3.5616,-3.5616,-3.5616,-3.5616,-3.5616,-3.5616,-3.5616,-3.5616,-3.5616,-3.5616,-3.5616,-3.5616,-3.5616,-3.5616,-3.5616,-3.5616,-3.5616,-3.5616,-3.5616,-3.5616,-3.5616,-5.2879,-5.0784,-5.0674,-4.9719,-4.8453,-4.8324,-4.8324,-4.8324,-4.8324,-4.8324,-4.8324,-4.8324,-4.8324,-4.8324,-4.8324,-4.823,-4.7697,-4.7004,-4.5965,-4.5178,-4.4776,-4.4626,-4.453,-4.4316,-4.4282,-4.4451,-4.391,-4.3927,-4.3741,-4.3217,-4.276,-4.2929,-4.1897,-4.1322,-4.1238,-4.1035,-4.0663,-4.0265,-4.0163,-4.0113,-4.0113,-4.0113,-4.0113,-4.0113,-4.0113,-4.0113,-4.0113,-4.0113,-4.0113,-4.0113,-4.0113,-4.0113,-3.9943,-3.9597,-3.9385,-3.9994,-3.8369,-3.7895,-3.799,-3.706,-3.6197,-3.6761,-3.6096,-3.5785,-3.5808,-3.5701,-3.5616,-3.5616,-3.5616,-3.5616,-3.5616,-3.5616,-3.5616,-3.5616,-3.5616,-3.5616,-3.5616,-3.5616,-3.5616,-3.5616,-3.5616,-3.5616,-3.5616,-3.5616,-3.5616,-3.5616,-3.5616,-3.5616,-3.5616,-3.5616,-3.5616,-3.5616,-3.5616,-3.5616,-3.5616,-3.5616,-3.5616,-3.5616,-3.5616,-3.5616,-3.5616,-3.5616,-3.5616,-3.5616,-3.5616,-3.5616,-3.5616,-3.5616,-3.5616,-3.5616,-3.5616,-3.5616,-3.5616,-3.5616,-3.5616,-5.2085,-5.0747,-5.0068,-4.9205,-4.8398,-4.8324,-4.8324,-4.8324,-4.8324,-4.8324,-4.8324,-4.8324,-4.8324,-4.8287,-4.8287,-4.7738,-4.6914,-4.6359,-4.5783,-4.4971,-4.4626,-4.4598,-4.4513,-4.4012,-4.4012,-4.4462,-4.4215,-4.3961,-4.3724,-4.3352,-4.2726,-4.2371,-4.1593,-4.1153,-4.095,-4.0646,-4.035,-4.0163,-4.0113,-4.0113,-4.0113,-4.0113,-4.0113,-4.0113,-4.0113,-4.0113,-4.0113,-4.0113,-4.0113,-4.0113,-4.0113,-4.0113,-4.0079,-3.9926,-3.9943,-3.9791,-3.9012,-3.8294,-3.8125,-3.7195,-3.6671,-3.6609,-3.6062,-3.5994,-3.618,-3.5977,-3.5667,-3.5616,-3.5616,-3.5616,-3.5616,-3.5616,-3.5616,-3.5616,-3.5616,-3.5616,-3.5616,-3.5616,-3.5616,-3.5616,-3.5616,-3.5616,-3.5616,-3.5616,-3.5616,-3.5616,-3.5616,-3.5616,-3.5616,-3.5616,-3.5616,-3.5616,-3.5616,-3.5616,-3.5616,-3.5616,-3.5616,-3.5616,-3.5616,-3.5616,-3.5616,-3.5616,-3.5616,-3.5616,-3.5616,-3.5616,-3.5616,-3.5616,-3.5616,-3.5616,-3.5616,-3.5616,-3.5616,-3.5616,-3.5616,-5.2083,-5.0749,-4.9921,-4.9077,-4.8398,-4.8324,-4.8324,-4.8324,-4.8324,-4.8324,-4.8324,-4.8324,-4.8324,-4.821,-4.7919,-4.711,-4.6216,-4.5915,-4.5407,-4.472,-4.4598,-4.4598,-4.4445,-4.3758,-4.369,-4.3775,-4.3606,-4.3487,-4.3301,-4.254,-4.2168,-4.1677,-4.0984,-4.0629,-4.0578,-4.0333,-4.0113,-4.0113,-4.0113,-4.0113,-4.0113,-4.0113,-4.0113,-4.0113,-4.0113,-4.0113,-4.0113,-4.0113,-4.0113,-4.0113,-4.0113,-4.0113,-4.0096,-4.0079,-4.0096,-3.991,-3.9089,-3.8531,-3.8108,-3.7212,-3.6349,-3.666,-3.6062,-3.5785,-3.5994,-3.5802,-3.5616,-3.5616,-3.5616,-3.5616,-3.5616,-3.5616,-3.5616,-3.5616,-3.5616,-3.5616,-3.5616,-3.5616,-3.5616,-3.5616,-3.5616,-3.5616,-3.5616,-3.5616,-3.5616,-3.5616,-3.5616,-3.5616,-3.5616,-3.5616,-3.5616,-3.5616,-3.5616,-3.5616,-3.5616,-3.5616,-3.5616,-3.5616,-3.5616,-3.5616,-3.5616,-3.5616,-3.5616,-3.5616,-3.5616,-3.5616,-3.5616,-3.5616,-3.5616,-3.5616,-3.5616,-3.5616,-3.5616,-3.5616,-3.5616,-5.1816,-5.049,-4.9682,-4.893,-4.8379,-4.8324,-4.8324,-4.8324,-4.8324,-4.8324,-4.8324,-4.8287,-4.8138,-4.7758,-4.7175,-4.6376,-4.5502,-4.552,-4.5075,-4.4387,-4.4248,-4.4265,-4.3921,-4.3453,-4.2963,-4.3064,-4.2523,-4.2388,-4.2496,-4.188,-4.1255,-4.0882,-4.035,-4.0113,-4.013,-4.0146,-4.0113,-4.0113,-4.0113,-4.0113,-4.0113,-4.0113,-4.0113,-4.0113,-4.0113,-4.0113,-4.0113,-4.0113,-4.0113,-4.0113,-4.0113,-4.0113,-4.0079,-3.996,-3.9893,-3.9706,-3.8734,-3.8514,-3.7889,-3.7144,-3.6315,-3.6711,-3.6045,-3.5769,-3.5808,-3.5876,-3.5616,-3.5616,-3.5616,-3.5616,-3.5616,-3.5616,-3.5616,-3.5616,-3.5616,-3.5616,-3.5616,-3.5616,-3.5616,-3.5616,-3.5616,-3.5616,-3.5616,-3.5616,-3.5616,-3.5616,-3.5616,-3.5616,-3.5616,-3.5616,-3.5616,-3.5616,-3.5616,-3.5616,-3.5616,-3.5616,-3.5616,-3.5616,-3.5616,-3.5616,-3.5616,-3.5616,-3.5616,-3.5616,-3.5616,-3.5616,-3.5616,-3.5616,-3.5616,-3.5616,-3.5616,-3.5616,-3.5616,-3.5616,-3.5616,-5.023,-4.9684,-4.8838,-4.8398,-4.8324,-4.8324,-4.8324,-4.8324,-4.8269,-4.8324,-4.8196,-4.8157,-4.7542,-4.6587,-4.5851,-4.551,-4.537,-4.5157,-4.4549,-4.366,-4.3538,-4.3318,-4.2675,-4.183,-4.2134,-4.232,-4.1728,-4.1407,-4.1525,-4.1288,-4.0832,-4.0358,-4.0248,-4.0113,-4.0113,-4.0113,-4.0113,-4.0113,-4.0113,-4.0113,-4.0113,-4.0113,-4.0113,-4.0113,-4.0113,-4.0113,-4.0113,-4.0113,-4.0113,-4.0113,-4.0113,-4.0113,-4.0011,-3.9428,-3.9174,-3.9089,-3.8819,-3.8362,-3.754,-3.6863,-3.662,-3.6728,-3.6113,-3.6096,-3.6079,-3.5893,-3.5616,-3.5616,-3.5616,-3.5616,-3.5616,-3.5616,-3.5616,-3.5616,-3.5616,-3.5616,-3.5616,-3.5616,-3.5616,-3.5616,-3.5616,-3.5616,-3.5616,-3.5616,-3.5616,-3.5616,-3.5616,-3.5616,-3.5616,-3.5616,-3.5616,-3.5616,-3.5616,-3.5616,-3.5616,-3.5616,-3.5616,-3.5616,-3.5616,-3.5616,-3.5616,-3.5616,-3.5616,-3.5616,-3.5616,-3.5616,-3.5616,-3.5616,-3.5616,-3.5616,-3.5616,-3.5616,-3.5616,-3.5616,-3.5616,-4.9767,-4.9537,-4.8673,-4.8324,-4.8324,-4.8324,-4.8324,-4.8214,-4.781,-4.7608,-4.7498,-4.7095,-4.6233,-4.5179,-4.4418,-4.3947,-4.376,-4.3793,-4.343,-4.2925,-4.2777,-4.2794,-4.2709,-4.1863,-4.161,-4.1745,-4.1247,-4.062,-4.0663,-4.0933,-4.0815,-4.0214,-4.0113,-4.0113,-4.0113,-4.0113,-4.0113,-4.0113,-4.0113,-4.0113,-4.0113,-4.0113,-4.0113,-4.0113,-4.0113,-4.0113,-4.0113,-4.0113,-4.0113,-4.0113,-4.0113,-4.0113,-4.0062,-3.974,-3.9385,-3.8396,-3.8785,-3.865,-3.8132,-3.7286,-3.706,-3.6992,-3.64,-3.5769,-3.5994,-3.5876,-3.5616,-3.5616,-3.5616,-3.5616,-3.5616,-3.5616,-3.5616,-3.5616,-3.5616,-3.5616,-3.5616,-3.5616,-3.5616,-3.5616,-3.5616,-3.5616,-3.5616,-3.5616,-3.5616,-3.5616,-3.5616,-3.5616,-3.5616,-3.5616,-3.5616,-3.5616,-3.5616,-3.5616,-3.5616,-3.5616,-3.5616,-3.5616,-3.5616,-3.5616,-3.5616,-3.5616,-3.5616,-3.5616,-3.5616,-3.5616,-3.5616,-3.5616,-3.5616,-3.5616,-3.5616,-3.5616,-3.5616,-3.5616,-3.5554,-4.9482,-4.9205,-4.8563,-4.8324,-4.8324,-4.8324,-4.8324,-4.8233,-4.7718,-4.7314,-4.6762,-4.5842,-4.4721,-4.4089,-4.3454,-4.2903,-4.2424,-4.2472,-4.2269,-4.2151,-4.2049,-4.2151,-4.188,-4.1305,-4.1136,-4.1779,-4.106,-4.0451,-4.0434,-4.0696,-4.0832,-4.0146,-4.0113,-4.0113,-4.0113,-4.0113,-4.0113,-4.0113,-4.0113,-4.0113,-4.0113,-4.0113,-4.0113,-4.0113,-4.0113,-4.0113,-4.0113,-4.0113,-4.0113,-4.0113,-4.0113,-4.0113,-4.0079,-3.9757,-3.93,-3.8616,-3.8802,-3.8954,-3.8437,-3.7753,-3.7297,-3.6992,-3.6586,-3.5633,-3.565,-3.5616,-3.5616,-3.5616,-3.5616,-3.5616,-3.5616,-3.5616,-3.5616,-3.5616,-3.5616,-3.5616,-3.5616,-3.5616,-3.5616,-3.5616,-3.5616,-3.5616,-3.5616,-3.5616,-3.5616,-3.5616,-3.5616,-3.5616,-3.5616,-3.5616,-3.5616,-3.5616,-3.5616,-3.5616,-3.5616,-3.5616,-3.5616,-3.5616,-3.5616,-3.5616,-3.5616,-3.5616,-3.5616,-3.5616,-3.5616,-3.5616,-3.5616,-3.5616,-3.5616,-3.5616,-3.5616,-3.5616,-3.5616,-3.5616,-3.5554,-4.9114,-4.8398,-4.8343,-4.8324,-4.8324,-4.8324,-4.8306,-4.8214,-4.8159,-4.7571,-4.6484,-4.4556,-4.3622,-4.3534,-4.2743,-4.2224,-4.2262,-4.2997,-4.2337,-4.1627,-4.1271,-4.1136,-4.095,-4.0739,-4.0367,-4.062,-4.0587,-4.0476,-4.0383,-4.0679,-4.0595,-4.0214,-4.0113,-4.0113,-4.0113,-4.0113,-4.0113,-4.0113,-4.0113,-4.0113,-4.0113,-4.0113,-4.0113,-4.0113,-4.0113,-4.0113,-4.0113,-4.0113,-4.0113,-4.0113,-4.0113,-4.0113,-4.0028,-3.9706,-3.9191,-3.8937,-3.9005,-3.9106,-3.8717,-3.7939,-3.7066,-3.6677,-3.6248,-3.5718,-3.5616,-3.5616,-3.5616,-3.5616,-3.5616,-3.5616,-3.5616,-3.5616,-3.5616,-3.5616,-3.5616,-3.5616,-3.5616,-3.5616,-3.5616,-3.5616,-3.5616,-3.5616,-3.5616,-3.5616,-3.5616,-3.5616,-3.5616,-3.5616,-3.5616,-3.5616,-3.5616,-3.5616,-3.5616,-3.5616,-3.5616,-3.5616,-3.5616,-3.5616,-3.5616,-3.5616,-3.5616,-3.5616,-3.5616,-3.5616,-3.5616,-3.5616,-3.5616,-3.5616,-3.5616,-3.5616,-3.5616,-3.5616,-3.5616,-3.5616,-3.5554,-4.9427,-4.904,-4.8526,-4.8324,-4.8324,-4.8324,-4.8012,-4.7608,-4.7553,-4.6612,-4.5084,-4.3167,-4.2198,-4.1963,-4.142,-4.0959,-4.0993,-4.1196,-4.1204,-4.1119,-4.0781,-4.0908,-4.0823,-4.0603,-4.0307,-4.0578,-4.0679,-4.0443,-4.0197,-4.0502,-4.0383,-4.0146,-4.0113,-4.0113,-4.0113,-4.0113,-4.0113,-4.0113,-4.0113,-4.0113,-4.0113,-4.0113,-4.0113,-4.0113,-4.0113,-4.0113,-4.0113,-4.0113,-4.0113,-4.0113,-4.0113,-4.007,-4.0045,-3.9707,-3.9445,-3.9149,-3.9335,-3.9419,-3.9073,-3.8362,-3.7828,-3.6846,-3.6485,-3.6129,-3.5667,-3.5616,-3.5616,-3.5616,-3.5616,-3.5616,-3.5616,-3.5616,-3.5616,-3.5616,-3.5616,-3.5616,-3.5616,-3.5616,-3.5616,-3.5616,-3.5616,-3.5616,-3.5616,-3.5616,-3.5616,-3.5616,-3.5616,-3.5616,-3.5616,-3.5616,-3.5616,-3.5616,-3.5616,-3.5616,-3.5616,-3.5616,-3.5616,-3.5616,-3.5616,-3.5616,-3.5616,-3.5616,-3.5616,-3.5616,-3.5616,-3.5616,-3.5616,-3.5616,-3.5616,-3.5616,-3.5616,-3.5616,-3.5616,-3.5616,-3.5509,-4.9463,-4.9169,-4.882,-4.8545,-4.8324,-4.8324,-4.7828,-4.7186,-4.7113,-4.5896,-4.381,-4.2292,-4.1335,-4.0861,-4.0667,-4.0316,-4.04,-4.051,-4.0663,-4.0578,-4.0536,-4.079,-4.0976,-4.0823,-4.0273,-4.0663,-4.0485,-4.0113,-4.0113,-4.0113,-4.0113,-4.013,-4.0113,-4.0113,-4.0113,-4.0113,-4.0113,-4.0113,-4.0113,-4.0113,-4.0113,-4.0113,-4.0113,-4.0113,-4.0113,-4.0113,-4.0113,-4.0113,-4.0113,-4.0113,-4.007,-3.9952,-3.9901,-3.9834,-3.964,-3.9497,-3.9531,-3.9783,-3.9436,-3.8734,-3.8007,-3.6603,-3.6332,-3.6028,-3.5791,-3.5616,-3.5616,-3.5616,-3.5616,-3.5616,-3.5616,-3.5616,-3.5616,-3.5616,-3.5616,-3.5616,-3.5616,-3.5616,-3.5616,-3.5616,-3.5616,-3.5616,-3.5616,-3.5616,-3.5616,-3.5616,-3.5616,-3.5616,-3.5616,-3.5616,-3.5616,-3.5616,-3.5616,-3.5616,-3.5616,-3.5616,-3.5616,-3.5616,-3.5616,-3.5616,-3.5616,-3.5616,-3.5616,-3.5616,-3.5616,-3.5616,-3.5616,-3.5616,-3.5616,-3.5616,-3.5616,-3.5616,-3.5616,-3.56,-3.5447,-4.9095,-4.8471,-4.9188,-4.9003,-4.8232,-4.8288,-4.7792,-4.6947,-4.6726,-4.5619,-4.3654,-4.1846,-4.0949,-4.0847,-4.0806,-4.0536,-4.0299,-4.0663,-4.0832,-4.0426,-4.0265,-4.0248,-4.0299,-4.0282,-4.018,-4.013,-4.0113,-4.0113,-4.0113,-4.0113,-4.0113,-4.0113,-4.0113,-4.0113,-4.0113,-4.0113,-4.0113,-4.0113,-4.0113,-4.0113,-4.0113,-4.0113,-4.0113,-4.0113,-4.0113,-4.0113,-4.0113,-4.0113,-4.0113,-4.0113,-4.0113,-3.985,-3.9437,-3.9876,-3.9715,-3.9232,-3.9741,-4.002,-3.9926,-3.87,-3.7516,-3.6502,-3.6535,-3.6174,-3.5785,-3.565,-3.565,-3.5684,-3.5616,-3.5616,-3.5616,-3.5616,-3.5616,-3.5616,-3.5616,-3.5616,-3.5616,-3.5616,-3.5616,-3.5616,-3.5616,-3.5616,-3.5616,-3.5616,-3.5616,-3.5616,-3.5616,-3.5616,-3.5616,-3.5616,-3.5616,-3.5616,-3.5616,-3.5616,-3.5616,-3.5616,-3.5616,-3.5616,-3.5616,-3.5616,-3.5616,-3.5616,-3.5616,-3.5616,-3.5616,-3.5616,-3.5616,-3.5616,-3.5616,-3.5616,-3.5616,-3.5616,-3.5616,-3.5577,-3.547,-4.8581,-4.8343,-4.8618,-4.8251,-4.7535,-4.7498,-4.7039,-4.614,-4.4854,-4.383,-4.3098,-4.156,-4.0655,-4.0512,-4.0458,-4.0367,-4.0248,-4.0231,-4.0316,-4.0764,-4.035,-4.051,-4.0527,-4.0299,-4.0113,-4.0113,-4.0113,-4.0113,-4.0113,-4.0113,-4.0113,-4.0113,-4.0113,-4.0113,-4.0113,-4.0113,-4.0113,-4.0113,-4.0113,-4.0113,-4.0113,-4.0113,-4.0113,-4.0113,-4.0113,-4.0113,-4.0113,-4.0113,-4.0113,-4.0113,-4.0113,-3.9901,-3.961,-4.002,-3.9927,-3.9662,-4.0054,-3.9817,-3.9537,-3.8734,-3.8227,-3.755,-3.7297,-3.6867,-3.5971,-3.6197,-3.6062,-3.5785,-3.5752,-3.5718,-3.5616,-3.5616,-3.5616,-3.5616,-3.5616,-3.5616,-3.5616,-3.5616,-3.5616,-3.5616,-3.5616,-3.5616,-3.5616,-3.5616,-3.5616,-3.5616,-3.5616,-3.5616,-3.5616,-3.5616,-3.5616,-3.5616,-3.5616,-3.5616,-3.5616,-3.5616,-3.5616,-3.5616,-3.5616,-3.5616,-3.5616,-3.5616,-3.5616,-3.5616,-3.5616,-3.5616,-3.5616,-3.5616,-3.5616,-3.5616,-3.5616,-3.5616,-3.5616,-3.5616,-3.5577,-4.8324,-4.8288,-4.7975,-4.7609,-4.7131,-4.7094,-4.6526,-4.5242,-4.3347,-4.2465,-4.2255,-4.1204,-4.0449,-4.0179,-4.0113,-4.0113,-4.0113,-4.013,-4.0214,-4.073,-4.0367,-4.04,-4.0451,-4.04,-4.0146,-4.0113,-4.0113,-4.0113,-4.0113,-4.0113,-4.0113,-4.0113,-4.0113,-4.0113,-4.0113,-4.0113,-4.0113,-4.0113,-4.0113,-4.0113,-4.0113,-4.0113,-4.0113,-4.0113,-4.0113,-4.0113,-4.0113,-4.0113,-4.0113,-4.0113,-4.007,-3.9952,-3.9859,-3.9927,-3.9918,-3.9808,-3.9944,-3.9767,-3.9571,-3.9445,-3.8954,-3.8328,-3.8616,-3.7889,-3.6772,-3.6992,-3.6891,-3.658,-3.6174,-3.6045,-3.6011,-3.596,-3.565,-3.565,-3.5616,-3.5616,-3.5616,-3.5616,-3.5616,-3.5616,-3.5616,-3.5616,-3.5616,-3.5616,-3.5616,-3.5616,-3.5616,-3.5616,-3.5616,-3.5616,-3.5616,-3.5616,-3.5616,-3.5616,-3.5616,-3.5616,-3.5616,-3.5616,-3.5616,-3.5616,-3.5616,-3.5616,-3.5616,-3.5616,-3.5616,-3.5616,-3.5616,-3.5616,-3.5616,-3.5616,-3.5616,-3.5616,-3.5616,-3.5616,-3.5616,-4.8269,-4.8158,-4.7388,-4.7039,-4.7021,-4.6801,-4.5938,-4.451,-4.2647,-4.1832,-4.1764,-4.0693,-4.0146,-4.0121,-4.0113,-4.0113,-4.0113,-4.0113,-4.0163,-4.0197,-4.0146,-4.0214,-4.0197,-4.0146,-4.0113,-4.0113,-4.0113,-4.0113,-4.0113,-4.0113,-4.0113,-4.0113,-4.0113,-4.0113,-4.0113,-4.0113,-4.0113,-4.0113,-4.0113,-4.0113,-4.0113,-4.0113,-4.0113,-4.0113,-4.0113,-4.0113,-4.0113,-4.0113,-4.0113,-4.007,-4.002,-3.961,-3.9489,-3.9705,-3.9437,-3.9437,-3.9825,-3.9927,-3.9977,-3.9943,-3.9698,-3.9056,-3.8582,-3.8125,-3.7838,-3.7719,-3.7686,-3.7432,-3.706,-3.684,-3.6711,-3.6214,-3.5735,-3.5684,-3.5616,-3.5616,-3.5616,-3.5616,-3.5616,-3.5616,-3.5616,-3.5616,-3.5616,-3.5616,-3.5616,-3.5616,-3.5616,-3.5616,-3.5616,-3.5616,-3.5616,-3.5616,-3.5616,-3.5616,-3.5616,-3.5616,-3.5616,-3.5616,-3.5616,-3.5616,-3.5616,-3.5616,-3.5616,-3.5616,-3.5616,-3.5616,-3.5616,-3.5616,-3.5616,-3.5616,-3.56,-3.5616,-3.5616,-3.5616,-3.5616,-4.7792,-4.8141,-4.6819,-4.6232,-4.6067,-4.5021,-4.425,-4.3668,-4.2378,-4.181,-4.1729,-4.0611,-4.0121,-4.0113,-4.0113,-4.0113,-4.0113,-4.0113,-4.0113,-4.0113,-4.0113,-4.0113,-4.0113,-4.0113,-4.0113,-4.0113,-4.0113,-4.0113,-4.0113,-4.0113,-4.0113,-4.0113,-4.0113,-4.0113,-4.0113,-4.0113,-4.0113,-4.0113,-4.0113,-4.0113,-4.0113,-4.0113,-4.0113,-4.0113,-4.0113,-4.0113,-4.0113,-4.0113,-4.0113,-4.007,-3.9558,-3.9236,-3.9876,-3.9532,-3.9139,-3.9799,-4.002,-4.0096,-4.0113,-4.0113,-3.9977,-3.9791,-3.9445,-3.8785,-3.8447,-3.8294,-3.843,-3.8193,-3.7838,-3.755,-3.71,-3.6552,-3.6028,-3.5701,-3.5633,-3.5616,-3.5616,-3.5616,-3.5616,-3.5633,-3.5633,-3.5701,-3.5701,-3.5616,-3.5616,-3.5616,-3.5616,-3.5616,-3.5616,-3.5616,-3.5616,-3.5616,-3.5616,-3.5616,-3.5616,-3.5616,-3.5616,-3.5616,-3.5616,-3.5616,-3.5616,-3.5616,-3.5616,-3.5616,-3.5616,-3.5616,-3.5616,-3.5616,-3.5616,-3.56,-3.56,-3.56,-3.5616,-3.5577,-3.56,-4.7388,-4.7572,-4.6104,-4.5259,-4.48,-4.3919,-4.3479,-4.3303,-4.2286,-4.181,-4.1643,-4.0594,-4.0113,-4.0113,-4.0113,-4.0113,-4.0113,-4.0113,-4.0113,-4.0113,-4.0113,-4.0113,-4.0113,-4.0113,-4.0113,-4.0113,-4.0113,-4.0113,-4.0113,-4.0113,-4.0113,-4.0113,-4.0113,-4.0113,-4.0113,-4.0113,-4.0113,-4.0113,-4.0113,-4.0113,-4.0113,-4.0113,-4.0113,-4.0113,-4.0113,-4.0113,-4.0113,-4.0113,-4.0113,-4.0113,-3.9506,-3.9584,-4.0045,-3.9636,-3.9489,-4.002,-4.007,-4.0113,-4.0113,-4.0113,-4.0113,-4.0113,-4.0079,-3.9428,-3.9106,-3.8954,-3.9039,-3.8971,-3.8548,-3.8108,-3.7499,-3.6914,-3.6299,-3.5701,-3.565,-3.5616,-3.5616,-3.5616,-3.5633,-3.565,-3.5735,-3.5819,-3.5802,-3.5684,-3.5616,-3.5616,-3.5616,-3.5616,-3.5616,-3.5616,-3.5616,-3.5616,-3.5616,-3.5616,-3.5616,-3.5616,-3.5616,-3.5616,-3.5616,-3.5616,-3.5616,-3.5616,-3.5616,-3.5616,-3.5616,-3.5616,-3.5616,-3.5616,-3.5616,-3.5554,-3.5385,-3.523,-3.5293,-3.5487,-3.5509,-4.6929,-4.6874,-4.5351,-4.4323,-4.3552,-4.3497,-4.3462,-4.3321,-4.2266,-4.181,-4.1595,-4.0611,-4.0113,-4.0113,-4.0113,-4.0113,-4.0113,-4.0113,-4.0113,-4.0113,-4.0113,-4.0113,-4.0113,-4.0113,-4.0113,-4.0113,-4.0113,-4.0113,-4.0113,-4.0113,-4.0113,-4.0113,-4.0113,-4.0113,-4.0113,-4.0113,-4.0113,-4.0113,-4.0113,-4.0113,-4.0113,-4.0113,-4.0113,-4.0113,-4.0113,-4.0113,-4.0113,-4.0113,-4.0113,-4.0113,-3.9969,-3.9901,-3.9833,-3.9808,-3.9859,-3.9927,-3.9927,-3.9995,-4.0045,-4.0113,-4.0113,-4.0113,-4.0079,-3.9597,-3.9326,-3.9266,-3.9283,-3.9056,-3.8565,-3.8075,-3.7506,-3.7212,-3.6755,-3.6022,-3.5633,-3.5616,-3.5616,-3.5616,-3.5616,-3.5752,-3.6113,-3.6146,-3.5785,-3.5684,-3.5836,-3.5735,-3.5616,-3.5616,-3.5616,-3.5616,-3.5616,-3.5616,-3.5616,-3.5616,-3.5616,-3.5616,-3.5616,-3.5616,-3.5616,-3.5616,-3.5616,-3.5616,-3.5616,-3.5616,-3.5616,-3.5616,-3.5616,-3.5616,-3.5532,-3.5316,-3.5098,-3.4807,-3.4894,-3.5207,-3.5091,-4.5627,-4.6104,-4.5095,-4.4232,-4.3534,-4.3479,-4.325,-4.2845,-4.2124,-4.1789,-4.1595,-4.0689,-4.0113,-4.0113,-4.0113,-4.0113,-4.0113,-4.0113,-4.0113,-4.0113,-4.0113,-4.0113,-4.0113,-4.0113,-4.0113,-4.0113,-4.0113,-4.0113,-4.0113,-4.0113,-4.0113,-4.0113,-4.0113,-4.0113,-4.0113,-4.0113,-4.0113,-4.0113,-4.0113,-4.0113,-4.0113,-4.0113,-4.0113,-4.0113,-4.0113,-4.0113,-4.0113,-4.0113,-4.0113,-4.007,-3.9437,-3.9236,-3.9166,-3.9209,-3.9516,-3.9859,-3.9584,-3.9679,-3.9969,-4.0096,-4.0062,-4.0045,-3.996,-3.9605,-3.9343,-3.9317,-3.9106,-3.8802,-3.8481,-3.7997,-3.7642,-3.7449,-3.7161,-3.6383,-3.5667,-3.5667,-3.565,-3.565,-3.565,-3.596,-3.6383,-3.6265,-3.591,-3.5842,-3.6011,-3.5943,-3.5701,-3.5616,-3.5616,-3.5616,-3.5616,-3.5616,-3.5616,-3.5616,-3.5616,-3.5616,-3.5616,-3.5616,-3.5616,-3.5616,-3.56,-3.5616,-3.5616,-3.5616,-3.5616,-3.5616,-3.5616,-3.5616,-3.547,-3.527,-3.5052,-3.483,-3.4783,-3.5005,-3.4657,-4.4948,-4.5259,-4.4507,-4.392,-4.3517,-4.325,-4.2958,-4.2578,-4.1789,-4.1385,-4.1291,-4.0521,-4.0113,-4.0113,-4.0113,-4.0113,-4.0113,-4.0113,-4.0113,-4.0113,-4.0113,-4.0113,-4.0113,-4.0113,-4.0113,-4.0113,-4.0113,-4.0113,-4.0113,-4.0113,-4.0113,-4.0113,-4.0113,-4.0113,-4.0113,-4.0113,-4.0113,-4.0113,-4.0113,-4.0113,-4.0113,-4.0113,-4.0113,-4.0113,-4.0113,-4.0113,-4.0113,-4.0113,-4.0113,-3.9901,-3.9385,-3.9032,-3.887,-3.8608,-3.8843,-3.9209,-3.9262,-3.9262,-3.9808,-4.0079,-3.9943,-3.9808,-3.9639,-3.9174,-3.8007,-3.7946,-3.821,-3.799,-3.8227,-3.7838,-3.7787,-3.7652,-3.7263,-3.662,-3.6265,-3.6163,-3.6079,-3.6011,-3.5842,-3.5718,-3.6113,-3.6332,-3.5977,-3.5684,-3.5819,-3.5802,-3.5616,-3.5616,-3.5616,-3.565,-3.5633,-3.5701,-3.5769,-3.5667,-3.5616,-3.5616,-3.5616,-3.5616,-3.5616,-3.5577,-3.5577,-3.56,-3.5616,-3.5554,-3.5532,-3.5616,-3.5616,-3.5656,-3.5588,-3.5407,-3.5184,-3.4918,-3.4911,-3.4883,-3.4652,-4.4544,-4.4433,-4.3791,-4.3497,-4.341,-4.2939,-4.2635,-4.24,-4.1385,-4.0874,-4.0756,-4.0294,-4.0121,-4.0113,-4.0113,-4.0113,-4.0113,-4.0113,-4.0113,-4.0113,-4.0113,-4.0113,-4.0113,-4.0113,-4.0113,-4.0113,-4.0113,-4.0113,-4.0113,-4.0113,-4.0113,-4.0113,-4.0113,-4.0113,-4.0113,-4.0113,-4.0113,-4.0113,-4.0113,-4.0113,-4.0113,-4.0113,-4.0113,-4.0113,-4.0113,-4.0113,-4.0113,-4.0113,-4.0113,-3.9901,-3.9558,-3.9358,-3.8978,-3.8663,-3.8799,-3.9086,-3.9113,-3.9385,-3.9901,-4.0096,-3.9673,-3.93,-3.9056,-3.8413,-3.732,-3.7009,-3.7297,-3.7195,-3.7431,-3.7679,-3.7611,-3.7669,-3.7246,-3.6823,-3.6603,-3.6535,-3.6434,-3.6366,-3.6146,-3.5853,-3.6197,-3.6502,-3.6214,-3.5887,-3.5819,-3.5769,-3.5701,-3.565,-3.565,-3.5718,-3.5735,-3.5943,-3.6113,-3.5977,-3.5684,-3.5667,-3.5684,-3.5616,-3.56,-3.5554,-3.5532,-3.5532,-3.5509,-3.5418,-3.5418,-3.5762,-3.5773,-3.5795,-3.5677,-3.5635,-3.5115,-3.4873,-3.5098,-3.5044,-3.4849,-4.3718,-4.3699,-4.3534,-4.3479,-4.341,-4.292,-4.244,-4.1895,-4.1223,-4.0662,-4.0343,-4.0204,-4.0113,-4.0113,-4.0113,-4.0113,-4.0113,-4.0113,-4.0113,-4.0113,-4.0113,-4.0113,-4.0113,-4.0113,-4.0113,-4.0113,-4.0113,-4.0113,-4.0113,-4.0113,-4.0113,-4.0113,-4.0113,-4.0113,-4.0113,-4.0113,-4.0113,-4.0113,-4.0113,-4.0113,-4.0113,-4.0113,-4.0113,-4.0113,-4.0113,-4.0113,-4.0113,-4.0113,-4.0113,-4.0045,-3.9782,-3.9584,-3.9113,-3.8635,-3.869,-3.8951,-3.8978,-3.9258,-3.9613,-3.9995,-3.9656,-3.8802,-3.8582,-3.8278,-3.7388,-3.6812,-3.6616,-3.5792,-3.6047,-3.6588,-3.6736,-3.7229,-3.71,-3.6603,-3.6265,-3.6552,-3.6654,-3.6789,-3.6806,-3.6958,-3.7297,-3.7178,-3.6772,-3.6637,-3.6671,-3.6586,-3.6434,-3.6349,-3.6022,-3.5955,-3.5904,-3.6107,-3.6377,-3.6096,-3.5752,-3.5785,-3.5785,-3.5684,-3.5509,-3.5316,-3.5253,-3.5447,-3.5379,-3.5155,-3.5723,-3.6266,-3.6202,-3.5819,-3.6089,-3.5967,-3.5124,-3.4796,-3.515,-3.5373,-3.535]},{"header":{"parameterUnit":"m.s-1","parameterCategory":1,"la1":31.0,"la2":29.5877,"lo1":-88.7671,"lo2":-86.6584,"dy":0.0162,"dx":0.0185,"nx":115,"ny":88,"refTime":"2023-06-10T12:00:00:Z","depth":0,"parameterNumber":3,"parameterNumberName":"V-component_of_WINDS"},"data":[0.0,0.0,0.0,0.0,0.0,0.0,0.0,0.0,0.0,0.0,0.0,0.0,0.0,0.0,0.0,0.0,0.0,0.0,0.0,0.0,0.0,0.0,0.0,0.0,0.0,0.0,0.0,0.0,0.0,0.0,0.0,0.0,0.0,0.0,0.0,0.0,0.0,0.0,0.0,0.0,0.0,0.0,0.0,0.0,0.0,0.0,0.0,0.0,0.0,0.0,0.0,0.0,0.0,0.0,0.0,0.0,0.0,0.0,0.0,0.0,0.0,0.0,0.0,0.0,0.0,0.0,0.0,0.0,0.0,0.0,0.0,0.0,0.0,0.0,0.0,0.0,0.0,0.0,0.0,0.0,0.0,0.0,0.0,0.0,0.0,0.0,0.0,0.0,0.0,0.0,0.0,0.0,0.0,0.0,0.0,0.0,0.0,0.0,0.0,0.0,0.0,0.0,0.0,0.0,0.0,0.0,0.0,0.0,0.0,0.0,0.0,0.0,0.0,0.0,0.0,0.0,0.0,0.0,0.0,0.0,0.0,0.0,0.0,0.0,0.0,0.0,0.0,0.0,0.0,0.0,0.0,0.0,0.0,0.0,0.0,0.0,0.0,0.0,0.0,0.0,0.0,0.0,0.0,0.0,0.0,0.0,0.0,0.0,0.0,0.0,0.0,0.0,0.0,0.0,0.0,0.0,0.0,0.0,0.0,0.0,0.0,0.0,0.0,0.0,0.0,0.0,0.0,0.0,0.0,0.0,0.0,0.0,0.0,0.0,0.0,0.0,0.0,0.0,0.0,0.0,0.0,0.0,0.0,0.0,0.0,0.0,0.0,0.0,0.0,0.0,0.0,0.0,0.0,0.0,0.0,0.0,0.0,0.0,0.0,0.0,0.0,0.0,0.0,0.0,0.0,0.0,0.0,0.0,0.0,0.0,0.0,0.0,0.0,0.0,0.0,0.0,0.0,0.0,0.0,0.0,0.0,0.0,0.0,0.0,0.0,0.0,0.0,0.0,0.0,0.0,0.0,0.0,0.0,0.0,0.0,0.0,0.0,0.0,0.0,0.0,0.0,0.0,0.0,0.0,0.0,0.0,0.0,0.0,0.0,0.0,0.0,0.0,0.0,0.0,0.0,0.0,0.0,0.0,0.0,0.0,0.0,0.0,0.0,0.0,0.0,0.0,0.0,0.0,0.0,0.0,0.0,0.0,0.0,0.0,0.0,0.0,0.0,0.0,0.0,0.0,0.0,0.0,0.0,0.0,0.0,0.0,0.0,0.0,0.0,0.0,0.0,0.0,0.0,0.0,0.0,0.0,0.0,0.0,0.0,0.0,0.0,0.0,0.0,0.0,0.0,0.0,0.0,0.0,0.0,0.0,0.0,0.0,0.0,0.0,0.0,0.0,0.0,0.0,0.0,0.0,0.0,0.0,0.0,0.0,0.0,0.0,0.0,0.0,0.0,0.0,0.0,0.0,0.0,0.0,0.0,0.0,0.0,0.0,0.0,0.0,0.0,0.0,0.0,0.0,0.0,0.0,0.0,0.0,0.0,0.0,0.0,0.0,0.0,0.0,0.0,0.0,0.0,0.0,0.0,0.0,0.0,0.0,0.0,0.0,0.0,0.0,0.0,0.0,0.0,0.0,0.0,0.0,0.0,0.0,0.0,0.0,0.0,0.0,0.0,0.0,0.0,0.0,0.0,0.0,0.0,0.0,0.0,0.0,0.0,0.0,0.0,0.0,0.0,0.0,0.0,0.0,0.0,0.0,0.0,0.0,0.0,0.0,0.0,0.0,0.0,0.0,0.0,0.0,0.0,0.0,0.0,0.0,0.0,0.0,0.0,0.0,0.0,0.0,0.0,0.0,0.0,0.0,0.0,0.0,0.0,0.0,0.0,0.0,0.0,0.0,0.0,0.0,0.0,0.0,0.0,0.0,0.0,0.0,0.0,0.0,0.0,0.0,0.0,0.0,0.0,0.0,0.0,0.0,0.0,0.0,0.0,0.0,0.0,0.0,0.0,0.0,0.0,0.0,0.0,0.0,0.0,0.0,0.0,0.0,0.0,0.0,0.0,0.0,0.0,0.0,0.0,0.0,0.0,0.0,0.0,0.0,0.0,0.0,0.0,0.0,0.0,0.0,0.0,0.0,0.0,0.0,0.0,0.0,0.0,0.0,0.0,0.0,0.0,0.0,0.0,0.0,0.0,0.0,0.0,0.0,0.0,0.0,0.0,0.0,0.0,0.0,0.0,0.0,0.0,0.0,0.0,0.0,0.0,0.0,0.0,0.0,0.0,0.0,0.0,0.0,0.0,0.0,0.0,0.0,0.0,0.0,0.0,0.0,0.0,0.0,0.0,0.0,0.0,0.0,0.0,0.0,0.0,0.0,0.0,0.0,0.0,0.0,0.0,0.0,0.0,0.0,0.0,0.0,0.0,0.0,0.0,0.0,0.0,0.0,0.0,0.0,0.0,0.0,0.0,0.0,0.0,0.0,0.0,0.0,0.0,0.0,0.0,0.0,0.0,0.0,0.0,0.0,0.0,0.0,0.0,0.0,0.0,0.0,0.0,0.0,0.0,0.0,0.0,0.0,0.0,0.0,0.0,0.0,0.0,0.0,0.0,0.0,0.0,0.0,0.0,0.0,0.0,0.0,0.0,0.0,0.0,0.0,0.0,0.0,0.0,0.0,0.0,0.0,0.0,0.0,0.0,0.0,0.0,0.0,0.0,0.0,0.0,0.0,0.0,0.0,0.0,0.0,0.0,0.0,0.0,0.0,0.0,0.0,0.0,0.0,0.0,0.0,0.0,0.0,0.0,0.0,0.0,0.0,0.0,0.0,0.0,0.0,0.0,0.0,0.0,0.0,0.0,0.0,0.0,0.0,0.0,0.0,0.0,0.0,0.0,0.0,0.0,0.0,0.0,0.0,0.0,0.0,0.0,0.0,0.0,0.0,0.0,0.0,0.0,0.0,0.0,0.0,0.0,0.0,0.0,0.0,0.0,0.0,0.0,0.0,0.0,0.0,0.0,0.0,0.0,0.0,0.0,0.0,0.0,0.0,0.0,0.0,0.0,0.0,0.0,0.0,0.0,0.0,0.0,0.0,0.0,0.0,0.0,0.0,0.0,0.0,0.0,0.0,0.0,0.0,0.0,0.0,0.0,0.0,0.0,0.0,0.0,0.0,0.0,0.0,0.0,0.0,0.0,0.0,0.0,0.0,0.0,0.0,0.0,0.0,0.0,0.0,0.0,0.0,0.0,0.0,0.0,0.0,0.0,0.0,0.0,0.0,0.0,0.0,0.0,0.0,0.0,0.0,0.0,0.0,0.0,0.0,0.0,0.0,0.0,0.0,0.0,0.0,0.0,0.0,0.0,0.0,0.0,0.0,0.0,0.0,0.0,0.0,0.0,0.0,0.0,0.0,0.0,0.0,0.0,0.0,0.0,0.0,0.0,0.0,0.0,0.0,0.0,0.0,0.0,0.0,0.0,0.0,0.0,0.0,0.0,0.0,0.0,0.0,0.0,0.0,0.0,0.0,0.0,0.0,0.0,0.0,0.0,0.0,0.0,0.0,0.0,0.0,0.0,0.0,0.0,0.0,0.0,0.0,0.0,0.0,0.0,0.0,0.0,0.0,0.0,0.0,0.0,0.0,0.0,0.0,0.0,0.0,0.0,0.0,0.0,0.0,0.0,0.0,0.0,0.0,0.0,0.0,0.0,0.0,0.0,0.0,0.0,0.0,0.0,0.0,0.0,0.0,0.0,0.0,0.0,0.0,0.0,0.0,0.0,0.0,0.0,0.0,0.0,0.0,0.0,0.0,0.0,0.0,0.0,0.0,0.0,0.0,0.0,0.0,0.0,0.0,0.0,0.0,0.0,0.0,0.0,0.0,0.0,0.0,0.0,0.0,0.0,0.0,0.0,0.0,0.0,0.0,0.0,0.0,0.0,0.0,0.0,0.0,0.0,0.0,0.0,0.0,0.0,0.0,0.0,0.0,0.0,0.0,0.0,0.0,0.0,0.0,0.0,0.0,0.0,0.0,0.0,0.0,0.0,0.0,0.0,0.0,0.0,0.0,0.0,0.0,0.0,0.0,0.0,0.0,0.0,0.0,0.0,0.0,0.0,0.0,0.0,0.0,0.0,0.0,0.0,0.0,0.0,0.0,0.0,0.0,0.0,0.0,0.0,0.0,0.0,0.0,0.0,0.0,0.0,0.0,0.0,0.0,0.0,0.0,0.0,0.0,0.0,0.0,0.0,0.0,0.0,0.0,0.0,0.0,-1.5791,0.0,0.0,0.0,0.0,0.0,0.0,0.0,0.0,0.0,0.0,0.0,0.0,0.0,0.0,0.0,0.0,0.0,0.0,0.0,0.0,0.0,0.0,0.0,0.0,0.0,0.0,0.0,0.0,0.0,0.0,0.0,0.0,0.0,0.0,0.0,0.0,0.0,0.0,0.0,0.0,0.0,0.0,0.0,0.0,0.0,0.0,0.0,0.0,0.0,0.0,0.0,0.0,0.0,0.0,0.0,0.0,0.0,0.0,0.0,0.0,0.0,0.0,0.0,0.0,0.0,0.0,0.0,0.0,0.0,0.0,0.0,0.0,0.0,0.0,0.0,0.0,0.0,0.0,0.0,0.0,0.0,0.0,0.0,0.0,0.0,0.0,0.0,0.0,0.0,0.0,0.0,0.0,0.0,0.0,0.0,0.0,0.0,0.0,0.0,0.0,0.0,0.0,0.0,0.0,0.0,0.0,0.0,0.0,0.0,0.0,-1.0879,-1.1912,-1.3434,-1.4783,-1.5791,0.0,0.0,0.0,0.0,0.0,0.0,0.0,0.0,0.0,0.0,0.0,0.0,0.0,0.0,0.0,0.0,0.0,0.0,0.0,0.0,0.0,0.0,0.0,0.0,0.0,0.0,0.0,0.0,0.0,0.0,0.0,0.0,0.0,0.0,0.0,0.0,0.0,0.0,0.0,0.0,0.0,0.0,0.0,0.0,0.0,0.0,0.0,0.0,0.0,0.0,0.0,0.0,0.0,0.0,0.0,0.0,0.0,0.0,0.0,0.0,0.0,0.0,0.0,0.0,0.0,0.0,0.0,0.0,0.0,0.0,0.0,0.0,0.0,0.0,0.0,0.0,0.0,0.0,0.0,0.0,0.0,0.0,0.0,0.0,0.0,0.0,0.0,0.0,0.0,0.0,0.0,0.0,0.0,0.0,0.0,0.0,0.0,0.0,0.0,0.0,0.0,0.0,0.0,0.0,0.0,0.0,0.0,0.0,0.0,0.0,0.0,0.0,-1.3462,-1.4785,-1.6184,0.0,0.0,0.0,0.0,0.0,0.0,0.0,0.0,0.0,0.0,0.0,0.0,0.0,0.0,0.0,0.0,0.0,0.0,0.0,0.0,0.0,0.0,0.0,0.0,0.0,0.0,0.0,0.0,0.0,0.0,0.0,0.0,0.0,0.0,0.0,0.0,0.0,0.0,0.0,0.0,0.0,0.0,0.0,0.0,0.0,0.0,0.0,0.0,0.0,0.0,0.0,0.0,0.0,0.0,0.0,0.0,0.0,0.0,0.0,0.0,0.0,0.0,0.0,0.0,0.0,0.0,0.0,0.0,0.0,0.0,0.0,0.0,0.0,0.0,0.0,0.0,0.0,0.0,0.0,0.0,0.0,0.0,0.0,0.0,0.0,0.0,0.0,0.0,0.0,0.0,0.0,0.0,0.0,0.0,0.0,0.0,0.0,0.0,0.0,0.0,0.0,0.0,0.0,0.0,0.0,0.0,0.0,0.0,0.0,0.0,-0.9674,-1.2627,-1.3367,0.0,-1.7336,0.0,0.0,0.0,0.0,0.0,0.0,0.0,0.0,0.0,0.0,0.0,0.0,0.0,0.0,0.0,0.0,0.0,0.0,0.0,0.0,0.0,0.0,0.0,0.0,0.0,0.0,0.0,0.0,0.0,0.0,0.0,0.0,0.0,0.0,0.0,0.0,0.0,0.0,0.0,0.0,0.0,0.0,0.0,0.0,0.0,0.0,0.0,0.0,0.0,0.0,0.0,0.0,0.0,0.0,0.0,0.0,0.0,0.0,0.0,0.0,0.0,0.0,0.0,0.0,0.0,0.0,0.0,0.0,0.0,0.0,0.0,0.0,0.0,0.0,0.0,0.0,0.0,0.0,0.0,0.0,0.0,0.0,0.0,0.0,0.0,0.0,0.0,0.0,0.0,0.0,0.0,0.0,0.0,0.0,0.0,0.0,0.0,0.0,0.0,0.0,0.0,0.0,0.0,0.0,0.0,0.0,0.0,0.0,0.0,0.0,-0.9335,-1.1518,-1.328,-1.5123,0.0,0.0,0.0,0.0,0.0,0.0,0.0,0.0,0.0,0.0,0.0,0.0,0.0,0.0,0.0,0.0,0.0,0.0,0.0,0.0,0.0,0.0,0.0,0.0,0.0,0.0,0.0,0.0,0.0,0.0,0.0,0.0,0.0,0.0,0.0,0.0,0.0,0.0,0.0,0.0,0.0,0.0,0.0,0.0,0.0,0.0,0.0,0.0,0.0,0.0,0.0,0.0,0.0,0.0,0.0,0.0,0.0,0.0,0.0,0.0,0.0,0.0,0.0,0.0,0.0,0.0,0.0,0.0,0.0,0.0,0.0,0.0,0.0,0.0,0.0,0.0,0.0,0.0,0.0,0.0,0.0,0.0,0.0,0.0,0.0,0.0,0.0,0.0,0.0,0.0,0.0,0.0,0.0,0.0,0.0,0.0,0.0,0.0,0.0,0.0,0.0,0.0,0.0,0.0,0.0,0.0,0.0,0.0,0.0,0.0,-0.8499,-0.9575,-1.1647,-1.3758,-1.5677,-1.7397,0.0,0.0,0.0,0.0,0.0,0.0,0.0,0.0,0.0,0.0,0.0,0.0,0.0,0.0,0.0,0.0,0.0,0.0,0.0,0.0,0.0,0.0,0.0,0.0,0.0,0.0,0.0,0.0,0.0,0.0,0.0,0.0,0.0,0.0,0.0,0.0,0.0,0.0,0.0,0.0,0.0,0.0,0.0,0.0,0.0,0.0,0.0,0.0,0.0,0.0,0.0,0.0,0.0,0.0,0.0,0.0,0.0,0.0,0.0,0.0,0.0,0.0,0.0,0.0,0.0,0.0,0.0,0.0,0.0,0.0,0.0,0.0,0.0,0.0,0.0,0.0,0.0,0.0,0.0,0.0,0.0,0.0,0.0,0.0,0.0,0.0,0.0,0.0,0.0,0.0,0.0,0.0,0.0,0.0,0.0,0.0,0.0,0.0,0.0,0.0,0.0,0.0,0.0,0.0,0.0,0.0,0.0,0.0,-0.9349,-0.8903,-1.0449,-1.4019,-1.5087,-1.6719,0.0,0.0,0.0,0.0,0.0,0.0,0.0,0.0,0.0,0.0,0.0,0.0,0.0,0.0,0.0,0.0,0.0,0.0,0.0,0.0,0.0,0.0,0.0,0.0,0.0,0.0,0.0,0.0,0.0,0.0,0.0,0.0,0.0,0.0,0.0,0.0,0.0,0.0,0.0,0.0,0.0,0.0,0.0,0.0,0.0,0.0,0.0,0.0,0.0,0.0,0.0,0.0,0.0,0.0,0.0,0.0,0.0,0.0,0.0,0.0,0.0,0.0,0.0,0.0,0.0,0.0,0.0,0.0,0.0,0.0,0.0,0.0,0.0,0.0,0.0,0.0,0.0,0.0,0.0,0.0,0.0,0.0,0.0,0.0,0.0,0.0,0.0,0.0,0.0,0.0,0.0,0.0,0.0,0.0,0.0,0.0,0.0,0.0,0.0,0.0,0.0,0.0,0.0,0.0,0.0,0.0,0.0,0.0,0.0,-0.8601,-0.8642,-1.0579,-1.43,-1.3975,-1.5223,0.0,0.0,0.0,0.0,0.0,0.0,0.0,0.0,0.0,0.0,0.0,0.0,0.0,0.0,0.0,0.0,0.0,0.0,0.0,0.0,0.0,0.0,0.0,0.0,0.0,0.0,0.0,0.0,0.0,0.0,0.0,0.0,0.0,0.0,0.0,0.0,0.0,0.0,0.0,0.0,0.0,0.0,0.0,0.0,0.0,0.0,0.0,0.0,0.0,0.0,0.0,0.0,0.0,0.0,0.0,0.0,0.0,0.0,0.0,0.0,0.0,0.0,0.0,0.0,0.0,0.0,0.0,0.0,0.0,0.0,0.0,0.0,0.0,0.0,0.0,0.0,0.0,0.0,0.0,0.0,0.0,0.0,0.0,0.0,0.0,0.0,0.0,0.0,0.0,0.0,0.0,0.0,0.0,0.0,0.0,0.0,0.0,0.0,0.0,0.0,0.0,0.0,0.0,0.0,0.0,0.0,0.0,0.0,0.0,-0.8495,0.0,-1.0512,-1.3356,-1.3127,-1.4241,0.0,0.0,0.0,0.0,0.0,0.0,0.0,0.0,0.0,0.0,0.0,0.0,0.0,0.0,0.0,0.0,0.0,0.0,0.0,0.0,0.0,0.0,0.0,0.0,0.0,0.0,0.0,0.0,0.0,0.0,0.0,0.0,0.0,0.0,0.0,0.0,0.0,0.0,0.0,0.0,0.0,0.0,0.0,0.0,0.0,0.0,0.0,0.0,0.0,0.0,0.0,0.0,0.0,0.0,0.0,0.0,0.0,0.0,0.0,0.0,0.0,0.0,0.0,0.0,0.0,0.0,0.0,0.0,0.0,0.0,0.0,0.0,0.0,0.0,0.0,0.0,0.0,0.0,0.0,0.0,0.0,0.0,0.0,0.0,0.0,0.0,0.0,0.0,0.0,0.0,0.0,0.0,0.0,0.0,0.0,0.0,0.0,0.0,0.0,0.0,0.0,0.0,0.0,0.0,0.0,0.0,0.0,0.0,-1.0237,-0.9255,-0.969,-1.0432,-1.1356,-1.2758,-1.4175,0.0,0.0,0.0,0.0,0.0,0.0,0.0,0.0,0.0,0.0,0.0,0.0,0.0,0.0,0.0,0.0,0.0,0.0,0.0,0.0,0.0,0.0,0.0,0.0,0.0,0.0,0.0,0.0,0.0,0.0,0.0,0.0,0.0,0.0,0.0,0.0,0.0,0.0,0.0,0.0,0.0,0.0,0.0,0.0,0.0,0.0,0.0,0.0,0.0,0.0,0.0,0.0,0.0,0.0,0.0,0.0,0.0,0.0,0.0,0.0,0.0,0.0,0.0,0.0,0.0,0.0,0.0,0.0,0.0,0.0,0.0,0.0,0.0,0.0,0.0,0.0,0.0,0.0,0.0,0.0,0.0,0.0,0.0,0.0,0.0,0.0,0.0,0.0,0.0,0.0,0.0,0.0,0.0,0.0,0.0,0.0,0.0,0.0,0.0,0.0,0.0,0.0,0.0,0.0,0.0,0.0,0.0,0.0,0.0,-0.8743,-0.9174,-1.0321,-1.2127,-1.2604,-1.3857,0.0,0.0,0.0,0.0,0.0,0.0,0.0,0.0,0.0,0.0,0.0,0.0,0.0,0.0,0.0,0.0,0.0,0.0,0.0,0.0,0.0,0.0,0.0,0.0,0.0,0.0,0.0,0.0,0.0,0.0,0.0,0.0,0.0,0.0,0.0,0.0,0.0,0.0,0.0,0.0,0.0,0.0,0.0,0.0,0.0,0.0,0.0,0.0,0.0,0.0,0.0,0.0,0.0,0.0,0.0,0.0,0.0,0.0,0.0,0.0,0.0,0.0,0.0,0.0,0.0,0.0,0.0,0.0,0.0,0.0,0.0,0.0,0.0,0.0,0.0,0.0,0.0,0.0,0.0,0.0,0.0,0.0,0.0,0.0,0.0,0.0,0.0,0.0,0.0,0.0,0.0,0.0,0.0,0.0,0.0,0.0,0.0,0.0,0.0,0.0,0.0,0.0,0.0,0.0,0.0,0.0,0.0,0.0,0.0,-0.8927,-0.9449,-1.0582,-1.2443,-1.2776,-1.3766,-1.5592,0.0,0.0,0.0,0.0,0.0,0.0,0.0,0.0,0.0,0.0,0.0,0.0,0.0,0.0,0.0,0.0,0.0,0.0,0.0,0.0,0.0,0.0,0.0,0.0,0.0,0.0,0.0,0.0,0.0,0.0,0.0,0.0,0.0,0.0,0.0,0.0,0.0,0.0,0.0,0.0,0.0,0.0,0.0,0.0,0.0,0.0,0.0,0.0,0.0,0.0,0.0,0.0,0.0,0.0,0.0,0.0,0.0,0.0,0.0,0.0,0.0,0.0,0.0,0.0,0.0,0.0,0.0,0.0,0.0,0.0,0.0,0.0,0.0,0.0,0.0,0.0,0.0,0.0,0.0,0.0,0.0,0.0,0.0,0.0,0.0,0.0,0.0,0.0,0.0,0.0,0.0,0.0,0.0,0.0,0.0,0.0,0.0,0.0,0.0,0.0,0.0,0.0,0.0,0.0,0.0,0.0,0.0,0.0,-0.9793,-1.0483,-1.1361,-1.2275,-1.3058,-1.3928,0.0,0.0,0.0,0.0,0.0,0.0,0.0,0.0,0.0,0.0,0.0,0.0,0.0,0.0,0.0,0.0,0.0,0.0,0.0,0.0,0.0,0.0,0.0,0.0,0.0,0.0,0.0,0.0,0.0,0.0,0.0,0.0,0.0,0.0,0.0,0.0,0.0,0.0,0.0,0.0,0.0,0.0,0.0,0.0,0.0,0.0,0.0,0.0,0.0,0.0,0.0,0.0,0.0,0.0,0.0,0.0,0.0,0.0,0.0,0.0,0.0,0.0,0.0,0.0,0.0,0.0,0.0,0.0,0.0,0.0,0.0,0.0,0.0,0.0,0.0,0.0,0.0,0.0,0.0,0.0,0.0,0.0,0.0,0.0,0.0,0.0,0.0,0.0,0.0,0.0,0.0,0.0,0.0,0.0,0.0,0.0,0.0,0.0,0.0,0.0,0.0,0.0,0.0,0.0,0.0,0.0,0.0,0.0,0.0,-1.1743,-1.2674,-1.3118,-1.3171,-1.3355,-1.4234,0.0,0.0,0.0,0.0,0.0,0.0,0.0,0.0,0.0,0.0,0.0,0.0,0.0,0.0,0.0,0.0,0.0,0.0,0.0,0.0,0.0,0.0,0.0,0.0,0.0,0.0,0.0,0.0,0.0,0.0,0.0,0.0,0.0,0.0,0.0,0.0,0.0,0.0,0.0,0.0,0.0,0.0,0.0,0.0,0.0,0.0,0.0,0.0,0.0,0.0,0.0,0.0,0.0,0.0,0.0,0.0,0.0,0.0,0.0,0.0,0.0,0.0,0.0,0.0,0.0,0.0,0.0,0.0,0.0,0.0,0.0,0.0,0.0,0.0,0.0,0.0,0.0,0.0,0.0,0.0,0.0,0.0,0.0,0.0,0.0,0.0,0.0,0.0,0.0,0.0,0.0,0.0,0.0,0.0,0.0,0.0,0.0,0.0,0.0,0.0,0.0,0.0,0.0,0.0,0.0,0.0,0.0,0.0,-1.0365,-1.2686,-1.3443,-1.4387,-1.5661,-1.5601,-1.6001,0.0,0.0,0.0,0.0,0.0,0.0,0.0,0.0,0.0,0.0,0.0,0.0,0.0,0.0,0.0,0.0,0.0,0.0,0.0,0.0,0.0,0.0,0.0,0.0,0.0,0.0,0.0,0.0,0.0,0.0,0.0,0.0,0.0,0.0,0.0,0.0,0.0,0.0,0.0,0.0,0.0,0.0,0.0,0.0,0.0,0.0,0.0,0.0,0.0,0.0,0.0,0.0,0.0,0.0,0.0,0.0,0.0,0.0,0.0,0.0,0.0,0.0,0.0,0.0,0.0,0.0,0.0,0.0,0.0,0.0,0.0,0.0,0.0,0.0,0.0,0.0,0.0,0.0,0.0,0.0,0.0,0.0,0.0,0.0,0.0,0.0,0.0,0.0,0.0,0.0,0.0,0.0,0.0,0.0,0.0,0.0,0.0,0.0,0.0,0.0,0.0,0.0,0.0,0.0,0.0,0.0,0.0,0.0,-1.0808,-1.3134,-1.3796,-1.569,-1.8864,-1.846,-1.8325,0.0,0.0,0.0,0.0,0.0,0.0,0.0,0.0,0.0,0.0,0.0,0.0,0.0,0.0,0.0,0.0,0.0,0.0,0.0,0.0,0.0,0.0,0.0,0.0,0.0,0.0,0.0,0.0,0.0,0.0,0.0,0.0,0.0,0.0,0.0,0.0,0.0,0.0,0.0,0.0,0.0,0.0,0.0,0.0,0.0,0.0,0.0,0.0,0.0,0.0,0.0,0.0,0.0,0.0,0.0,0.0,0.0,0.0,0.0,0.0,0.0,0.0,0.0,0.0,0.0,0.0,0.0,0.0,0.0,0.0,0.0,0.0,0.0,0.0,0.0,0.0,0.0,0.0,0.0,0.0,0.0,0.0,0.0,0.0,0.0,0.0,0.0,0.0,0.0,0.0,0.0,0.0,0.0,0.0,0.0,0.0,0.0,0.0,0.0,0.0,0.0,0.0,0.0,0.0,0.0,0.0,0.0,0.0,-1.2704,-1.5055,-1.7,-1.9066,-2.1214,-1.8662,-1.8096,0.0,0.0,0.0,0.0,0.0,0.0,0.0,0.0,0.0,0.0,0.0,0.0,0.0,0.0,0.0,0.0,0.0,0.0,0.0,0.0,0.0,0.0,0.0,0.0,0.0,0.0,0.0,0.0,0.0,0.0,0.0,0.0,0.0,0.0,0.0,0.0,0.0,0.0,0.0,0.0,0.0,0.0,0.0,0.0,0.0,0.0,0.0,0.0,-1.6787,0.0,0.0,0.0,0.0,0.0,0.0,0.0,0.0,0.0,0.0,0.0,0.0,0.0,0.0,0.0,0.0,0.0,0.0,0.0,0.0,0.0,0.0,0.0,0.0,0.0,0.0,0.0,0.0,0.0,0.0,0.0,0.0,0.0,0.0,0.0,0.0,0.0,0.0,0.0,0.0,0.0,0.0,0.0,0.0,0.0,0.0,0.0,0.0,0.0,0.0,0.0,0.0,0.0,0.0,0.0,0.0,0.0,0.0,0.0,-1.3696,-1.6669,-1.8122,-1.9713,-2.1407,-1.9723,-1.926,0.0,0.0,0.0,0.0,0.0,0.0,0.0,0.0,0.0,0.0,0.0,0.0,0.0,0.0,0.0,0.0,0.0,0.0,0.0,0.0,0.0,0.0,0.0,0.0,0.0,0.0,0.0,0.0,0.0,0.0,0.0,0.0,0.0,0.0,0.0,0.0,0.0,0.0,0.0,0.0,0.0,0.0,0.0,0.0,0.0,0.0,0.0,0.0,0.0,0.0,0.0,0.0,0.0,0.0,0.0,0.0,0.0,0.0,0.0,0.0,0.0,0.0,0.0,0.0,0.0,0.0,0.0,0.0,0.0,0.0,0.0,0.0,0.0,0.0,0.0,0.0,0.0,0.0,0.0,0.0,0.0,0.0,0.0,0.0,0.0,0.0,0.0,0.0,0.0,0.0,0.0,0.0,0.0,0.0,0.0,0.0,0.0,0.0,0.0,0.0,0.0,0.0,0.0,0.0,0.0,0.0,0.0,-1.334,-1.4444,-1.7649,-1.8456,-1.9486,-2.0906,-2.0782,-2.0713,-2.0844,0.0,0.0,0.0,0.0,0.0,0.0,0.0,0.0,0.0,0.0,0.0,0.0,0.0,0.0,0.0,0.0,0.0,0.0,0.0,0.0,0.0,0.0,0.0,0.0,0.0,0.0,0.0,0.0,0.0,0.0,0.0,0.0,0.0,0.0,0.0,0.0,0.0,0.0,-0.678,-0.6767,0.0,0.0,0.0,0.0,0.0,0.0,0.0,0.0,-1.746,0.0,0.0,0.0,0.0,0.0,0.0,0.0,0.0,0.0,0.0,0.0,0.0,0.0,0.0,0.0,0.0,0.0,0.0,0.0,0.0,0.0,0.0,0.0,0.0,0.0,0.0,0.0,0.0,0.0,0.0,0.0,0.0,0.0,0.0,0.0,0.0,0.0,0.0,0.0,0.0,0.0,0.0,0.0,0.0,0.0,0.0,0.0,0.0,0.0,0.0,0.0,0.0,0.0,0.0,0.0,0.0,-1.507,-1.5292,-1.6131,-1.7445,-1.9075,-2.0062,-2.0313,-2.0568,-2.0986,-2.1504,0.0,0.0,0.0,0.0,0.0,0.0,0.0,0.0,0.0,0.0,0.0,0.0,0.0,0.0,0.0,0.0,0.0,0.0,0.0,0.0,0.0,0.0,0.0,0.0,0.0,0.0,0.0,0.0,0.0,0.0,0.0,0.0,0.0,0.0,0.0,0.0,0.0,0.0,0.0,-0.7903,-0.8804,0.0,0.0,0.0,0.0,0.0,0.0,0.0,0.0,-1.7277,0.0,0.0,0.0,0.0,0.0,0.0,0.0,0.0,0.0,0.0,0.0,0.0,0.0,0.0,0.0,0.0,0.0,0.0,0.0,0.0,0.0,0.0,0.0,0.0,0.0,0.0,0.0,0.0,0.0,0.0,0.0,0.0,0.0,0.0,0.0,0.0,0.0,0.0,0.0,0.0,0.0,0.0,0.0,0.0,0.0,0.0,0.0,0.0,0.0,0.0,0.0,0.0,0.0,0.0,0.0,-1.5789,-1.6042,-1.6895,-1.8397,-1.9633,-2.0173,-2.0167,-2.008,-2.0551,0.0,0.0,0.0,0.0,0.0,0.0,0.0,0.0,0.0,0.0,0.0,0.0,0.0,0.0,0.0,0.0,0.0,0.0,0.0,0.0,0.0,0.0,0.0,0.0,0.0,0.0,0.0,0.0,0.0,0.0,0.0,0.0,0.0,0.0,0.0,0.0,0.0,0.0,0.0,0.0,-0.8235,-0.9072,-1.3378,0.0,0.0,0.0,0.0,0.0,0.0,-1.8046,-1.8311,0.0,0.0,0.0,0.0,0.0,0.0,0.0,0.0,0.0,0.0,0.0,0.0,0.0,0.0,0.0,0.0,0.0,0.0,0.0,0.0,0.0,0.0,0.0,0.0,0.0,0.0,0.0,0.0,0.0,0.0,0.0,0.0,0.0,0.0,0.0,0.0,0.0,0.0,0.0,0.0,0.0,0.0,0.0,0.0,0.0,0.0,0.0,0.0,0.0,0.0,0.0,0.0,0.0,0.0,0.0,-1.6206,-1.6377,-1.7346,-1.9028,-1.9673,-1.9907,-1.9967,-1.9633,-2.0132,0.0,0.0,0.0,0.0,0.0,0.0,0.0,0.0,0.0,0.0,0.0,0.0,0.0,0.0,0.0,0.0,0.0,0.0,0.0,0.0,0.0,0.0,0.0,0.0,0.0,0.0,0.0,0.0,0.0,0.0,0.0,0.0,0.0,0.0,0.0,0.0,0.0,0.0,0.0,0.0,0.0,-1.0063,-1.3862,-1.4271,0.0,0.0,0.0,0.0,-1.7836,-1.8989,0.0,0.0,0.0,0.0,0.0,0.0,0.0,0.0,0.0,0.0,0.0,0.0,0.0,0.0,0.0,0.0,0.0,0.0,0.0,0.0,0.0,0.0,0.0,0.0,0.0,0.0,0.0,0.0,0.0,0.0,0.0,0.0,0.0,0.0,0.0,0.0,0.0,0.0,0.0,0.0,0.0,0.0,0.0,0.0,0.0,0.0,0.0,0.0,0.0,0.0,0.0,0.0,0.0,0.0,0.0,0.0,-1.5933,-1.6662,-1.743,-1.8135,-1.8721,-1.9072,-1.9085,-1.9506,-2.0253,0.0,0.0,0.0,0.0,0.0,0.0,0.0,0.0,0.0,0.0,0.0,0.0,0.0,0.0,0.0,0.0,0.0,0.0,0.0,0.0,0.0,0.0,0.0,0.0,0.0,0.0,0.0,0.0,0.0,0.0,0.0,0.0,0.0,0.0,0.0,0.0,0.0,0.0,0.0,0.0,0.0,-1.2922,-1.4201,-1.5677,-1.7038,0.0,0.0,-1.847,-1.8724,-2.0294,0.0,0.0,0.0,0.0,0.0,0.0,0.0,0.0,0.0,0.0,0.0,0.0,0.0,0.0,0.0,0.0,0.0,0.0,0.0,0.0,0.0,0.0,0.0,0.0,0.0,0.0,0.0,0.0,0.0,0.0,0.0,0.0,0.0,0.0,0.0,0.0,0.0,0.0,0.0,0.0,0.0,0.0,0.0,0.0,0.0,0.0,0.0,0.0,0.0,0.0,0.0,0.0,0.0,0.0,0.0,-1.7314,-1.5691,-1.667,-1.7757,-1.8868,-1.9479,-2.0327,-2.1322,-2.0248,-2.0574,0.0,0.0,0.0,0.0,0.0,0.0,0.0,0.0,0.0,0.0,0.0,0.0,0.0,0.0,0.0,0.0,0.0,0.0,0.0,0.0,0.0,0.0,0.0,0.0,0.0,0.0,0.0,0.0,0.0,0.0,0.0,0.0,0.0,0.0,0.0,0.0,0.0,0.0,0.0,0.0,0.0,0.0,-1.5887,-1.6482,0.0,0.0,0.0,-1.8784,-1.8905,0.0,0.0,0.0,0.0,0.0,0.0,0.0,0.0,0.0,0.0,0.0,0.0,0.0,0.0,0.0,0.0,0.0,0.0,0.0,0.0,0.0,0.0,0.0,0.0,0.0,0.0,0.0,0.0,0.0,0.0,0.0,0.0,0.0,0.0,0.0,0.0,0.0,0.0,0.0,0.0,0.0,0.0,0.0,0.0,0.0,0.0,0.0,0.0,0.0,0.0,0.0,0.0,0.0,0.0,0.0,0.0,0.0,-1.5343,-1.6415,-1.7768,-1.9337,-1.9971,-2.1102,-2.2835,-2.1131,0.0,0.0,0.0,0.0,0.0,0.0,0.0,0.0,0.0,0.0,0.0,0.0,0.0,0.0,0.0,0.0,0.0,0.0,0.0,0.0,0.0,0.0,0.0,0.0,0.0,0.0,0.0,-1.4629,0.0,0.0,0.0,0.0,0.0,0.0,0.0,0.0,0.0,0.0,0.0,0.0,0.0,0.0,-1.5507,-1.7191,-1.7434,-1.8011,0.0,0.0,-1.9032,-1.9032,-2.1102,-2.2316,0.0,0.0,0.0,0.0,0.0,0.0,0.0,0.0,0.0,0.0,0.0,0.0,0.0,0.0,0.0,0.0,0.0,0.0,0.0,0.0,0.0,0.0,0.0,0.0,0.0,0.0,0.0,0.0,0.0,0.0,0.0,0.0,0.0,0.0,0.0,0.0,0.0,0.0,0.0,0.0,0.0,0.0,0.0,0.0,0.0,0.0,0.0,0.0,0.0,0.0,0.0,0.0,0.0,0.0,-1.7136,-1.5152,-1.5926,-1.7155,-1.8723,-1.9351,-2.0477,-2.2114,-2.19,-2.2104,0.0,0.0,0.0,0.0,0.0,0.0,0.0,0.0,0.0,0.0,0.0,0.0,0.0,0.0,0.0,0.0,0.0,0.0,0.0,0.0,0.0,0.0,0.0,0.0,0.0,0.0,0.0,0.0,0.0,0.0,0.0,0.0,0.0,0.0,0.0,0.0,0.0,0.0,0.0,0.0,0.0,-1.6916,-1.7372,-1.886,-1.9992,0.0,-1.9713,-1.9332,-1.9339,-2.1233,-2.1955,-1.9889,0.0,0.0,0.0,0.0,0.0,0.0,0.0,0.0,0.0,0.0,0.0,0.0,0.0,0.0,0.0,0.0,0.0,0.0,0.0,0.0,0.0,0.0,0.0,0.0,0.0,0.0,0.0,0.0,0.0,0.0,0.0,0.0,0.0,0.0,0.0,0.0,0.0,0.0,0.0,0.0,0.0,0.0,0.0,0.0,0.0,0.0,0.0,0.0,0.0,0.0,0.0,0.0,0.0,-1.7172,-1.506,-1.6567,-1.8126,-1.9542,-2.0949,-2.2503,-2.4286,-2.3185,-2.2944,0.0,0.0,0.0,0.0,0.0,0.0,0.0,0.0,0.0,0.0,0.0,0.0,0.0,0.0,0.0,0.0,0.0,0.0,0.0,0.0,0.0,0.0,0.0,0.0,0.0,0.0,0.0,0.0,-1.5796,-1.5659,-1.5665,0.0,0.0,0.0,0.0,0.0,0.0,0.0,0.0,0.0,0.0,-1.8453,-1.98,-1.9967,0.0,0.0,-1.974,-1.9499,-1.9846,-2.0715,-2.0985,-1.9879,-1.9765,0.0,0.0,0.0,0.0,0.0,0.0,0.0,0.0,0.0,0.0,0.0,0.0,0.0,0.0,0.0,0.0,0.0,0.0,0.0,0.0,0.0,0.0,0.0,0.0,0.0,0.0,0.0,0.0,0.0,0.0,0.0,0.0,0.0,0.0,0.0,0.0,0.0,0.0,0.0,0.0,0.0,0.0,0.0,0.0,0.0,0.0,0.0,0.0,0.0,0.0,0.0,0.0,-1.7909,-1.6283,-1.7763,-1.9224,-2.064,-2.2023,-2.3583,-2.5392,-2.4041,-2.3627,0.0,0.0,0.0,0.0,0.0,0.0,0.0,0.0,0.0,0.0,0.0,0.0,0.0,0.0,0.0,0.0,0.0,0.0,0.0,0.0,0.0,0.0,0.0,0.0,0.0,0.0,0.0,0.0,-1.5814,-1.5576,-1.6003,0.0,0.0,0.0,0.0,0.0,0.0,0.0,0.0,0.0,0.0,-2.0407,-2.1524,-2.0945,-2.025,-2.0,-1.9406,-1.9112,-1.9461,-1.9654,-1.9549,-1.9,0.0,0.0,0.0,0.0,0.0,0.0,0.0,0.0,0.0,0.0,0.0,0.0,0.0,0.0,0.0,0.0,0.0,0.0,0.0,0.0,0.0,0.0,0.0,0.0,0.0,0.0,0.0,-1.5832,0.0,0.0,-1.5364,0.0,0.0,0.0,0.0,0.0,0.0,0.0,0.0,0.0,0.0,0.0,0.0,0.0,0.0,0.0,0.0,0.0,0.0,0.0,0.0,0.0,0.0,-1.9617,-1.9032,-1.9278,-2.0283,-2.1851,-2.1997,-2.3047,-2.501,-2.4258,-2.3958,-2.4329,0.0,0.0,0.0,0.0,0.0,0.0,0.0,0.0,0.0,0.0,0.0,0.0,0.0,0.0,0.0,0.0,0.0,0.0,0.0,0.0,0.0,0.0,0.0,0.0,0.0,0.0,-1.5859,-1.5598,-1.5773,0.0,0.0,0.0,0.0,0.0,0.0,0.0,0.0,0.0,-2.1384,-2.2584,-2.2981,-2.2103,-2.173,-2.0988,-1.9662,-1.8657,-1.8042,-1.8095,-1.8083,-1.7749,0.0,0.0,0.0,0.0,0.0,0.0,0.0,0.0,0.0,0.0,0.0,0.0,0.0,0.0,0.0,0.0,0.0,0.0,0.0,0.0,0.0,0.0,0.0,0.0,0.0,0.0,0.0,-1.6299,-1.6146,0.0,0.0,0.0,0.0,0.0,0.0,0.0,0.0,0.0,0.0,0.0,-2.0936,-2.1872,0.0,0.0,0.0,0.0,0.0,0.0,0.0,0.0,0.0,0.0,0.0,0.0,-1.9712,-1.9181,-2.0161,-2.0961,-2.1554,-2.2616,-2.3554,-2.4209,-2.3945,-2.3721,-2.3564,0.0,0.0,0.0,0.0,0.0,0.0,0.0,0.0,0.0,0.0,0.0,0.0,0.0,0.0,0.0,0.0,0.0,0.0,0.0,0.0,0.0,0.0,0.0,0.0,0.0,-1.6344,0.0,0.0,0.0,0.0,0.0,0.0,0.0,0.0,0.0,0.0,0.0,-1.9688,-2.1577,-2.1711,-2.183,-2.2378,-2.0932,-1.9878,0.0,0.0,0.0,0.0,0.0,0.0,0.0,0.0,0.0,0.0,0.0,0.0,0.0,0.0,-2.0589,-1.7067,-1.6635,-1.6809,-1.6649,0.0,0.0,0.0,0.0,0.0,0.0,0.0,0.0,0.0,0.0,0.0,0.0,0.0,0.0,-1.6567,0.0,-1.6553,0.0,0.0,0.0,0.0,0.0,0.0,0.0,0.0,-1.8963,-2.0681,-2.2974,-2.3742,-2.4364,0.0,-2.4863,-2.415,0.0,0.0,0.0,0.0,0.0,0.0,0.0,0.0,-2.075,-2.0527,-2.1441,-2.1943,-2.1996,-2.2999,-2.3633,-2.3779,-2.3789,-2.3516,-2.2896,-2.2539,-2.2314,0.0,0.0,0.0,0.0,0.0,0.0,0.0,0.0,0.0,0.0,0.0,0.0,0.0,0.0,0.0,0.0,0.0,0.0,0.0,0.0,0.0,0.0,0.0,-1.655,0.0,0.0,0.0,0.0,0.0,0.0,0.0,0.0,0.0,-1.9836,-2.0427,-2.142,-2.2741,-2.2603,-2.2331,-2.2177,0.0,0.0,0.0,0.0,0.0,0.0,0.0,-1.9136,-1.9276,-1.9628,-2.0144,-2.0823,-2.1751,-2.2474,-2.2652,0.0,0.0,-1.8046,-1.7302,-1.7175,-1.7091,-1.7554,-1.8543,-2.0566,-2.1391,-2.208,0.0,0.0,0.0,0.0,0.0,0.0,0.0,0.0,-1.6353,-1.6717,0.0,-1.663,0.0,0.0,0.0,0.0,0.0,-1.639,0.0,0.0,-2.0507,-2.1919,-2.3414,-2.4164,-2.4465,-2.4531,-2.5284,-2.5196,-2.4346,-2.3154,0.0,0.0,0.0,0.0,0.0,0.0,-2.2672,-2.3028,-2.3047,-2.3091,-2.3091,-2.3101,-2.3305,-2.374,-2.376,-2.3379,-2.2607,-2.2877,-2.2764,-2.2014,-2.1904,0.0,0.0,0.0,0.0,0.0,0.0,0.0,0.0,0.0,0.0,0.0,0.0,0.0,0.0,0.0,0.0,0.0,0.0,0.0,0.0,-1.6683,0.0,0.0,0.0,0.0,0.0,0.0,0.0,0.0,0.0,0.0,-2.2436,-2.365,-2.4548,-2.4695,0.0,0.0,0.0,0.0,-1.9855,-1.8501,-1.8821,-1.8832,-1.7586,-1.8513,-1.9287,-1.8928,0.0,0.0,-2.1139,-2.2629,-2.3197,-2.1641,-2.1678,-2.1482,-2.0666,-2.0016,-1.9287,-1.8019,-1.808,-1.867,-1.9813,-2.1063,-2.1883,-1.5062,0.0,0.0,0.0,0.0,-1.6911,-1.7134,-1.7522,-1.7535,-1.7508,-1.7435,-1.7112,0.0,0.0,0.0,0.0,0.0,0.0,-1.9499,-2.2007,-2.2725,-2.3921,-2.5513,-2.6033,-2.6113,-2.583,-2.5762,-2.5235,-2.4414,-2.374,-2.3369,-2.3232,0.0,0.0,0.0,0.0,-2.2672,-2.3071,-2.3101,-2.3101,-2.3101,-2.3101,-2.3149,-2.3276,-2.332,-2.3203,-2.2925,-2.3033,-2.2984,-2.274,-2.2207,0.0,0.0,0.0,0.0,0.0,0.0,0.0,0.0,0.0,0.0,0.0,0.0,0.0,0.0,0.0,0.0,0.0,0.0,0.0,-1.9093,-1.8586,-1.8376,0.0,0.0,0.0,0.0,0.0,0.0,0.0,0.0,0.0,-2.424,-2.4219,-2.4049,0.0,0.0,-2.4237,-2.3083,-2.1991,-2.1458,-2.1969,-2.1491,0.0,-2.0491,-2.123,-2.1867,-2.1756,-2.2478,-2.3133,-2.3457,-2.3881,-2.406,-2.3542,-2.2754,-2.2087,-2.1869,-2.104,-2.0174,-1.9474,-2.0097,-2.1223,-2.2409,-2.2924,-2.3163,-1.6294,-1.7822,-1.7527,-1.7373,-1.7335,-1.7455,-1.7635,-1.7842,-1.7856,-1.7822,-1.7736,-1.738,-1.7065,-1.6767,-1.6359,0.0,0.0,0.0,-2.0251,-2.2742,-2.3476,-2.4725,-2.6317,-2.6289,-2.6113,-2.5898,-2.542,-2.4894,-2.4358,-2.3994,-2.3789,-2.3769,0.0,0.0,-2.3081,-2.2838,-2.2847,-2.3081,-2.3101,-2.3101,-2.3101,-2.3101,-2.3101,-2.3101,-2.3101,-2.3101,-2.3101,-2.3101,-2.3101,-2.3091,-2.25,-2.2051,0.0,0.0,0.0,0.0,0.0,0.0,0.0,0.0,0.0,0.0,0.0,-1.9958,-1.9054,0.0,0.0,0.0,-1.8229,-1.9446,-2.0759,-1.9952,0.0,0.0,0.0,0.0,0.0,0.0,0.0,-2.2003,-2.3271,-2.4336,-2.4756,-2.4545,-2.4319,-2.4139,-2.4224,-2.3976,-2.3188,0.0,-2.2005,-2.2818,-2.2538,-2.2036,-2.1528,-2.2181,-2.2766,-2.2766,-2.3674,-2.4378,-2.4424,-2.4424,-2.4424,-2.4322,-2.3746,-2.3037,-2.251,-2.2046,-2.1452,-2.0351,-2.0649,-2.1547,-2.2765,-2.2915,-2.2926,-1.7989,-1.8885,-1.807,-1.7716,-1.7716,-1.7942,-1.7956,-1.7689,-1.7669,-1.7802,-1.7942,-1.7415,-1.734,-1.7475,-1.6981,0.0,-1.7091,-1.8685,-2.0435,-2.2198,-2.329,-2.469,-2.6182,-2.5448,-2.5057,-2.5047,-2.457,-2.4365,-2.4346,-2.3935,-2.374,-2.3721,-2.3296,-2.3101,-2.3101,-2.3091,-2.3101,-2.3101,-2.3101,-2.3101,-2.3101,-2.3101,-2.3101,-2.3101,-2.3101,-2.3101,-2.3101,-2.3101,-2.3101,-2.3081,-2.2701,-2.2324,-2.1894,0.0,0.0,0.0,0.0,0.0,0.0,0.0,0.0,0.0,0.0,0.0,0.0,0.0,0.0,0.0,-1.8947,0.0,-2.186,-2.0927,0.0,0.0,0.0,-2.0978,-2.1074,-2.2263,-2.3101,-2.3101,0.0,0.0,-2.4326,-2.4746,-2.4996,-2.4796,-2.4566,-2.391,-2.2543,-2.2215,-2.1946,-2.213,-2.2623,-2.2655,-2.1784,-2.2127,-2.2653,-2.2653,-2.3531,-2.4222,-2.4268,-2.4277,-2.4297,-2.4258,-2.4261,-2.3909,-2.2645,-2.3081,-2.3104,-2.1045,-2.0473,-2.0636,-2.1788,-2.1897,-2.2024,-1.6879,-1.9239,-1.9038,-1.8811,-1.8611,-1.8621,-1.8677,-1.8591,-1.837,-1.819,-1.7955,-1.7408,-1.7112,-1.6921,-1.7058,-1.8174,-2.0152,-2.0803,-2.2268,-2.4285,-2.4622,-2.4813,-2.4873,-2.4668,-2.457,-2.4541,-2.4141,-2.3935,-2.3926,-2.3506,-2.3247,-2.3247,-2.314,-2.3101,-2.3101,-2.3101,-2.3101,-2.3101,-2.3101,-2.3101,-2.3101,-2.3101,-2.3101,-2.3101,-2.3101,-2.3101,-2.3101,-2.3101,-2.3101,-2.3091,-2.2691,-2.2324,-2.1904,-2.1377,0.0,0.0,0.0,0.0,0.0,0.0,0.0,0.0,0.0,-2.1252,-2.0273,0.0,-2.0963,0.0,-2.0926,-2.1762,-2.2721,-2.1463,0.0,0.0,-2.1695,-2.1574,-2.248,-2.2892,-2.3101,-2.3101,-2.3516,-2.3828,-2.3935,-2.4307,-2.4538,-2.4507,-2.5024,-2.5156,-2.4474,-2.4342,-2.4144,-2.3824,-2.3871,-2.3945,-2.3561,-2.3501,-2.3427,-2.3463,-2.3448,-2.3403,-2.3403,-2.3393,-2.3393,-2.3393,-2.3437,-2.326,-2.2949,-2.3119,-2.31,-2.2589,-2.2389,-2.2412,-2.2742,-2.27,-2.2721,-1.7256,-1.9372,-1.9424,-1.9272,-1.9125,-1.9118,-1.8971,-1.8718,-1.8557,-1.825,-1.7822,-1.7541,-1.7248,-1.7114,-1.732,-1.8496,-2.0466,-2.135,-2.2609,-2.4183,-2.4821,-2.4834,-2.4414,-2.4219,-2.4141,-2.4121,-2.3701,-2.3506,-2.3486,-2.3208,-2.3101,-2.3101,-2.3101,-2.3101,-2.3101,-2.3101,-2.3101,-2.3101,-2.3101,-2.3101,-2.3101,-2.3101,-2.3101,-2.3101,-2.3101,-2.3101,-2.3101,-2.3101,-2.3101,-2.3091,-2.2877,-2.2519,-2.1914,-2.1434,-2.0976,0.0,0.0,0.0,0.0,0.0,0.0,0.0,0.0,0.0,0.0,0.0,-2.1863,-2.1775,-2.2031,-2.2432,-2.3033,-2.2292,-2.2148,-2.3018,-2.2482,-2.2359,-2.3047,-2.3101,-2.3101,-2.3101,-2.335,-2.3574,-2.3769,-2.3994,-2.4209,-2.4385,-2.4787,-2.5068,-2.4844,-2.4775,-2.4687,-2.4453,-2.4268,-2.4062,-2.3887,-2.3652,-2.3496,-2.3486,-2.3257,-2.3101,-2.3101,-2.3101,-2.3101,-2.3081,-2.2945,-2.2818,-2.2808,-2.2695,-2.2578,-2.2578,-2.2588,-2.2725,-2.3013,-2.3091,-2.3062,-1.7956,-1.9372,-1.9424,-1.9424,-1.9424,-1.9325,-1.8998,-1.849,-1.8444,-1.8096,-1.7581,-1.7528,-1.7508,-1.7475,-1.7549,-1.8328,-1.9619,-2.0825,-2.1936,-2.2976,-2.4193,-2.4586,-2.4248,-2.3935,-2.376,-2.3691,-2.3276,-2.3101,-2.3101,-2.3101,-2.3101,-2.3101,-2.3101,-2.3101,-2.3101,-2.3101,-2.3101,-2.3101,-2.3101,-2.3101,-2.3101,-2.3101,-2.3101,-2.3101,-2.3042,-2.3013,-2.3023,-2.3013,-2.3013,-2.3023,-2.3062,-2.2754,-2.1943,-2.1523,-2.1229,0.0,-2.083,0.0,0.0,0.0,0.0,0.0,0.0,0.0,0.0,-2.1502,-2.1687,-2.2529,-2.2555,-2.2701,-2.3062,-2.3101,-2.3101,-2.3101,-2.3101,-2.3101,-2.3101,-2.3101,-2.3101,-2.3101,-2.3101,-2.3247,-2.3633,-2.3701,-2.3857,-2.4141,-2.4219,-2.4248,-2.4248,-2.4287,-2.4307,-2.4277,-2.3945,-2.3594,-2.3257,-2.313,-2.312,-2.311,-2.311,-2.3071,-2.2994,-2.3052,-2.3052,-2.2916,-2.2715,-2.2519,-2.2451,-2.2139,-2.1924,-2.1953,-2.1963,-2.2168,-2.2725,-2.2867,-2.2861,-1.6785,-1.9366,-1.9424,-1.9424,-1.9345,-1.9112,-1.8811,-1.8477,-1.8237,-1.7796,-1.7293,-1.7286,-1.7094,-1.6914,-1.7368,-1.8216,-1.9289,-1.9535,-2.0679,-2.2524,-2.2911,-2.3185,-2.3374,-2.3662,-2.3603,-2.3227,-2.313,-2.3101,-2.3101,-2.3101,-2.3101,-2.3101,-2.3101,-2.3101,-2.3101,0.0,0.0,0.0,-2.3101,-2.3101,-2.3101,-2.3101,-2.3101,-2.3091,-2.2803,0.0,-2.2594,-2.2627,-2.2637,-2.2604,-2.2906,0.0,0.0,0.0,0.0,0.0,0.0,0.0,0.0,0.0,0.0,0.0,-2.1885,-2.1562,-2.1356,-2.1873,-2.248,-2.2916,-2.2984,-2.3013,-2.3091,-2.3101,-2.3101,-2.3101,-2.3101,-2.3101,-2.3101,-2.3101,-2.3101,-2.3101,-2.3101,-2.312,-2.3208,-2.3218,-2.3257,-2.3374,-2.3335,-2.3335,-2.3364,-2.3711,-2.3769,-2.3413,-2.3305,-2.3208,-2.311,-2.3101,-2.3101,-2.3101,-2.3101,-2.2955,-2.2744,-2.2867,-2.2799,-2.2324,-2.2334,-2.2373,-2.207,-2.1934,-2.1877,-2.1926,-2.1916,-2.1934,-2.209,-2.2119,-2.21,-1.6503,-1.9366,-1.9424,-1.9285,0.0,-1.8838,-1.8544,-1.825,-1.7949,-1.7482,-1.6934,-1.6927,-1.6847,-1.672,-1.7661,-1.8707,-1.9927,-2.0516,-2.1631,-2.3083,-2.3166,-2.3155,-2.3101,-2.3315,-2.3315,-2.3101,-2.3101,-2.3101,-2.3101,-2.3101,-2.3101,-2.3101,-2.3101,-2.3101,-2.3101,-2.3101,-2.3101,-2.3101,-2.3101,-2.3101,-2.3101,-2.3101,-2.3101,-2.3091,-2.2886,0.0,0.0,0.0,0.0,0.0,0.0,0.0,0.0,-2.2187,0.0,-2.1562,-2.1738,-2.1824,-2.1834,-2.206,-2.2197,-2.2197,-2.2197,-2.21,-2.1875,-2.2409,-2.2867,-2.3071,-2.3101,-2.3101,-2.3101,-2.3101,-2.3101,-2.3101,-2.3101,-2.3101,-2.3101,-2.3101,-2.3101,-2.3101,-2.3101,-2.3101,-2.3101,-2.3101,-2.3101,-2.3101,-2.3101,-2.3091,-2.312,-2.333,-2.3325,-2.313,-2.3101,-2.3101,-2.3101,-2.3101,-2.3091,-2.3081,-2.2925,-2.2764,-2.2549,-2.2519,-2.2373,-2.1963,-2.1904,-2.1807,-2.1621,-2.1396,-2.1271,-2.123,-2.1271,-2.1271,-2.13,-2.1572,-2.1816,-1.6503,-1.9359,-1.937,-1.9145,-1.8898,-1.8557,-1.8217,-1.7816,0.0,0.0,0.0,-1.6653,-1.66,-1.661,-1.7923,-1.91,-2.0191,-2.1393,-2.2519,-2.3429,-2.3464,-2.3332,-2.3101,-2.3169,-2.3169,-2.3101,-2.3101,-2.3101,-2.3101,-2.3101,-2.3101,-2.3101,-2.3101,-2.3101,-2.3101,-2.3101,-2.3101,-2.3101,-2.3101,-2.3101,-2.3101,-2.3101,-2.3101,-2.3101,-2.3023,-2.2984,-2.2984,-2.2994,-2.2984,-2.2984,-2.3052,-2.2906,-2.2549,-2.251,-2.2441,-2.2305,-2.2389,-2.248,-2.2412,-2.2471,-2.2363,-2.2021,-2.2383,-2.2584,-2.2617,-2.2896,-2.3101,-2.3101,-2.3101,-2.3101,-2.3101,-2.3101,-2.3101,-2.3101,-2.3101,-2.3101,-2.3101,-2.3101,-2.3101,-2.3101,-2.3101,-2.3101,-2.3101,-2.3101,-2.3052,-2.2994,-2.2955,-2.2935,-2.2916,-2.3003,-2.313,-2.3101,-2.3013,-2.2964,-2.2964,-2.2857,-2.2886,-2.2789,-2.2588,-2.2393,-2.2266,-2.206,-2.1846,-2.1652,-2.1396,-2.121,-2.1083,-2.0859,-2.0625,-2.0615,-2.0615,-2.0615,-2.0674,-2.1173,-2.1484,-1.6503,-1.9345,-1.9092,-1.8965,-1.8885,-1.8282,-1.7789,-1.7313,-1.6961,-1.678,-1.6693,-1.644,-1.6192,-1.602,-1.7728,-1.845,-1.8525,-1.9691,-2.0933,-2.2071,-2.2217,-2.255,-2.313,-2.3525,-2.3506,-2.311,-2.3101,-2.3101,-2.3101,-2.3101,-2.3101,-2.3101,-2.3101,-2.3101,-2.3101,-2.3101,-2.3101,-2.3101,-2.3101,-2.3101,-2.3101,-2.3101,-2.3101,-2.3081,-2.275,-2.2598,-2.2607,-2.2565,-2.2598,-2.2617,-2.2896,-2.2906,-2.2549,-2.2519,-2.2146,-2.1492,-2.2109,-2.2363,-2.2012,-2.2314,-2.249,-2.2451,-2.2769,-2.3047,-2.3013,-2.3062,-2.3101,-2.3101,-2.3101,-2.3101,-2.3101,-2.3091,-2.3071,-2.3081,-2.3081,-2.3091,-2.3052,-2.3052,-2.3042,-2.3033,-2.3101,-2.3062,-2.3023,-2.3033,-2.2886,-2.2685,-2.2607,-2.249,-2.2324,-2.2643,-2.3052,-2.3042,-2.2832,-2.2637,-2.2568,-2.2285,-2.2168,-2.206,-2.2041,-2.1865,-2.1572,-2.166,-2.1593,-2.0948,-2.1025,-2.1055,-2.0771,-2.0664,-2.0615,-2.0615,-2.0615,-2.0615,-2.0615,-2.0742,-2.082,-1.6444,-1.9236,-1.9219,-1.8978,-1.8644,-1.805,-1.7642,-1.7414,-1.7125,-1.676,-1.6466,-1.6375,-1.6106,-1.596,-1.7387,-1.8375,-1.8917,-2.0096,-2.1309,-2.2473,-2.2572,-2.278,-2.3086,-2.335,-2.334,-2.3101,-2.3101,-2.3101,-2.3101,-2.3101,-2.3101,-2.3101,-2.3101,-2.3101,-2.3101,-2.3101,-2.3101,-2.3101,-2.3101,-2.3101,-2.3101,-2.3101,-2.3101,-2.3101,-2.2906,-2.2808,-2.2808,-2.2852,-2.2808,-2.2818,-2.2984,-2.3003,-2.2818,-2.2646,-2.2334,-2.1921,-2.208,-2.209,-2.1904,-2.206,-2.2178,-2.2178,-2.2559,-2.2695,-2.2471,-2.2881,-2.3091,-2.3101,-2.3101,-2.3101,-2.3091,-2.2896,-2.2793,-2.2793,-2.2607,-2.2461,-2.2461,-2.2461,-2.2461,-2.2461,-2.2461,-2.2461,-2.2451,-2.2461,-2.2412,-2.2197,-2.2168,-2.207,-2.1904,-2.2187,-2.2461,-2.2441,-2.2285,-2.2197,-2.2158,-2.2031,-2.1904,-2.1936,-2.168,-2.1475,-2.12,-2.1279,-2.1036,-2.0713,-2.0752,-2.0771,-2.0625,-2.0615,-2.0615,-2.0615,-2.0615,-2.0615,-2.0615,-2.0615,-2.0615,-1.6509,-1.9366,-1.9292,-1.8931,-1.8357,-1.7809,-1.7589,-1.7562,-1.7387,-1.7005,-1.6543,-1.6388,-1.6146,-1.6034,-1.7167,-1.8373,-1.9542,-2.0755,-2.1943,-2.3003,-2.3101,-2.3101,-2.3101,-2.3101,-2.3101,-2.3101,-2.3101,-2.3101,-2.3101,-2.3101,-2.3101,-2.3101,-2.3101,-2.3101,-2.3101,-2.3101,-2.3101,-2.3101,-2.3101,-2.3101,-2.3101,-2.3101,-2.3101,-2.3101,-2.3091,-2.3101,-2.3101,-2.3101,-2.3101,-2.3101,-2.3101,-2.3052,-2.2955,-2.2652,-2.2432,-2.2236,-2.2012,-2.1836,-2.1758,-2.1877,-2.1846,-2.1748,-2.2129,-2.2236,-2.1992,-2.2471,-2.2857,-2.2925,-2.2838,-2.2818,-2.2867,-2.2607,-2.2373,-2.2353,-2.209,-2.1943,-2.1894,-2.1936,-2.1936,-2.1936,-2.1936,-2.1914,-2.1936,-2.1936,-2.1865,-2.1777,-2.166,-2.1582,-2.1582,-2.1582,-2.1582,-2.1611,-2.166,-2.1738,-2.1728,-2.1611,-2.1593,-2.1582,-2.1309,-2.1103,-2.0996,-2.0771,-2.0654,-2.0615,-2.0615,-2.0635,-2.0615,-2.0615,-2.0615,-2.0615,-2.0615,-2.0615,-2.0615,-2.0615,-2.0615,-1.6444,-1.9145,-1.9092,-1.8624,-1.8035,-1.7742,-1.7595,-1.7582,-1.7549,-1.7427,-1.7072,-1.6556,-1.6273,-1.6386,-1.7221,-1.8288,-1.9497,-2.0747,-2.1898,-2.296,-2.3101,-2.3101,-2.3101,-2.3101,-2.3101,-2.3101,-2.3101,-2.3101,-2.3101,-2.3101,-2.3101,-2.3101,-2.3101,-2.3101,-2.3101,-2.3101,-2.3101,-2.3101,-2.3101,-2.3101,-2.3101,-2.3101,-2.3101,-2.3101,-2.3101,-2.3101,-2.3101,-2.3101,-2.3101,-2.3101,-2.3101,-2.2925,-2.2627,-2.2529,-2.2126,-2.1414,-2.1689,-2.1719,-2.1327,-2.166,-2.1689,-2.1327,-2.1699,-2.1924,-2.1865,-2.1953,-2.2168,-2.2402,-2.2217,-2.2227,-2.249,-2.2187,-2.1943,-2.1943,-2.1855,-2.1936,-2.1826,-2.1936,-2.1936,-2.1936,-2.1787,-2.1926,-2.1787,-2.1777,-2.167,-2.1328,-2.1045,-2.0889,-2.0879,-2.0869,-2.0869,-2.083,-2.1016,-2.1229,-2.122,-2.0937,-2.0889,-2.0811,-2.0732,-2.0684,-2.0674,-2.0654,-2.0615,-2.0615,-2.0615,-2.0615,-2.0615,-2.0615,-2.0615,-2.0615,-2.0615,-2.0615,-2.0615,-2.0615,-2.0615,-1.6444,-1.9352,-1.9239,-1.8844,-1.831,-1.7983,-1.7756,-1.7589,-1.7589,-1.7515,-1.742,-1.7018,-1.665,-1.6315,-1.6711,-1.7454,-1.8511,-1.967,-2.0899,-2.2031,-2.2775,-2.3101,-2.3101,-2.3101,-2.3101,-2.3101,-2.3101,-2.3101,-2.3101,-2.3101,-2.3101,-2.3101,-2.3101,-2.3101,-2.3101,-2.3101,-2.3101,-2.3101,-2.3101,-2.3101,-2.3101,-2.3101,-2.3101,-2.3101,-2.3101,-2.3101,-2.3101,-2.3101,-2.3101,-2.3101,-2.3101,-2.2949,-2.2529,-2.2285,-2.1865,-2.1259,-2.1152,-2.1025,-2.0859,-2.1016,-2.1143,-2.1181,-2.1356,-2.1504,-2.1504,-2.1504,-2.1582,-2.1719,-2.1836,-2.1973,-2.208,-2.1758,-2.1494,-2.1465,-2.1269,-2.1153,-2.1143,-2.1153,-2.1143,-2.1143,-2.1143,-2.1153,-2.1143,-2.1153,-2.1075,-2.0859,-2.0703,-2.0615,-2.0615,-2.0615,-2.0615,-2.0625,-2.0772,-2.082,-2.083,-2.0713,-2.0625,-2.0615,-2.0615,-2.0615,-2.0615,-2.0615,-2.0615,-2.0615,-2.0615,-2.0615,-2.0615,-2.0615,-2.0615,-2.0615,-2.0615,-2.0615,-2.0615,-2.0615,-2.0615,-1.6503,-1.9178,-1.9285,-1.9005,-1.8584,-1.8149,-1.7916,-1.7709,-1.7622,-1.7589,-1.7562,-1.7407,-1.7038,-1.6596,-1.6482,-1.6898,-1.7903,-1.9196,-2.0312,-2.1382,-2.264,-2.3218,-2.311,-2.3101,-2.3101,-2.3101,-2.3101,-2.3101,-2.3101,-2.3101,-2.3101,-2.311,-2.3208,-2.3208,-2.312,-2.3198,-2.3208,-2.3101,-2.3101,-2.3101,-2.3101,-2.3101,-2.3101,-2.3101,-2.3101,-2.3101,-2.3101,-2.3101,-2.3101,-2.3091,-2.2994,-2.273,-2.2363,-2.1934,-2.1514,-2.1084,-2.0762,-2.0615,-2.0615,-2.0615,-2.0703,-2.0996,-2.1045,-2.1045,-2.1015,-2.1015,-2.1055,-2.1084,-2.1348,-2.1533,-2.166,-2.1318,-2.1064,-2.1035,-2.0781,-2.0615,-2.0635,-2.0615,-2.0644,-2.0615,-2.0693,-2.0615,-2.0615,-2.0644,-2.0654,-2.0644,-2.0625,-2.0615,-2.0615,-2.0615,-2.0615,-2.0615,-2.0615,-2.0625,-2.0615,-2.0615,-2.0615,-2.0615,-2.0615,-2.0615,-2.0615,-2.0615,-2.0615,-2.0615,-2.0615,-2.0615,-2.0615,-2.0615,-2.0615,-2.0615,-2.0615,-2.0615,-2.0615,-2.0615,-2.0615,-1.6509,-1.9145,-1.9065,-1.8945,-1.8858,-1.8249,-1.7989,-1.7916,-1.7709,-1.7589,-1.7589,-1.7555,-1.7388,-1.7132,-1.6928,-1.7204,-1.8215,-1.9766,-2.0789,-2.1491,-2.2999,-2.3535,-2.311,-2.3101,-2.3101,-2.3101,-2.3101,-2.3101,-2.3101,-2.3101,-2.3101,-2.311,-2.3496,-2.3516,-2.3198,-2.3496,-2.3535,-2.313,-2.3101,-2.3101,-2.3101,-2.3101,-2.3101,-2.3101,-2.3101,-2.3101,-2.3101,-2.3101,-2.3101,-2.3101,-2.2803,-2.2383,-2.1963,-2.1523,-2.1094,-2.0742,-2.0625,-2.0615,-2.0615,-2.0615,-2.0654,-2.0664,-2.0713,-2.0664,-2.0723,-2.0723,-2.0703,-2.0664,-2.0742,-2.0879,-2.1152,-2.0908,-2.0703,-2.0683,-2.0644,-2.0615,-2.0615,-2.0615,-2.0615,-2.0615,-2.0615,-2.0615,-2.0615,-2.0615,-2.0615,-2.0615,-2.0615,-2.0615,-2.0615,-2.0615,-2.0615,-2.0615,-2.0615,-2.0615,-2.0615,-2.0615,-2.0615,-2.0615,-2.0615,-2.0615,-2.0615,-2.0615,-2.0615,-2.0615,-2.0615,-2.0615,-2.0615,-2.0615,-2.0615,-2.0615,-2.0615,-2.0615,-2.0615,-2.0615,-2.0615,-1.6503,-1.9359,-1.9245,-1.9105,-1.8885,-1.8497,-1.8223,-1.7962,-1.7716,-1.7589,-1.7589,-1.7589,-1.7522,-1.7474,-1.8224,-1.8534,-1.866,-1.9942,-2.1135,-2.2161,-2.3286,-2.3701,-2.3545,-2.3237,-2.3101,-2.3101,-2.3101,-2.3101,-2.3101,-2.3101,-2.3101,-2.311,-2.3291,-2.3247,-2.3149,-2.3237,-2.3281,-2.311,-2.3101,-2.3101,-2.3101,-2.3101,-2.3101,-2.3101,-2.3101,-2.3101,-2.3101,-2.3101,-2.3101,-2.3101,-2.2945,-2.2725,-2.2285,-2.1621,-2.1132,-2.0996,-2.0732,-2.0615,-2.0615,-2.0615,-2.0742,-2.0947,-2.0762,-2.0752,-2.0869,-2.0742,-2.0615,-2.0615,-2.0615,-2.0664,-2.0723,-2.0683,-2.0615,-2.0615,-2.0615,-2.0615,-2.0615,-2.0615,-2.0615,-2.0615,-2.0615,-2.0615,-2.0615,-2.0615,-2.0615,-2.0615,-2.0615,-2.0615,-2.0615,-2.0615,-2.0615,-2.0615,-2.0615,-2.0615,-2.0615,-2.0615,-2.0615,-2.0615,-2.0615,-2.0615,-2.0615,-2.0615,-2.0615,-2.0615,-2.0615,-2.0615,-2.0615,-2.0615,-2.0615,-2.0615,-2.0615,-2.0615,-2.0615,-2.0615,-2.0615,-1.7402,-1.9249,-1.9424,-1.9199,-1.8898,-1.8611,-1.8317,-1.7969,-1.7722,-1.7589,-1.7589,-1.7589,-1.7589,-1.774,-1.8551,-1.9352,-1.9774,-2.1022,-2.1979,-2.2661,-2.3696,-2.4053,-2.3769,-2.3486,-2.3237,-2.312,-2.3101,-2.3101,-2.3101,-2.3101,-2.3101,-2.3101,-2.3218,-2.3227,-2.314,-2.3237,-2.3247,-2.313,-2.3101,-2.3101,-2.3101,-2.3101,-2.3101,-2.3101,-2.3101,-2.3101,-2.3101,-2.3101,-2.3101,-2.3081,-2.2974,-2.2744,-2.2305,-2.1768,-2.1337,-2.119,-2.0947,-2.0781,-2.0791,-2.0781,-2.0977,-2.1387,-2.1182,-2.1094,-2.1181,-2.0947,-2.0742,-2.0654,-2.0615,-2.0615,-2.0615,-2.0615,-2.0615,-2.0615,-2.0615,-2.0615,-2.0615,-2.0615,-2.0615,-2.0615,-2.0615,-2.0615,-2.0615,-2.0615,-2.0615,-2.0615,-2.0615,-2.0615,-2.0615,-2.0615,-2.0615,-2.0615,-2.0615,-2.0615,-2.0615,-2.0615,-2.0615,-2.0615,-2.0615,-2.0615,-2.0615,-2.0615,-2.0615,-2.0615,-2.0615,-2.0615,-2.0615,-2.0615,-2.0615,-2.0615,-2.0615,-2.0615,-2.0615,-2.0615,-2.0615,-1.9307,-1.9345,-1.9359,-1.9165,-1.8865,-1.8571,-1.8303,-1.7969,-1.7716,-1.7589,-1.7589,-1.7589,-1.7589,-1.7635,-1.7943,-1.9139,-2.1358,-2.2746,-2.3232,-2.3079,-2.4354,-2.4541,-2.3867,-2.3769,-2.3496,-2.311,-2.3101,-2.3101,-2.3101,-2.3101,-2.3101,-2.3169,-2.3496,-2.3457,-2.3101,-2.3467,-2.3516,-2.3188,-2.3101,-2.3101,-2.3101,-2.3101,-2.3101,-2.3101,-2.3101,-2.3101,-2.3101,-2.3101,-2.3101,-2.3052,-2.2793,-2.2344,-2.21,-2.1894,-2.168,-2.1357,-2.119,-2.1171,-2.1142,-2.1151,-2.1406,-2.166,-2.1807,-2.1592,-2.1239,-2.1161,-2.1006,-2.0683,-2.0615,-2.0615,-2.0615,-2.0615,-2.0615,-2.0615,-2.0615,-2.0615,-2.0615,-2.0615,-2.0615,-2.0615,-2.0615,-2.0615,-2.0615,-2.0615,-2.0615,-2.0615,-2.0615,-2.0615,-2.0615,-2.0615,-2.0615,-2.0615,-2.0615,-2.0615,-2.0615,-2.0615,-2.0615,-2.0615,-2.0615,-2.0615,-2.0615,-2.0615,-2.0615,-2.0615,-2.0615,-2.0615,-2.0615,-2.0615,-2.0615,-2.0615,-2.0615,-2.0615,-2.0615,-2.0615,-2.0615,-1.9252,-1.9065,-1.9065,-1.8891,-1.8604,-1.831,-1.8075,-1.7962,-1.7716,-1.7589,-1.7589,-1.7589,-1.7589,-1.7838,-1.8558,-1.9981,-2.1752,-2.3076,-2.4049,-2.463,-2.4956,-2.4775,-2.4258,-2.3926,-2.3564,-2.3159,-2.3101,-2.3101,-2.3101,-2.3101,-2.3101,-2.313,-2.3227,-2.3227,-2.311,-2.3227,-2.3208,-2.312,-2.3101,-2.3101,-2.3101,-2.3101,-2.3101,-2.3101,-2.3101,-2.3101,-2.3101,-2.3101,-2.3101,-2.3101,-2.2974,-2.2838,-2.2676,-2.2197,-2.1836,-2.168,-2.1346,-2.1084,-2.0898,-2.1328,-2.1592,-2.1562,-2.1719,-2.166,-2.1268,-2.12,-2.1035,-2.0683,-2.0615,-2.0615,-2.0615,-2.0615,-2.0615,-2.0615,-2.0615,-2.0615,-2.0615,-2.0615,-2.0615,-2.0615,-2.0615,-2.0615,-2.0615,-2.0615,-2.0615,-2.0615,-2.0615,-2.0615,-2.0615,-2.0615,-2.0615,-2.0615,-2.0615,-2.0615,-2.0615,-2.0615,-2.0615,-2.0615,-2.0615,-2.0615,-2.0615,-2.0615,-2.0615,-2.0615,-2.0615,-2.0615,-2.0615,-2.0615,-2.0615,-2.0615,-2.0615,-2.0615,-2.0615,-2.0615,-2.0615,-1.9199,-1.8931,-1.8868,-1.8691,-1.833,-1.8062,-1.7922,-1.7809,-1.7669,-1.7589,-1.7589,-1.7589,-1.7589,-1.7793,-1.8506,-1.962,-2.0998,-2.2316,-2.3692,-2.4884,-2.5334,-2.501,-2.4443,-2.3984,-2.3555,-2.3169,-2.3101,-2.3101,-2.3101,-2.3101,-2.3101,-2.3101,-2.3101,-2.3101,-2.3101,-2.3101,-2.3101,-2.3101,-2.3101,-2.3101,-2.3101,-2.3101,-2.3101,-2.3101,-2.3101,-2.3101,-2.3101,-2.3101,-2.3101,-2.3101,-2.3101,-2.3101,-2.3042,-2.2637,-2.2217,-2.1875,-2.1631,-2.1289,-2.0967,-2.1484,-2.1875,-2.1736,-2.1963,-2.1924,-2.1553,-2.1367,-2.1035,-2.0664,-2.0615,-2.0615,-2.0615,-2.0615,-2.0615,-2.0615,-2.0615,-2.0615,-2.0615,-2.0615,-2.0615,-2.0615,-2.0615,-2.0615,-2.0615,-2.0615,-2.0615,-2.0615,-2.0615,-2.0615,-2.0615,-2.0615,-2.0615,-2.0615,-2.0615,-2.0615,-2.0615,-2.0615,-2.0615,-2.0615,-2.0615,-2.0615,-2.0615,-2.0615,-2.0615,-2.0615,-2.0615,-2.0615,-2.0615,-2.0615,-2.0615,-2.0615,-2.0615,-2.0615,-2.0615,-2.0615,-2.0615,-1.9134,-1.8881,-1.8898,-1.8564,-1.8035,-1.7962,-1.7849,-1.7622,-1.7589,-1.7589,-1.7589,-1.7589,-1.7589,-1.7589,-1.7793,-1.8551,-1.9731,-2.1245,-2.2574,-2.3885,-2.4887,-2.5196,-2.4453,-2.3994,-2.3564,-2.3149,-2.3101,-2.3101,-2.3101,-2.3101,-2.3101,-2.3101,-2.3101,-2.313,-2.3169,-2.313,-2.312,-2.3188,-2.313,-2.3101,-2.3101,-2.3101,-2.3101,-2.3101,-2.3101,-2.3101,-2.3101,-2.3101,-2.3101,-2.3101,-2.3101,-2.3101,-2.3101,-2.3081,-2.2627,-2.1953,-2.1885,-2.1562,-2.1377,-2.168,-2.2012,-2.2126,-2.2305,-2.2314,-2.1797,-2.1396,-2.1045,-2.0674,-2.0615,-2.0615,-2.0615,-2.0615,-2.0615,-2.0615,-2.0615,-2.0615,-2.0615,-2.0615,-2.0615,-2.0615,-2.0615,-2.0615,-2.0615,-2.0615,-2.0615,-2.0615,-2.0615,-2.0615,-2.0615,-2.0615,-2.0615,-2.0615,-2.0615,-2.0615,-2.0615,-2.0615,-2.0615,-2.0615,-2.0615,-2.0615,-2.0615,-2.0615,-2.0615,-2.0615,-2.0615,-2.0615,-2.0615,-2.0615,-2.0615,-2.0615,-2.0615,-2.0615,-2.0615,-2.0615,-2.0615,-1.8121,-1.8855,-1.8691,-1.8384,-1.7982,-1.7816,-1.7669,-1.7589,-1.7589,-1.7589,-1.7589,-1.7589,-1.7589,-1.7589,-1.7641,-1.8349,-1.9576,-2.099,-2.2187,-2.3331,-2.4945,-2.5129,-2.4482,-2.3994,-2.3584,-2.3179,-2.3149,-2.3101,-2.3101,-2.314,-2.313,-2.3101,-2.3149,-2.3276,-2.3525,-2.3257,-2.3296,-2.3516,-2.3227,-2.3101,-2.3101,-2.3101,-2.3101,-2.3101,-2.3101,-2.3101,-2.3101,-2.3101,-2.3101,-2.3101,-2.3101,-2.3101,-2.3071,-2.2818,-2.2471,-2.2041,-2.1855,-2.1593,-2.1152,-2.1719,-2.206,-2.1648,-2.2139,-2.2178,-2.1434,-2.1268,-2.1006,-2.0684,-2.0615,-2.0615,-2.0615,-2.0615,-2.0615,-2.0615,-2.0615,-2.0615,-2.0615,-2.0615,-2.0615,-2.0615,-2.0615,-2.0615,-2.0615,-2.0615,-2.0615,-2.0615,-2.0615,-2.0615,-2.0615,-2.0615,-2.0615,-2.0615,-2.0615,-2.0615,-2.0615,-2.0615,-2.0615,-2.0615,-2.0615,-2.0615,-2.0615,-2.0615,-2.0615,-2.0615,-2.0615,-2.0615,-2.0615,-2.0615,-2.0615,-2.0615,-2.0615,-2.0615,-2.0615,-2.0615,-2.0615,-1.77,-1.8731,-1.8557,-1.825,-1.7856,-1.7662,-1.7589,-1.7589,-1.7589,-1.7589,-1.7589,-1.7589,-1.7589,-1.7589,-1.7641,-1.7989,-1.8857,-2.0179,-2.1384,-2.2723,-2.4711,-2.5236,-2.4727,-2.4258,-2.3916,-2.3637,-2.3496,-2.35,-2.3588,-2.3506,-2.3461,-2.3633,-2.3452,-2.3555,-2.373,-2.3574,-2.3418,-2.3457,-2.3208,-2.3101,-2.3101,-2.3101,-2.3101,-2.3101,-2.3101,-2.3101,-2.3101,-2.3101,-2.3101,-2.3101,-2.3101,-2.3101,-2.3062,-2.2701,-2.2412,-2.2148,-2.1846,-2.1416,-2.1309,-2.1719,-2.1797,-2.1602,-2.1894,-2.1658,-2.1278,-2.1044,-2.0791,-2.0664,-2.0615,-2.0615,-2.0615,-2.0615,-2.0615,-2.0615,-2.0615,-2.0615,-2.0615,-2.0615,-2.0615,-2.0615,-2.0615,-2.0615,-2.0615,-2.0615,-2.0615,-2.0615,-2.0615,-2.0615,-2.0615,-2.0615,-2.0615,-2.0615,-2.0615,-2.0615,-2.0615,-2.0615,-2.0615,-2.0615,-2.0615,-2.0615,-2.0615,-2.0615,-2.0615,-2.0615,-2.0615,-2.0615,-2.0615,-2.0615,-2.0615,-2.0615,-2.0615,-2.0615,-2.0615,-2.0615,-2.0615,-1.7625,-1.8537,-1.8504,-1.8156,-1.7689,-1.7595,-1.7589,-1.7589,-1.7589,-1.7589,-1.7589,-1.7589,-1.7589,-1.7589,-1.7589,-1.7635,-1.7786,-1.9524,-2.1049,-2.2733,-2.4581,-2.544,-2.5137,-2.4687,-2.4424,-2.4258,-2.4004,-2.4062,-2.4141,-2.3975,-2.4053,-2.4121,-2.3926,-2.3838,-2.3838,-2.374,-2.3516,-2.334,-2.3159,-2.3101,-2.3101,-2.3101,-2.3101,-2.3101,-2.3101,-2.3101,-2.3101,-2.3101,-2.3101,-2.3101,-2.3101,-2.3101,-2.3052,-2.2721,-2.2559,-2.2373,-2.1804,-2.1523,-2.165,-2.1395,-2.1337,-2.1523,-2.1348,-2.1151,-2.1084,-2.082,-2.0664,-2.0615,-2.0615,-2.0615,-2.0615,-2.0615,-2.0615,-2.0615,-2.0615,-2.0615,-2.0615,-2.0615,-2.0615,-2.0615,-2.0615,-2.0615,-2.0615,-2.0615,-2.0615,-2.0615,-2.0615,-2.0615,-2.0615,-2.0615,-2.0615,-2.0615,-2.0615,-2.0615,-2.0615,-2.0615,-2.0615,-2.0615,-2.0615,-2.0615,-2.0615,-2.0615,-2.0615,-2.0615,-2.0615,-2.0615,-2.0615,-2.0615,-2.0615,-2.0615,-2.0615,-2.0615,-2.0615,-2.0615,-2.0615,-1.7724,-1.8811,-1.8577,-1.827,-1.7916,-1.7682,-1.7589,-1.7589,-1.7589,-1.7589,-1.7589,-1.7589,-1.7589,-1.7589,-1.7589,-1.7589,-1.7943,-2.0025,-2.2466,-2.4766,-2.5226,-2.5654,-2.5488,-2.5127,-2.4766,-2.4521,-2.4355,-2.4355,-2.4394,-2.4375,-2.4326,-2.4346,-2.4053,-2.3955,-2.4141,-2.3643,-2.3437,-2.3525,-2.3276,-2.3101,-2.3101,-2.3101,-2.3101,-2.3101,-2.3101,-2.3101,-2.3101,-2.3101,-2.3101,-2.3101,-2.3101,-2.3101,-2.3062,-2.2974,-2.2822,-2.249,-2.2041,-2.1621,-2.1385,-2.1278,-2.1113,-2.0977,-2.1113,-2.1084,-2.0742,-2.0693,-2.0615,-2.0615,-2.0615,-2.0615,-2.0615,-2.0615,-2.0615,-2.0615,-2.0615,-2.0615,-2.0615,-2.0615,-2.0615,-2.0615,-2.0615,-2.0615,-2.0615,-2.0615,-2.0615,-2.0615,-2.0615,-2.0615,-2.0615,-2.0615,-2.0615,-2.0615,-2.0615,-2.0615,-2.0615,-2.0615,-2.0615,-2.0615,-2.0615,-2.0615,-2.0615,-2.0615,-2.0615,-2.0615,-2.0615,-2.0615,-2.0615,-2.0615,-2.0615,-2.0615,-2.0615,-2.0615,-2.0615,-2.0615,-2.0615,-1.6994,-1.8655,-1.8551,-1.823,-1.7822,-1.7655,-1.7589,-1.7589,-1.7589,-1.7589,-1.7589,-1.7589,-1.7589,-1.7589,-1.7589,-1.7589,-1.8244,-2.0428,-2.2767,-2.451,-2.5284,-2.5684,-2.5664,-2.5527,-2.5234,-2.4953,-2.4805,-2.4824,-2.4902,-2.4648,-2.4512,-2.4639,-2.4102,-2.3896,-2.4092,-2.3652,-2.3477,-2.3398,-2.3237,-2.3101,-2.3101,-2.3101,-2.3101,-2.3101,-2.3101,-2.3101,-2.3101,-2.3101,-2.3101,-2.3101,-2.3101,-2.3101,-2.3042,-2.2969,-2.2822,-2.2744,-2.1973,-2.1807,-2.1658,-2.1279,-2.0918,-2.0879,-2.0937,-2.0811,-2.0664,-2.0615,-2.0615,-2.0615,-2.0615,-2.0615,-2.0615,-2.0615,-2.0615,-2.0615,-2.0615,-2.0615,-2.0615,-2.0615,-2.0615,-2.0615,-2.0615,-2.0615,-2.0615,-2.0615,-2.0615,-2.0615,-2.0615,-2.0615,-2.0615,-2.0615,-2.0615,-2.0615,-2.0615,-2.0615,-2.0615,-2.0615,-2.0615,-2.0615,-2.0615,-2.0615,-2.0615,-2.0615,-2.0615,-2.0615,-2.0615,-2.0615,-2.0615,-2.0615,-2.0615,-2.0615,-2.0615,-2.0615,-2.0615,-2.0615,-2.0615,-1.6293,-1.8484,-1.8444,-1.8096,-1.7635,-1.7589,-1.7589,-1.7589,-1.7589,-1.7589,-1.7589,-1.7589,-1.7589,-1.7589,-1.7589,-1.7733,-1.8909,-2.0377,-2.2667,-2.4402,-2.5333,-2.5635,-2.5645,-2.5586,-2.5566,-2.5664,-2.5352,-2.5361,-2.5254,-2.4951,-2.4687,-2.4785,-2.4189,-2.3857,-2.3809,-2.3691,-2.3477,-2.3188,-2.313,-2.3101,-2.3101,-2.3101,-2.3101,-2.3101,-2.3101,-2.3101,-2.3101,-2.3101,-2.3101,-2.3101,-2.3101,-2.3101,-2.3003,-2.2861,-2.2682,-2.3033,-2.2097,-2.1824,-2.1934,-2.1396,-2.0898,-2.1171,-2.084,-2.0713,-2.0674,-2.0664,-2.0615,-2.0615,-2.0615,-2.0615,-2.0615,-2.0615,-2.0615,-2.0615,-2.0615,-2.0615,-2.0615,-2.0615,-2.0615,-2.0615,-2.0615,-2.0615,-2.0615,-2.0615,-2.0615,-2.0615,-2.0615,-2.0615,-2.0615,-2.0615,-2.0615,-2.0615,-2.0615,-2.0615,-2.0615,-2.0615,-2.0615,-2.0615,-2.0615,-2.0615,-2.0615,-2.0615,-2.0615,-2.0615,-2.0615,-2.0615,-2.0615,-2.0615,-2.0615,-2.0615,-2.0615,-2.0615,-2.0615,-2.0615,-2.0615,-1.7112,-1.847,-1.8223,-1.7909,-1.7615,-1.7589,-1.7589,-1.7589,-1.7589,-1.7589,-1.7589,-1.7589,-1.7589,-1.7635,-1.7635,-1.8805,-2.0582,-2.1803,-2.3076,-2.4864,-2.5635,-2.5684,-2.5635,-2.541,-2.541,-2.5606,-2.5527,-2.5381,-2.5244,-2.5029,-2.4668,-2.4463,-2.4014,-2.376,-2.3643,-2.3467,-2.3237,-2.313,-2.3101,-2.3101,-2.3101,-2.3101,-2.3101,-2.3101,-2.3101,-2.3101,-2.3101,-2.3101,-2.3101,-2.3101,-2.3101,-2.3101,-2.3081,-2.2994,-2.3003,-2.2916,-2.2467,-2.2109,-2.2012,-2.1475,-2.1172,-2.1083,-2.082,-2.0781,-2.0889,-2.0771,-2.0644,-2.0615,-2.0615,-2.0615,-2.0615,-2.0615,-2.0615,-2.0615,-2.0615,-2.0615,-2.0615,-2.0615,-2.0615,-2.0615,-2.0615,-2.0615,-2.0615,-2.0615,-2.0615,-2.0615,-2.0615,-2.0615,-2.0615,-2.0615,-2.0615,-2.0615,-2.0615,-2.0615,-2.0615,-2.0615,-2.0615,-2.0615,-2.0615,-2.0615,-2.0615,-2.0615,-2.0615,-2.0615,-2.0615,-2.0615,-2.0615,-2.0615,-2.0615,-2.0615,-2.0615,-2.0615,-2.0615,-2.0615,-2.0615,-1.6547,-1.8408,-1.817,-1.7862,-1.7615,-1.7589,-1.7589,-1.7589,-1.7589,-1.7589,-1.7589,-1.7589,-1.7589,-1.7786,-1.8394,-2.0179,-2.2106,-2.2767,-2.389,-2.543,-2.5684,-2.5684,-2.5596,-2.5264,-2.5225,-2.5273,-2.5176,-2.5107,-2.5,-2.456,-2.4346,-2.4062,-2.3662,-2.3457,-2.3428,-2.3227,-2.3101,-2.3101,-2.3101,-2.3101,-2.3101,-2.3101,-2.3101,-2.3101,-2.3101,-2.3101,-2.3101,-2.3101,-2.3101,-2.3101,-2.3101,-2.3101,-2.3091,-2.3081,-2.3091,-2.2984,-2.2568,-2.2246,-2.2002,-2.1484,-2.0986,-2.1112,-2.082,-2.0713,-2.0781,-2.0723,-2.0615,-2.0615,-2.0615,-2.0615,-2.0615,-2.0615,-2.0615,-2.0615,-2.0615,-2.0615,-2.0615,-2.0615,-2.0615,-2.0615,-2.0615,-2.0615,-2.0615,-2.0615,-2.0615,-2.0615,-2.0615,-2.0615,-2.0615,-2.0615,-2.0615,-2.0615,-2.0615,-2.0615,-2.0615,-2.0615,-2.0615,-2.0615,-2.0615,-2.0615,-2.0615,-2.0615,-2.0615,-2.0615,-2.0615,-2.0615,-2.0615,-2.0615,-2.0615,-2.0615,-2.0615,-2.0615,-2.0615,-2.0615,-2.0615,-1.6027,-1.8377,-1.8083,-1.7809,-1.7609,-1.7589,-1.7589,-1.7589,-1.7589,-1.7589,-1.7589,-1.7635,-1.7699,-1.8213,-1.942,-2.1257,-2.3624,-2.3633,-2.4347,-2.5305,-2.5547,-2.5557,-2.5294,-2.5088,-2.4805,-2.4863,-2.4551,-2.4473,-2.4597,-2.418,-2.3818,-2.3603,-2.3237,-2.3101,-2.311,-2.312,-2.3101,-2.3101,-2.3101,-2.3101,-2.3101,-2.3101,-2.3101,-2.3101,-2.3101,-2.3101,-2.3101,-2.3101,-2.3101,-2.3101,-2.3101,-2.3101,-2.3081,-2.3013,-2.2974,-2.2867,-2.2363,-2.2236,-2.1875,-2.1445,-2.0967,-2.1142,-2.081,-2.0703,-2.0674,-2.0713,-2.0615,-2.0615,-2.0615,-2.0615,-2.0615,-2.0615,-2.0615,-2.0615,-2.0615,-2.0615,-2.0615,-2.0615,-2.0615,-2.0615,-2.0615,-2.0615,-2.0615,-2.0615,-2.0615,-2.0615,-2.0615,-2.0615,-2.0615,-2.0615,-2.0615,-2.0615,-2.0615,-2.0615,-2.0615,-2.0615,-2.0615,-2.0615,-2.0615,-2.0615,-2.0615,-2.0615,-2.0615,-2.0615,-2.0615,-2.0615,-2.0615,-2.0615,-2.0615,-2.0615,-2.0615,-2.0615,-2.0615,-2.0615,-2.0615,-1.6502,-1.8022,-1.7776,-1.7615,-1.7589,-1.7589,-1.7589,-1.7589,-1.7569,-1.7589,-1.7542,-1.7647,-1.8012,-1.9,-2.0235,-2.1951,-2.3242,-2.3821,-2.4251,-2.5081,-2.5137,-2.501,-2.4639,-2.415,-2.4326,-2.4434,-2.4092,-2.3906,-2.3975,-2.3838,-2.3574,-2.3301,-2.3179,-2.3101,-2.3101,-2.3101,-2.3101,-2.3101,-2.3101,-2.3101,-2.3101,-2.3101,-2.3101,-2.3101,-2.3101,-2.3101,-2.3101,-2.3101,-2.3101,-2.3101,-2.3101,-2.3101,-2.3042,-2.2764,-2.2617,-2.2568,-2.2412,-2.2148,-2.1619,-2.1229,-2.1143,-2.1151,-2.085,-2.084,-2.083,-2.0723,-2.0615,-2.0615,-2.0615,-2.0615,-2.0615,-2.0615,-2.0615,-2.0615,-2.0615,-2.0615,-2.0615,-2.0615,-2.0615,-2.0615,-2.0615,-2.0615,-2.0615,-2.0615,-2.0615,-2.0615,-2.0615,-2.0615,-2.0615,-2.0615,-2.0615,-2.0615,-2.0615,-2.0615,-2.0615,-2.0615,-2.0615,-2.0615,-2.0615,-2.0615,-2.0615,-2.0615,-2.0615,-2.0615,-2.0615,-2.0615,-2.0615,-2.0615,-2.0615,-2.0615,-2.0615,-2.0615,-2.0615,-2.0615,-2.0615,-1.738,-1.7969,-1.7716,-1.7589,-1.7589,-1.7589,-1.7589,-1.7549,-1.746,-1.7387,-1.7347,-1.7141,-1.8095,-1.9821,-2.1246,-2.2634,-2.3822,-2.4088,-2.426,-2.4596,-2.4697,-2.4707,-2.4658,-2.417,-2.4023,-2.4102,-2.3754,-2.3393,-2.3477,-2.3633,-2.3564,-2.3159,-2.3101,-2.3101,-2.3101,-2.3101,-2.3101,-2.3101,-2.3101,-2.3101,-2.3101,-2.3101,-2.3101,-2.3101,-2.3101,-2.3101,-2.3101,-2.3101,-2.3101,-2.3101,-2.3101,-2.3101,-2.3071,-2.2886,-2.2682,-2.2168,-2.2393,-2.2314,-2.196,-2.1473,-2.1396,-2.1357,-2.1016,-2.0703,-2.0781,-2.0713,-2.0615,-2.0615,-2.0615,-2.0615,-2.0615,-2.0615,-2.0615,-2.0615,-2.0615,-2.0615,-2.0615,-2.0615,-2.0615,-2.0615,-2.0615,-2.0615,-2.0615,-2.0615,-2.0615,-2.0615,-2.0615,-2.0615,-2.0615,-2.0615,-2.0615,-2.0615,-2.0615,-2.0615,-2.0615,-2.0615,-2.0615,-2.0615,-2.0615,-2.0615,-2.0615,-2.0615,-2.0615,-2.0615,-2.0615,-2.0615,-2.0615,-2.0615,-2.0615,-2.0615,-2.0615,-2.0615,-2.0615,-2.0615,-2.0683,-1.7949,-1.7909,-1.7675,-1.7589,-1.7589,-1.7589,-1.7589,-1.7555,-1.7427,-1.728,-1.731,-1.7482,-1.881,-2.0618,-2.2141,-2.3477,-2.437,-2.4521,-2.4404,-2.4336,-2.4277,-2.4336,-2.418,-2.3848,-2.375,-2.4121,-2.3647,-2.3296,-2.3286,-2.3496,-2.3574,-2.312,-2.3101,-2.3101,-2.3101,-2.3101,-2.3101,-2.3101,-2.3101,-2.3101,-2.3101,-2.3101,-2.3101,-2.3101,-2.3101,-2.3101,-2.3101,-2.3101,-2.3101,-2.3101,-2.3101,-2.3101,-2.3081,-2.2896,-2.2633,-2.2295,-2.2402,-2.249,-2.2136,-2.1797,-2.1533,-2.1357,-2.1123,-2.0625,-2.0635,-2.0615,-2.0615,-2.0615,-2.0615,-2.0615,-2.0615,-2.0615,-2.0615,-2.0615,-2.0615,-2.0615,-2.0615,-2.0615,-2.0615,-2.0615,-2.0615,-2.0615,-2.0615,-2.0615,-2.0615,-2.0615,-2.0615,-2.0615,-2.0615,-2.0615,-2.0615,-2.0615,-2.0615,-2.0615,-2.0615,-2.0615,-2.0615,-2.0615,-2.0615,-2.0615,-2.0615,-2.0615,-2.0615,-2.0615,-2.0615,-2.0615,-2.0615,-2.0615,-2.0615,-2.0615,-2.0615,-2.0615,-2.0615,-2.0615,-2.0683,-1.7876,-1.7615,-1.7595,-1.7589,-1.7589,-1.7589,-1.7582,-1.7549,-1.7528,-1.7432,-1.7496,-1.8798,-1.9765,-2.1057,-2.2787,-2.4011,-2.4339,-2.4824,-2.4443,-2.4033,-2.3828,-2.375,-2.3643,-2.3461,-2.3247,-2.3393,-2.3374,-2.3369,-2.3257,-2.3486,-2.3437,-2.3159,-2.3101,-2.3101,-2.3101,-2.3101,-2.3101,-2.3101,-2.3101,-2.3101,-2.3101,-2.3101,-2.3101,-2.3101,-2.3101,-2.3101,-2.3101,-2.3101,-2.3101,-2.3101,-2.3101,-2.3101,-2.3052,-2.2867,-2.2627,-2.248,-2.2519,-2.2578,-2.2353,-2.1904,-2.1346,-2.1122,-2.0928,-2.0674,-2.0615,-2.0615,-2.0615,-2.0615,-2.0615,-2.0615,-2.0615,-2.0615,-2.0615,-2.0615,-2.0615,-2.0615,-2.0615,-2.0615,-2.0615,-2.0615,-2.0615,-2.0615,-2.0615,-2.0615,-2.0615,-2.0615,-2.0615,-2.0615,-2.0615,-2.0615,-2.0615,-2.0615,-2.0615,-2.0615,-2.0615,-2.0615,-2.0615,-2.0615,-2.0615,-2.0615,-2.0615,-2.0615,-2.0615,-2.0615,-2.0615,-2.0615,-2.0615,-2.0615,-2.0615,-2.0615,-2.0615,-2.0615,-2.0615,-2.0615,-2.0683,-1.7929,-1.7849,-1.7662,-1.7589,-1.7589,-1.7589,-1.7534,-1.7387,-1.7367,-1.7544,-1.7816,-1.9107,-2.0184,-2.1324,-2.2606,-2.3588,-2.3608,-2.3725,-2.3789,-2.374,-2.3545,-2.3559,-2.351,-2.3383,-2.3271,-2.3428,-2.3486,-2.335,-2.3149,-2.3325,-2.3257,-2.312,-2.3101,-2.3101,-2.3101,-2.3101,-2.3101,-2.3101,-2.3101,-2.3101,-2.3101,-2.3101,-2.3101,-2.3101,-2.3101,-2.3101,-2.3101,-2.3101,-2.3101,-2.3101,-2.3101,-2.3135,-2.3178,-2.2983,-2.2773,-2.266,-2.2767,-2.2701,-2.2559,-2.2148,-2.1785,-2.122,-2.1064,-2.0859,-2.0644,-2.0615,-2.0615,-2.0615,-2.0615,-2.0615,-2.0615,-2.0615,-2.0615,-2.0615,-2.0615,-2.0615,-2.0615,-2.0615,-2.0615,-2.0615,-2.0615,-2.0615,-2.0615,-2.0615,-2.0615,-2.0615,-2.0615,-2.0615,-2.0615,-2.0615,-2.0615,-2.0615,-2.0615,-2.0615,-2.0615,-2.0615,-2.0615,-2.0615,-2.0615,-2.0615,-2.0615,-2.0615,-2.0615,-2.0615,-2.0615,-2.0615,-2.0615,-2.0615,-2.0615,-2.0615,-2.0615,-2.0615,-2.0615,-2.0615,-2.076,-1.7942,-1.7896,-1.7769,-1.7669,-1.7589,-1.7589,-1.7467,-1.7233,-1.7206,-1.756,-1.8203,-1.9385,-2.044,-2.1498,-2.2717,-2.3218,-2.3266,-2.3389,-2.3477,-2.3428,-2.3344,-2.3491,-2.3598,-2.351,-2.3252,-2.3477,-2.3315,-2.3101,-2.3101,-2.3101,-2.3101,-2.311,-2.3101,-2.3101,-2.3101,-2.3101,-2.3101,-2.3101,-2.3101,-2.3101,-2.3101,-2.3101,-2.3101,-2.3101,-2.3101,-2.3101,-2.3101,-2.3101,-2.3101,-2.3101,-2.3135,-2.3299,-2.3387,-2.3347,-2.3175,-2.315,-2.3054,-2.2969,-2.2711,-2.2363,-2.1943,-2.1133,-2.0977,-2.0801,-2.0664,-2.0615,-2.0615,-2.0615,-2.0615,-2.0615,-2.0615,-2.0615,-2.0615,-2.0615,-2.0615,-2.0615,-2.0615,-2.0615,-2.0615,-2.0615,-2.0615,-2.0615,-2.0615,-2.0615,-2.0615,-2.0615,-2.0615,-2.0615,-2.0615,-2.0615,-2.0615,-2.0615,-2.0615,-2.0615,-2.0615,-2.0615,-2.0615,-2.0615,-2.0615,-2.0615,-2.0615,-2.0615,-2.0615,-2.0615,-2.0615,-2.0615,-2.0615,-2.0615,-2.0615,-2.0615,-2.0615,-2.0615,-2.0615,-2.0605,-2.0828,-1.7869,-1.7642,-1.7842,-1.7836,-1.7615,-1.7575,-1.7395,-1.7203,-1.7238,-1.7626,-1.8474,-2.0241,-2.1203,-2.1776,-2.3028,-2.3344,-2.3208,-2.3477,-2.3574,-2.334,-2.3188,-2.3179,-2.3208,-2.3198,-2.314,-2.311,-2.3101,-2.3101,-2.3101,-2.3101,-2.3101,-2.3101,-2.3101,-2.3101,-2.3101,-2.3101,-2.3101,-2.3101,-2.3101,-2.3101,-2.3101,-2.3101,-2.3101,-2.3101,-2.3101,-2.3101,-2.3101,-2.3101,-2.3101,-2.3101,-2.3101,-2.3474,-2.4049,-2.343,-2.3511,-2.4159,-2.3467,-2.3105,-2.2994,-2.2344,-2.166,-2.1074,-2.1094,-2.0938,-2.0713,-2.0635,-2.0635,-2.0654,-2.0615,-2.0615,-2.0615,-2.0615,-2.0615,-2.0615,-2.0615,-2.0615,-2.0615,-2.0615,-2.0615,-2.0615,-2.0615,-2.0615,-2.0615,-2.0615,-2.0615,-2.0615,-2.0615,-2.0615,-2.0615,-2.0615,-2.0615,-2.0615,-2.0615,-2.0615,-2.0615,-2.0615,-2.0615,-2.0615,-2.0615,-2.0615,-2.0615,-2.0615,-2.0615,-2.0615,-2.0615,-2.0615,-2.0615,-2.0615,-2.0615,-2.0615,-2.0615,-2.0615,-2.0615,-2.0644,-2.0789,-1.7682,-1.7595,-1.7695,-1.7562,-1.736,-1.7347,-1.7179,-1.6965,-1.7386,-1.8155,-1.9358,-2.0778,-2.1845,-2.2514,-2.289,-2.3247,-2.3179,-2.3169,-2.3218,-2.3535,-2.3237,-2.3389,-2.3398,-2.3208,-2.3101,-2.3101,-2.3101,-2.3101,-2.3101,-2.3101,-2.3101,-2.3101,-2.3101,-2.3101,-2.3101,-2.3101,-2.3101,-2.3101,-2.3101,-2.3101,-2.3101,-2.3101,-2.3101,-2.3101,-2.3101,-2.3101,-2.3101,-2.3101,-2.3101,-2.3101,-2.3101,-2.3387,-2.38,-2.3222,-2.3343,-2.3714,-2.3125,-2.2988,-2.2769,-2.2363,-2.207,-2.168,-2.1533,-2.1339,-2.082,-2.0898,-2.082,-2.0713,-2.0693,-2.0674,-2.0615,-2.0615,-2.0615,-2.0615,-2.0615,-2.0615,-2.0615,-2.0615,-2.0615,-2.0615,-2.0615,-2.0615,-2.0615,-2.0615,-2.0615,-2.0615,-2.0615,-2.0615,-2.0615,-2.0615,-2.0615,-2.0615,-2.0615,-2.0615,-2.0615,-2.0615,-2.0615,-2.0615,-2.0615,-2.0615,-2.0615,-2.0615,-2.0615,-2.0615,-2.0615,-2.0615,-2.0615,-2.0615,-2.0615,-2.0615,-2.0615,-2.0615,-2.0615,-2.0615,-2.0644,-1.7589,-1.7575,-1.7521,-1.7328,-1.7213,-1.7199,-1.6934,-1.6859,-1.7789,-1.8907,-1.9929,-2.1221,-2.2306,-2.2906,-2.3101,-2.3101,-2.3101,-2.311,-2.3159,-2.3516,-2.3247,-2.3266,-2.3296,-2.3266,-2.312,-2.3101,-2.3101,-2.3101,-2.3101,-2.3101,-2.3101,-2.3101,-2.3101,-2.3101,-2.3101,-2.3101,-2.3101,-2.3101,-2.3101,-2.3101,-2.3101,-2.3101,-2.3101,-2.3101,-2.3101,-2.3101,-2.3101,-2.3101,-2.3101,-2.3101,-2.3135,-2.3299,-2.342,-2.3343,-2.3396,-2.3507,-2.3236,-2.3075,-2.2789,-2.2773,-2.249,-2.2129,-2.2295,-2.1875,-2.123,-2.1357,-2.1299,-2.1173,-2.0938,-2.081,-2.0791,-2.0762,-2.0635,-2.0635,-2.0615,-2.0615,-2.0615,-2.0615,-2.0615,-2.0615,-2.0615,-2.0615,-2.0615,-2.0615,-2.0615,-2.0615,-2.0615,-2.0615,-2.0615,-2.0615,-2.0615,-2.0615,-2.0615,-2.0615,-2.0615,-2.0615,-2.0615,-2.0615,-2.0615,-2.0615,-2.0615,-2.0615,-2.0615,-2.0615,-2.0615,-2.0615,-2.0615,-2.0615,-2.0615,-2.0615,-2.0615,-2.0615,-2.0615,-2.0615,-2.0615,-1.7569,-1.7588,-1.7306,-1.7179,-1.7172,-1.7092,-1.6777,-1.6531,-1.8543,-1.9451,-1.9642,-2.198,-2.3003,-2.3047,-2.3101,-2.3101,-2.3101,-2.3101,-2.313,-2.3149,-2.312,-2.3159,-2.3149,-2.312,-2.3101,-2.3101,-2.3101,-2.3101,-2.3101,-2.3101,-2.3101,-2.3101,-2.3101,-2.3101,-2.3101,-2.3101,-2.3101,-2.3101,-2.3101,-2.3101,-2.3101,-2.3101,-2.3101,-2.3101,-2.3101,-2.3101,-2.3101,-2.3101,-2.3101,-2.3135,-2.3222,-2.38,-2.3963,-2.3681,-2.4049,-2.4049,-2.3517,-2.3226,-2.3023,-2.3003,-2.292,-2.2549,-2.2275,-2.2012,-2.1846,-2.1777,-2.1758,-2.1611,-2.1396,-2.1269,-2.1142,-2.0908,-2.0683,-2.0654,-2.0615,-2.0615,-2.0615,-2.0615,-2.0615,-2.0615,-2.0615,-2.0615,-2.0615,-2.0615,-2.0615,-2.0615,-2.0615,-2.0615,-2.0615,-2.0615,-2.0615,-2.0615,-2.0615,-2.0615,-2.0615,-2.0615,-2.0615,-2.0615,-2.0615,-2.0615,-2.0615,-2.0615,-2.0615,-2.0615,-2.0615,-2.0615,-2.0615,-2.0615,-2.0615,-2.0615,-2.0605,-2.0615,-2.0615,-2.0615,-2.0615,-1.7395,-1.7522,-1.7041,-1.6827,-1.6767,-1.6386,-1.6106,-1.6273,-1.8427,-1.9497,-1.9625,-2.205,-2.3047,-2.3101,-2.3101,-2.3101,-2.3101,-2.3101,-2.3101,-2.3101,-2.3101,-2.3101,-2.3101,-2.3101,-2.3101,-2.3101,-2.3101,-2.3101,-2.3101,-2.3101,-2.3101,-2.3101,-2.3101,-2.3101,-2.3101,-2.3101,-2.3101,-2.3101,-2.3101,-2.3101,-2.3101,-2.3101,-2.3101,-2.3101,-2.3101,-2.3101,-2.3101,-2.3101,-2.3101,-2.3135,-2.3887,-2.4339,-2.343,-2.393,-2.4457,-2.356,-2.3222,-2.3091,-2.3101,-2.3101,-2.3023,-2.2916,-2.2773,-2.2393,-2.2197,-2.2109,-2.2187,-2.2051,-2.1846,-2.168,-2.1366,-2.1103,-2.0801,-2.0664,-2.0625,-2.0615,-2.0615,-2.0615,-2.0615,-2.0625,-2.0625,-2.0664,-2.0664,-2.0615,-2.0615,-2.0615,-2.0615,-2.0615,-2.0615,-2.0615,-2.0615,-2.0615,-2.0615,-2.0615,-2.0615,-2.0615,-2.0615,-2.0615,-2.0615,-2.0615,-2.0615,-2.0615,-2.0615,-2.0615,-2.0615,-2.0615,-2.0615,-2.0615,-2.0615,-2.0605,-2.0605,-2.0605,-2.0615,-2.0644,-2.0605,-1.7306,-1.7315,-1.678,-1.6473,-1.6306,-1.5931,-1.5825,-1.6244,-1.8442,-1.9497,-1.9807,-2.2041,-2.3101,-2.3101,-2.3101,-2.3101,-2.3101,-2.3101,-2.3101,-2.3101,-2.3101,-2.3101,-2.3101,-2.3101,-2.3101,-2.3101,-2.3101,-2.3101,-2.3101,-2.3101,-2.3101,-2.3101,-2.3101,-2.3101,-2.3101,-2.3101,-2.3101,-2.3101,-2.3101,-2.3101,-2.3101,-2.3101,-2.3101,-2.3101,-2.3101,-2.3101,-2.3101,-2.3101,-2.3101,-2.3101,-2.3973,-2.3844,-2.3178,-2.3757,-2.3963,-2.3222,-2.3135,-2.3101,-2.3101,-2.3101,-2.3101,-2.3101,-2.3081,-2.2764,-2.2578,-2.249,-2.2539,-2.25,-2.2256,-2.2002,-2.165,-2.1259,-2.0957,-2.0664,-2.0635,-2.0615,-2.0615,-2.0615,-2.0625,-2.0635,-2.0683,-2.0732,-2.0723,-2.0654,-2.0615,-2.0615,-2.0615,-2.0615,-2.0615,-2.0615,-2.0615,-2.0615,-2.0615,-2.0615,-2.0615,-2.0615,-2.0615,-2.0615,-2.0615,-2.0615,-2.0615,-2.0615,-2.0615,-2.0615,-2.0615,-2.0615,-2.0615,-2.0615,-2.0615,-2.0683,-2.0895,-2.1116,-2.1049,-2.0799,-2.076,-1.7139,-1.7119,-1.6506,-1.6132,-1.5852,-1.5832,-1.5872,-1.6197,-1.8488,-1.9497,-1.9951,-2.205,-2.3101,-2.3101,-2.3101,-2.3101,-2.3101,-2.3101,-2.3101,-2.3101,-2.3101,-2.3101,-2.3101,-2.3101,-2.3101,-2.3101,-2.3101,-2.3101,-2.3101,-2.3101,-2.3101,-2.3101,-2.3101,-2.3101,-2.3101,-2.3101,-2.3101,-2.3101,-2.3101,-2.3101,-2.3101,-2.3101,-2.3101,-2.3101,-2.3101,-2.3101,-2.3101,-2.3101,-2.3101,-2.3101,-2.3309,-2.3387,-2.3464,-2.3507,-2.342,-2.3343,-2.3343,-2.3266,-2.3178,-2.3101,-2.3101,-2.3101,-2.3081,-2.2861,-2.2705,-2.2613,-2.2623,-2.2549,-2.2266,-2.1982,-2.16,-2.1484,-2.1221,-2.085,-2.0625,-2.0615,-2.0615,-2.0615,-2.0615,-2.0693,-2.085,-2.0869,-2.0713,-2.0654,-2.0742,-2.0683,-2.0615,-2.0615,-2.0615,-2.0615,-2.0615,-2.0615,-2.0615,-2.0615,-2.0615,-2.0615,-2.0615,-2.0615,-2.0615,-2.0615,-2.0615,-2.0615,-2.0615,-2.0615,-2.0615,-2.0615,-2.0615,-2.0615,-2.0722,-2.1011,-2.1298,-2.1697,-2.1593,-2.1155,-2.1346,-1.6663,-1.678,-1.6469,-1.6099,-1.5845,-1.5825,-1.6386,-1.7365,-1.881,-1.9542,-1.9951,-2.1863,-2.3101,-2.3101,-2.3101,-2.3101,-2.3101,-2.3101,-2.3101,-2.3101,-2.3101,-2.3101,-2.3101,-2.3101,-2.3101,-2.3101,-2.3101,-2.3101,-2.3101,-2.3101,-2.3101,-2.3101,-2.3101,-2.3101,-2.3101,-2.3101,-2.3101,-2.3101,-2.3101,-2.3101,-2.3101,-2.3101,-2.3101,-2.3101,-2.3101,-2.3101,-2.3101,-2.3101,-2.3101,-2.3135,-2.4049,-2.4339,-2.4414,-2.4382,-2.392,-2.342,-2.3844,-2.3724,-2.3309,-2.3091,-2.3071,-2.3062,-2.3013,-2.2808,-2.2715,-2.2643,-2.2578,-2.2402,-2.2217,-2.1882,-2.1678,-2.1621,-2.1455,-2.1006,-2.0644,-2.0644,-2.0635,-2.0635,-2.0635,-2.0762,-2.1006,-2.0937,-2.0732,-2.0693,-2.0791,-2.0752,-2.0664,-2.0615,-2.0615,-2.0615,-2.0615,-2.0615,-2.0615,-2.0615,-2.0615,-2.0615,-2.0615,-2.0615,-2.0615,-2.0615,-2.0605,-2.0615,-2.0615,-2.0615,-2.0615,-2.0615,-2.0615,-2.0615,-2.0789,-2.1088,-2.1375,-2.1659,-2.1735,-2.1451,-2.1973,-1.6415,-1.6473,-1.6199,-1.5985,-1.5893,-1.6386,-1.7084,-1.7909,-1.9542,-2.0296,-2.0531,-2.2173,-2.3101,-2.3101,-2.3101,-2.3101,-2.3101,-2.3101,-2.3101,-2.3101,-2.3101,-2.3101,-2.3101,-2.3101,-2.3101,-2.3101,-2.3101,-2.3101,-2.3101,-2.3101,-2.3101,-2.3101,-2.3101,-2.3101,-2.3101,-2.3101,-2.3101,-2.3101,-2.3101,-2.3101,-2.3101,-2.3101,-2.3101,-2.3101,-2.3101,-2.3101,-2.3101,-2.3101,-2.3101,-2.3387,-2.4135,-2.4628,-2.4882,-2.5252,-2.4925,-2.4382,-2.4296,-2.4296,-2.3507,-2.3081,-2.3003,-2.2925,-2.2828,-2.2617,-2.1943,-2.1853,-2.206,-2.1934,-2.207,-2.1846,-2.1816,-2.1738,-2.1514,-2.1143,-2.0937,-2.0879,-2.083,-2.0791,-2.0693,-2.0674,-2.085,-2.0977,-2.0771,-2.0654,-2.0732,-2.0723,-2.0615,-2.0615,-2.0615,-2.0635,-2.0625,-2.0664,-2.0703,-2.0644,-2.0615,-2.0615,-2.0615,-2.0615,-2.0615,-2.0644,-2.0644,-2.0605,-2.0615,-2.0683,-2.0722,-2.0615,-2.0615,-2.0742,-2.0702,-2.0857,-2.1193,-2.1555,-2.1603,-2.1797,-2.2342,-1.6213,-1.6172,-1.5939,-1.5832,-1.6015,-1.7131,-1.7824,-1.8326,-2.0296,-2.1391,-2.1614,-2.2624,-2.3047,-2.3101,-2.3101,-2.3101,-2.3101,-2.3101,-2.3101,-2.3101,-2.3101,-2.3101,-2.3101,-2.3101,-2.3101,-2.3101,-2.3101,-2.3101,-2.3101,-2.3101,-2.3101,-2.3101,-2.3101,-2.3101,-2.3101,-2.3101,-2.3101,-2.3101,-2.3101,-2.3101,-2.3101,-2.3101,-2.3101,-2.3101,-2.3101,-2.3101,-2.3101,-2.3101,-2.3101,-2.3387,-2.3887,-2.4178,-2.4713,-2.5168,-2.4957,-2.4542,-2.45,-2.4135,-2.3387,-2.3091,-2.2847,-2.2633,-2.2549,-2.2178,-2.1492,-2.1367,-2.1533,-2.1746,-2.1884,-2.1809,-2.177,-2.1748,-2.1504,-2.126,-2.1133,-2.1094,-2.1035,-2.0996,-2.0869,-2.0752,-2.0898,-2.1074,-2.0908,-2.0772,-2.0732,-2.0703,-2.0664,-2.0635,-2.0635,-2.0674,-2.0683,-2.0752,-2.085,-2.0771,-2.0654,-2.0644,-2.0654,-2.0615,-2.0605,-2.0683,-2.0722,-2.0722,-2.076,-2.0915,-2.0915,-2.0908,-2.0967,-2.1085,-2.1015,-2.1201,-2.1308,-2.1738,-2.1932,-2.2164,-2.2685,-1.5912,-1.5905,-1.5845,-1.5825,-1.6015,-1.7178,-1.8234,-1.9314,-2.0666,-2.1791,-2.2536,-2.2862,-2.3101,-2.3101,-2.3101,-2.3101,-2.3101,-2.3101,-2.3101,-2.3101,-2.3101,-2.3101,-2.3101,-2.3101,-2.3101,-2.3101,-2.3101,-2.3101,-2.3101,-2.3101,-2.3101,-2.3101,-2.3101,-2.3101,-2.3101,-2.3101,-2.3101,-2.3101,-2.3101,-2.3101,-2.3101,-2.3101,-2.3101,-2.3101,-2.3101,-2.3101,-2.3101,-2.3101,-2.3101,-2.3178,-2.3551,-2.3844,-2.45,-2.521,-2.5126,-2.4755,-2.4713,-2.4116,-2.3567,-2.3149,-2.2838,-2.2402,-2.2275,-2.21,-2.1531,-2.12,-2.1461,-2.1773,-2.1767,-2.1391,-2.137,-2.1494,-2.1366,-2.1133,-2.0937,-2.1103,-2.1162,-2.124,-2.125,-2.1338,-2.1533,-2.1465,-2.123,-2.1152,-2.1172,-2.1123,-2.1035,-2.0986,-2.085,-2.0811,-2.0781,-2.0899,-2.1055,-2.084,-2.0693,-2.0713,-2.0713,-2.0654,-2.076,-2.1011,-2.1078,-2.0828,-2.0944,-2.128,-2.1359,-2.1362,-2.1431,-2.1842,-2.2224,-2.242,-2.2001,-2.2008,-2.2178,-2.2265,-2.252]}]]